[[{"header":{"parameterUnit":"m.s-1","parameterCategory":1,"la1":30.6,"la2":29.2853,"lo1":-89.7004,"lo2":-87.6739,"dy":0.0162,"dx":0.0183,"nx":112,"ny":82,"refTime":"2026-03-04T00:00:00:Z","depth":0,"parameterNumber":2,"parameterNumberName":"U-component_of_WINDS"},"data":[0.0,0.0,0.0,0.0,0.0,0.0,0.0,0.0,0.0,0.0,0.0,0.0,0.0,0.0,0.0,0.0,0.0,0.0,0.0,0.0,0.0,0.0,0.0,0.0,0.0,0.0,0.0,0.0,0.0,0.0,0.0,0.0,0.0,0.0,0.0,0.0,0.0,0.0,0.0,0.0,0.0,0.0,0.0,0.0,0.0,0.0,0.0,0.0,0.0,0.0,0.0,0.0,0.0,0.0,0.0,0.0,0.0,0.0,0.0,0.0,0.0,0.0,0.0,0.0,0.0,0.0,0.0,0.0,0.0,0.0,0.0,0.0,0.0,0.0,0.0,0.0,0.0,0.0,0.0,0.0,0.0,0.0,0.0,0.0,0.0,0.0,0.0,0.0,0.0,0.0,0.0,-1.2492,-1.3587,-1.4298,-1.4292,-1.3862,-1.3239,-1.245,0.0,0.0,0.0,0.0,0.0,0.0,0.0,0.0,0.0,0.0,0.0,0.0,0.0,0.0,0.0,0.0,0.0,0.0,0.0,0.0,0.0,0.0,0.0,0.0,0.0,0.0,0.0,0.0,0.0,0.0,0.0,0.0,0.0,0.0,0.0,0.0,0.0,0.0,0.0,0.0,0.0,0.0,0.0,0.0,0.0,0.0,0.0,0.0,0.0,0.0,0.0,0.0,0.0,0.0,0.0,0.0,0.0,0.0,0.0,0.0,0.0,0.0,0.0,0.0,0.0,0.0,0.0,0.0,0.0,0.0,0.0,0.0,0.0,0.0,0.0,0.0,0.0,0.0,0.0,0.0,0.0,0.0,0.0,0.0,0.0,0.0,0.0,0.0,0.0,0.0,0.0,0.0,0.0,0.0,0.0,0.0,0.0,0.0,0.0,0.0,0.0,0.0,0.0,0.0,-1.2944,-1.3872,-1.4162,-1.4298,-1.4292,-1.4069,-1.3488,-1.245,0.0,0.0,0.0,0.0,0.0,0.0,0.0,0.0,0.0,0.0,0.0,0.0,0.0,0.0,0.0,0.0,0.0,0.0,0.0,0.0,0.0,0.0,0.0,0.0,0.0,0.0,0.0,0.0,0.0,0.0,0.0,0.0,0.0,0.0,0.0,0.0,0.0,0.0,0.0,0.0,0.0,0.0,0.0,0.0,0.0,0.0,0.0,0.0,0.0,0.0,0.0,0.0,0.0,0.0,0.0,0.0,0.0,0.0,0.0,0.0,0.0,0.0,0.0,0.0,0.0,0.0,0.0,0.0,0.0,0.0,0.0,0.0,0.0,0.0,0.0,0.0,0.0,0.0,0.0,0.0,0.0,0.0,0.0,0.0,0.0,0.0,0.0,0.0,0.0,0.0,0.0,0.0,0.0,0.0,0.0,0.0,0.0,0.0,0.0,0.0,0.0,0.0,0.0,-1.2182,-1.2673,-1.4006,-1.4144,-1.4108,-1.405,-1.3941,-1.3441,-1.2363,-1.1888,0.0,0.0,0.0,0.0,0.0,0.0,0.0,0.0,0.0,0.0,0.0,0.0,0.0,0.0,0.0,0.0,0.0,0.0,0.0,0.0,0.0,0.0,0.0,0.0,0.0,0.0,0.0,0.0,0.0,0.0,0.0,0.0,0.0,0.0,0.0,0.0,0.0,0.0,0.0,0.0,0.0,0.0,0.0,0.0,0.0,0.0,0.0,0.0,0.0,0.0,0.0,0.0,0.0,0.0,0.0,0.0,0.0,0.0,0.0,0.0,0.0,0.0,0.0,0.0,0.0,0.0,0.0,0.0,0.0,0.0,0.0,0.0,0.0,0.0,0.0,0.0,0.0,0.0,0.0,0.0,0.0,0.0,0.0,0.0,0.0,0.0,0.0,0.0,0.0,0.0,0.0,0.0,0.0,0.0,0.0,0.0,0.0,0.0,0.0,0.0,0.0,0.0,-1.2612,-1.2676,-1.3782,-1.3911,-1.3845,-1.3725,-1.3561,-1.3105,-1.2278,-1.2093,0.0,0.0,0.0,0.0,0.0,0.0,0.0,0.0,0.0,0.0,0.0,0.0,0.0,0.0,0.0,0.0,0.0,0.0,0.0,0.0,0.0,0.0,0.0,0.0,0.0,0.0,0.0,0.0,0.0,0.0,0.0,0.0,0.0,0.0,0.0,0.0,0.0,0.0,0.0,0.0,0.0,0.0,0.0,0.0,0.0,0.0,0.0,0.0,0.0,0.0,0.0,0.0,0.0,0.0,0.0,0.0,0.0,0.0,0.0,0.0,0.0,0.0,0.0,0.0,0.0,0.0,0.0,0.0,0.0,0.0,0.0,0.0,0.0,0.0,0.0,0.0,0.0,0.0,0.0,0.0,0.0,0.0,0.0,0.0,0.0,0.0,0.0,0.0,0.0,0.0,0.0,0.0,0.0,0.0,0.0,0.0,0.0,0.0,0.0,0.0,0.0,0.0,-1.3195,-1.3788,-1.3632,-1.3625,-1.357,-1.3437,-1.2866,-1.2432,-1.2295,-1.1831,0.0,0.0,0.0,0.0,0.0,0.0,0.0,0.0,0.0,0.0,0.0,0.0,0.0,0.0,0.0,0.0,0.0,0.0,0.0,0.0,0.0,0.0,0.0,0.0,0.0,0.0,0.0,0.0,0.0,0.0,0.0,0.0,0.0,0.0,0.0,0.0,0.0,0.0,0.0,0.0,0.0,0.0,0.0,0.0,0.0,0.0,0.0,0.0,0.0,0.0,0.0,0.0,0.0,0.0,0.0,0.0,0.0,0.0,0.0,0.0,0.0,0.0,0.0,0.0,0.0,0.0,0.0,0.0,0.0,0.0,0.0,0.0,0.0,0.0,0.0,0.0,0.0,0.0,0.0,0.0,0.0,0.0,0.0,0.0,0.0,0.0,0.0,0.0,0.0,0.0,0.0,0.0,0.0,0.0,0.0,0.0,0.0,0.0,0.0,0.0,0.0,0.0,-1.2844,-1.3428,0.0,-1.3804,-1.3804,-1.3661,-1.3338,-1.2922,-1.2407,0.0,0.0,0.0,0.0,0.0,0.0,0.0,0.0,0.0,0.0,0.0,0.0,0.0,0.0,0.0,0.0,0.0,0.0,0.0,0.0,0.0,0.0,0.0,0.0,0.0,0.0,0.0,0.0,0.0,0.0,0.0,0.0,0.0,0.0,0.0,0.0,0.0,0.0,0.0,0.0,0.0,0.0,0.0,0.0,0.0,0.0,0.0,0.0,0.0,0.0,0.0,0.0,0.0,0.0,0.0,0.0,0.0,0.0,0.0,0.0,0.0,0.0,0.0,0.0,0.0,0.0,0.0,0.0,0.0,0.0,0.0,0.0,0.0,0.0,0.0,0.0,0.0,0.0,0.0,0.0,0.0,0.0,0.0,0.0,0.0,0.0,0.0,0.0,0.0,0.0,0.0,0.0,0.0,0.0,0.0,0.0,0.0,0.0,0.0,0.0,0.0,0.0,-1.184,-1.262,-1.3139,0.0,-1.3467,-1.3437,-1.3288,-1.3027,-1.2643,-1.212,0.0,0.0,0.0,0.0,0.0,0.0,0.0,0.0,0.0,0.0,0.0,0.0,0.0,0.0,0.0,0.0,0.0,0.0,0.0,0.0,0.0,0.0,0.0,0.0,0.0,0.0,0.0,0.0,0.0,0.0,0.0,0.0,0.0,0.0,0.0,0.0,0.0,0.0,0.0,0.0,0.0,0.0,0.0,0.0,0.0,0.0,0.0,0.0,0.0,0.0,0.0,0.0,0.0,0.0,0.0,0.0,0.0,0.0,0.0,0.0,0.0,0.0,0.0,0.0,0.0,0.0,0.0,0.0,0.0,0.0,0.0,0.0,0.0,0.0,0.0,0.0,0.0,0.0,0.0,0.0,0.0,0.0,0.0,0.0,0.0,0.0,0.0,0.0,0.0,0.0,0.0,0.0,0.0,0.0,0.0,0.0,0.0,0.0,0.0,0.0,0.0,0.0,-1.1518,-1.2659,-1.3156,-1.2561,-1.2508,-1.2401,-1.2131,-1.1618,-1.1333,0.0,0.0,0.0,0.0,0.0,0.0,0.0,0.0,0.0,0.0,0.0,0.0,0.0,0.0,0.0,0.0,0.0,0.0,0.0,0.0,0.0,0.0,0.0,0.0,0.0,0.0,0.0,0.0,0.0,0.0,0.0,0.0,0.0,0.0,0.0,0.0,0.0,0.0,0.0,0.0,0.0,0.0,0.0,0.0,0.0,0.0,0.0,0.0,0.0,0.0,0.0,0.0,0.0,0.0,0.0,0.0,0.0,0.0,0.0,0.0,0.0,0.0,0.0,0.0,0.0,0.0,0.0,0.0,0.0,0.0,0.0,0.0,0.0,0.0,0.0,0.0,0.0,0.0,0.0,0.0,0.0,0.0,0.0,0.0,0.0,0.0,0.0,0.0,0.0,0.0,0.0,0.0,0.0,0.0,0.0,0.0,0.0,0.0,0.0,0.0,0.0,0.0,0.0,-1.1256,-1.2242,-1.2761,-1.2585,-1.2703,-1.2756,-1.2668,-1.2044,-1.1512,-1.1134,0.0,0.0,0.0,0.0,0.0,0.0,0.0,0.0,0.0,0.0,0.0,0.0,0.0,0.0,0.0,0.0,0.0,0.0,0.0,0.0,0.0,0.0,0.0,0.0,0.0,0.0,0.0,0.0,0.0,0.0,0.0,0.0,0.0,0.0,0.0,0.0,0.0,0.0,0.0,0.0,0.0,0.0,0.0,0.0,0.0,0.0,0.0,0.0,0.0,0.0,0.0,0.0,0.0,0.0,0.0,0.0,0.0,0.0,0.0,0.0,0.0,0.0,0.0,0.0,0.0,0.0,0.0,0.0,0.0,0.0,0.0,0.0,0.0,0.0,0.0,0.0,0.0,0.0,0.0,0.0,0.0,0.0,0.0,0.0,0.0,0.0,0.0,0.0,0.0,0.0,0.0,0.0,0.0,0.0,0.0,0.0,0.0,0.0,0.0,0.0,0.0,0.0,-1.097,-1.1814,-1.227,-1.2162,-1.2282,-1.2372,-1.2443,-1.1861,-1.133,-1.0978,0.0,0.0,0.0,0.0,0.0,0.0,0.0,0.0,0.0,0.0,0.0,0.0,0.0,0.0,0.0,0.0,0.0,0.0,0.0,0.0,0.0,0.0,0.0,0.0,0.0,0.0,0.0,0.0,0.0,0.0,0.0,0.0,0.0,0.0,0.0,0.0,0.0,0.0,0.0,0.0,0.0,0.0,0.0,0.0,0.0,0.0,0.0,0.0,0.0,0.0,0.0,0.0,0.0,0.0,0.0,0.0,0.0,0.0,0.0,0.0,0.0,0.0,0.0,0.0,0.0,0.0,0.0,0.0,0.0,0.0,0.0,0.0,0.0,0.0,0.0,0.0,0.0,0.0,0.0,0.0,0.0,0.0,0.0,0.0,0.0,0.0,0.0,0.0,0.0,0.0,0.0,0.0,0.0,0.0,0.0,0.0,0.0,0.0,0.0,0.0,0.0,0.0,-1.0665,-1.1388,-1.1737,-1.1497,-1.1497,-1.1571,-1.1756,-1.1291,-1.0911,-1.0779,0.0,0.0,0.0,0.0,0.0,0.0,0.0,0.0,0.0,0.0,0.0,0.0,0.0,0.0,0.0,0.0,0.0,0.0,0.0,0.0,0.0,0.0,0.0,0.0,0.0,0.0,0.0,0.0,0.0,0.0,0.0,0.0,0.0,0.0,0.0,0.0,0.0,0.0,0.0,0.0,0.0,0.0,0.0,0.0,0.0,0.0,0.0,0.0,0.0,0.0,0.0,0.0,0.0,0.0,0.0,0.0,0.0,0.0,0.0,0.0,-0.9218,0.0,0.0,0.0,0.0,0.0,0.0,0.0,0.0,0.0,0.0,0.0,0.0,0.0,0.0,0.0,0.0,0.0,0.0,0.0,0.0,0.0,0.0,0.0,0.0,0.0,0.0,0.0,0.0,0.0,0.0,0.0,0.0,0.0,0.0,0.0,0.0,0.0,0.0,0.0,0.0,0.0,-1.0432,-1.1029,-1.1325,-1.1268,-1.1415,-1.1516,-1.1553,-1.1078,-1.0498,-0.9841,-0.884,0.0,0.0,0.0,0.0,0.0,0.0,0.0,0.0,0.0,0.0,0.0,0.0,0.0,0.0,0.0,0.0,0.0,0.0,0.0,0.0,0.0,0.0,0.0,0.0,0.0,0.0,0.0,0.0,0.0,0.0,0.0,0.0,0.0,0.0,0.0,0.0,0.0,0.0,0.0,0.0,0.0,0.0,0.0,0.0,0.0,0.0,0.0,0.0,0.0,0.0,0.0,0.0,0.0,0.0,0.0,0.0,0.0,0.0,0.0,0.0,-1.0087,0.0,0.0,0.0,0.0,0.0,0.0,0.0,0.0,0.0,0.0,0.0,0.0,0.0,0.0,0.0,0.0,0.0,0.0,0.0,0.0,0.0,0.0,0.0,0.0,0.0,0.0,0.0,0.0,0.0,0.0,0.0,0.0,0.0,0.0,0.0,0.0,0.0,0.0,0.0,0.0,-1.0357,-1.0812,-1.1063,-1.1063,-1.1155,-1.1258,-1.1351,-1.0863,-1.0333,-0.9814,-0.8908,0.0,0.0,0.0,0.0,0.0,0.0,0.0,0.0,0.0,0.0,0.0,0.0,0.0,0.0,0.0,0.0,0.0,0.0,0.0,0.0,0.0,0.0,0.0,0.0,0.0,0.0,0.0,0.0,0.0,0.0,0.0,0.0,0.0,0.0,0.0,0.0,0.0,0.0,0.0,0.0,0.0,0.0,0.0,0.0,0.0,0.0,0.0,0.0,0.0,0.0,0.0,0.0,0.0,-1.1673,-1.1748,-1.1567,-1.1669,-1.1716,-1.1684,-1.1135,-1.0988,-1.1121,-1.0579,0.0,0.0,0.0,0.0,0.0,0.0,0.0,0.0,0.0,0.0,0.0,0.0,0.0,0.0,0.0,0.0,0.0,0.0,0.0,0.0,0.0,0.0,0.0,0.0,-1.1256,-1.0861,0.0,0.0,0.0,0.0,0.0,0.0,0.0,0.0,0.0,0.0,0.0,0.0,-1.0388,-1.0705,-1.091,-1.091,-1.091,-1.0968,-1.1128,-1.0741,-1.0379,-1.0123,-0.9208,-0.8502,0.0,0.0,0.0,0.0,0.0,0.0,0.0,0.0,0.0,0.0,0.0,0.0,0.0,0.0,0.0,0.0,0.0,0.0,0.0,0.0,0.0,0.0,0.0,0.0,0.0,0.0,0.0,0.0,0.0,0.0,0.0,0.0,-0.7811,-0.8263,0.0,0.0,0.0,0.0,0.0,0.0,0.0,0.0,0.0,0.0,0.0,0.0,0.0,-1.0562,-1.0922,-1.132,-1.1475,-1.1396,-1.184,-1.2109,-1.2184,-1.2204,-1.2214,-1.2204,-1.21,0.0,-1.2435,-1.1115,0.0,0.0,0.0,0.0,0.0,0.0,0.0,0.0,0.0,0.0,0.0,0.0,0.0,0.0,0.0,0.0,0.0,0.0,0.0,0.0,0.0,0.0,-1.1317,-1.1716,-1.1284,-1.0708,0.0,-1.0271,-0.9887,-0.9008,-0.8462,0.0,0.0,0.0,0.0,0.0,0.0,0.0,-1.0567,-1.0809,-1.091,-1.091,-1.091,-1.09,-1.0949,-1.0867,-1.0658,-1.021,-0.9413,-0.8738,-0.8287,-0.758,0.0,0.0,0.0,0.0,0.0,0.0,0.0,0.0,0.0,0.0,0.0,0.0,0.0,0.0,0.0,0.0,0.0,0.0,0.0,0.0,0.0,0.0,0.0,0.0,0.0,0.0,0.0,0.0,0.0,-0.7988,-0.8496,-0.8386,-0.8771,-0.8817,0.0,0.0,0.0,0.0,0.0,0.0,0.0,0.0,0.0,-1.1198,-1.1153,-1.1268,-1.1552,-1.196,-1.213,-1.2075,-1.2511,-1.2759,-1.2805,-1.2805,-1.2805,-1.2805,-1.2805,-1.2886,-1.2951,-1.2167,-1.2004,-1.221,0.0,0.0,0.0,0.0,-1.2227,-1.2473,-1.2153,-1.1987,0.0,-1.2011,0.0,0.0,0.0,0.0,0.0,0.0,0.0,0.0,0.0,0.0,-1.1985,-1.2181,-1.1965,-1.1695,-1.1674,-1.1378,-1.0698,0.0,-0.9171,-0.9066,-0.8066,0.0,0.0,0.0,0.0,-1.0166,-1.0488,-1.0646,-1.0756,-1.0833,-1.0833,-1.0862,-1.091,-1.091,-1.0695,-1.0231,-0.987,-0.9364,-0.8661,-0.8138,-0.7692,0.0,0.0,0.0,0.0,0.0,0.0,0.0,0.0,0.0,0.0,0.0,0.0,0.0,0.0,0.0,0.0,0.0,0.0,0.0,0.0,0.0,0.0,0.0,0.0,0.0,0.0,0.0,0.0,-0.8697,-0.926,-0.8605,-0.9182,-0.9234,0.0,0.0,0.0,0.0,0.0,0.0,-1.0815,-1.0943,-1.1267,-1.184,-1.1829,-1.1981,-1.2384,-1.2591,-1.2752,-1.2914,-1.3087,-1.317,-1.3194,-1.3194,-1.3194,-1.3218,-1.3362,-1.3338,-1.3181,-1.2874,-1.2772,-1.2809,-1.3014,-1.312,-1.315,-1.31,-1.3171,-1.3229,-1.2799,-1.2742,-1.2803,-1.2328,0.0,-1.1484,-1.1325,0.0,0.0,0.0,0.0,-1.2153,-1.1892,-1.2108,-1.2441,-1.2565,-1.2546,-1.2463,-1.2442,-1.2194,-1.1446,0.0,-0.9775,-0.9809,-0.858,0.0,0.0,0.0,0.0,-1.0407,-1.0451,-1.055,-1.064,-1.0746,-1.0746,-1.0765,-1.0824,-1.0824,-1.067,-1.0313,-1.0226,-0.9884,-0.9237,-0.8723,-0.8305,-0.8014,0.0,0.0,0.0,0.0,0.0,0.0,0.0,0.0,0.0,0.0,0.0,0.0,0.0,0.0,0.0,0.0,0.0,0.0,0.0,0.0,0.0,0.0,0.0,0.0,0.0,0.0,0.0,0.0,0.0,-0.9532,-1.0425,0.0,0.0,0.0,0.0,-1.0231,-1.0808,-1.1156,-1.1176,-1.1608,-1.2051,-1.2524,-1.243,-1.2791,-1.37,-1.317,-1.318,-1.3732,-1.3296,-1.3128,-1.3194,-1.3194,-1.3194,-1.3242,-1.3732,-1.3671,-1.3178,-1.2778,-1.2806,-1.3049,-1.268,-1.274,-1.2976,-1.2667,-1.3062,-1.3625,-1.2804,-1.3138,-1.3906,-1.3821,-1.3386,-1.2904,-1.2902,-1.2531,0.0,0.0,-1.1912,-1.2307,-1.2346,-1.2302,-1.2328,-1.2763,-1.2641,-1.2358,-1.2243,-1.2336,-1.2089,0.0,-1.0188,-0.9858,-0.964,0.0,-0.9816,-1.0238,-1.0365,-1.0451,-1.0568,-1.0611,-1.0602,-1.0602,-1.0621,-1.0621,-1.0621,-1.0621,-1.0611,-1.0591,-1.0272,-1.0083,-1.0042,-0.9293,-0.8682,-0.8287,-0.7977,0.0,0.0,0.0,0.0,0.0,0.0,0.0,0.0,0.0,0.0,0.0,0.0,0.0,0.0,0.0,0.0,0.0,0.0,0.0,0.0,0.0,0.0,0.0,0.0,0.0,0.0,0.0,0.0,-1.0737,-1.1028,0.0,-1.0791,-1.0826,-1.0833,-1.0764,-1.1233,-1.1626,-1.1824,-1.2004,-1.2312,-1.278,-1.2752,-1.2892,-1.3234,-1.3002,-1.3002,-1.3234,-1.3344,-1.3272,-1.3007,-1.3324,-1.3286,-1.3007,-1.32,-1.3176,-1.2997,-1.2859,-1.3325,-1.4124,-1.3971,-1.4171,-1.4501,-1.4061,-1.3872,-1.3704,-1.3111,-1.3065,-1.324,-1.2901,-1.2656,-1.245,-1.2187,-1.2154,-1.2179,-1.2023,-1.232,-1.2689,-1.2726,-1.2694,-1.2686,-1.2866,-1.2812,-1.2704,-1.267,-1.2457,-1.2163,-1.1711,-1.1529,-1.1255,-1.0632,-1.0754,-1.0895,-1.0794,-1.1015,-1.1085,-1.0834,-1.0784,-1.0716,-1.0487,-1.0476,-1.0505,-1.0602,-1.0602,-1.0602,-1.0602,-1.0498,-1.0333,-1.0105,-0.9832,-0.9359,-0.8702,-0.8305,-0.7613,0.0,0.0,0.0,0.0,0.0,0.0,0.0,0.0,0.0,0.0,0.0,0.0,0.0,0.0,0.0,0.0,0.0,0.0,0.0,0.0,0.0,0.0,0.0,0.0,0.0,0.0,-1.1066,-1.1556,-1.1776,-1.1758,-1.151,-1.1511,-1.1591,-1.1666,-1.1933,-1.2286,-1.2656,-1.2512,-1.2649,-1.3128,-1.3106,-1.3185,-1.3347,-1.3332,-1.3401,-1.3576,-1.3705,-1.3616,-1.3326,-1.3631,-1.3616,-1.3316,-1.3318,-1.3259,-1.3101,-1.3125,-1.361,-1.434,-1.434,-1.4525,-1.4766,-1.4617,-1.4433,-1.4177,-1.3881,-1.3488,-1.3088,-1.2765,-1.2559,-1.2393,-1.2122,-1.2217,-1.2451,-1.2451,-1.2656,-1.2905,-1.2905,-1.2905,-1.2905,-1.2905,-1.2905,-1.2905,-1.2905,-1.2656,-1.2451,-1.2451,-1.2223,-1.1885,-1.1297,-1.142,-1.1508,-1.1245,-1.143,-1.1498,-1.1183,-1.1154,-1.1036,-1.0834,-1.0666,-1.0607,-1.0686,-1.0576,-1.0505,-1.0505,-1.0525,-1.0433,-1.0199,-0.996,-0.9593,-0.9071,-0.8497,-0.7945,-0.7438,0.0,0.0,0.0,0.0,0.0,0.0,0.0,0.0,0.0,0.0,0.0,0.0,0.0,0.0,0.0,0.0,0.0,0.0,0.0,0.0,0.0,0.0,0.0,-0.9994,-1.1534,-1.2418,-1.2015,-1.2679,-1.2837,-1.1951,-1.2079,-1.2431,-1.2979,-1.2969,-1.3138,-1.3583,-1.3196,-1.3143,-1.3604,-1.3551,-1.3745,-1.4218,-1.4152,-1.4397,-1.494,-1.4423,-1.4184,-1.4158,-1.4184,-1.4158,-1.4138,-1.4195,-1.3963,-1.3547,-1.362,-1.3662,-1.3675,-1.3631,-1.3597,-1.3658,-1.4118,-1.4593,-1.504,-1.504,-1.4408,-1.3597,-1.3586,-1.3272,-1.2929,-1.2929,-1.2929,-1.2929,-1.2954,-1.2954,-1.2954,-1.2954,-1.2954,-1.2954,-1.2954,-1.2954,-1.2954,-1.2929,-1.2929,-1.2929,-1.2905,-1.221,-1.1645,-1.1645,-1.1645,-1.1645,-1.1645,-1.1645,0.0,-1.1626,-1.1626,-1.1616,-1.1606,-1.1182,-1.0928,-1.0908,-1.0537,-1.0312,-1.0303,-1.037,-1.0399,-1.0399,-0.9704,-0.9355,-0.9406,-0.8613,-0.8366,-0.8699,0.0,0.0,0.0,0.0,0.0,0.0,0.0,0.0,0.0,0.0,0.0,0.0,0.0,0.0,0.0,0.0,0.0,0.0,0.0,0.0,0.0,0.0,-1.0126,-1.0043,-1.1131,-1.2298,-1.3248,-1.3128,-1.3154,-1.357,-1.3057,-1.2911,-1.3411,-1.3406,-1.3597,-1.4002,-1.3899,-1.3887,-1.3951,-1.3949,-1.4208,-1.4769,-1.4763,-1.506,-1.5628,-1.5858,-1.5782,-1.5412,-1.5807,-1.5526,-1.4736,-1.4769,-1.4718,-1.4588,-1.4609,-1.4862,-1.5174,-1.4038,-1.3597,-1.3621,-1.3729,-1.3668,-1.3512,-1.3512,-1.3549,-1.3549,-1.32,-1.3248,-1.3416,-1.3416,-1.3416,-1.3478,-1.3823,-1.3907,-1.3907,-1.3907,-1.3907,-1.3907,-1.3907,-1.3907,-1.3823,-1.3478,-1.3416,-1.332,-1.2978,-1.2709,-1.2543,-1.2543,-1.2543,-1.2543,-1.2543,-1.2543,0.0,-1.209,-1.2051,-1.1924,-1.1636,-1.1477,-1.1271,-1.0937,-1.0801,-1.0605,-1.0322,-1.0322,-1.0351,-1.0399,-1.0209,-0.9986,-0.9765,-0.8925,-0.8541,0.0,0.0,0.0,0.0,0.0,0.0,0.0,0.0,0.0,0.0,0.0,0.0,0.0,0.0,0.0,0.0,0.0,0.0,0.0,0.0,0.0,0.0,-1.0839,-1.1044,-1.1005,-1.174,-1.2653,-1.3655,-1.3442,-1.3478,-1.4235,-1.3454,-1.3256,-1.4121,-1.3803,-1.3825,-1.4465,-1.4512,-1.461,-1.4825,-1.5036,-1.5325,-1.5658,-1.585,-1.6106,-1.6451,-1.6752,-1.6752,-1.6451,-1.6778,-1.6557,-1.5908,-1.5743,-1.5658,-1.5648,-1.5446,-1.5592,0.0,0.0,0.0,0.0,0.0,-1.5024,-1.4769,-1.4549,-1.4671,-1.4817,-1.4328,-1.4352,-1.4563,-1.4563,-1.44,-1.4299,-1.4551,-1.4481,-1.4305,-1.4305,-1.4305,-1.4305,-1.4305,-1.4305,-1.4235,-1.3954,-1.3884,-1.3752,-1.3272,-1.3176,0.0,-1.2929,-1.2905,-1.2905,-1.2905,-1.2905,-1.2793,-1.2539,-1.25,-1.2402,-1.2162,-1.1976,-1.1738,-1.1463,-1.1102,0.0,0.0,0.0,-1.0234,-1.0066,-1.0113,0.0,0.0,0.0,0.0,0.0,0.0,0.0,0.0,-0.8901,-0.8648,0.0,0.0,0.0,0.0,0.0,0.0,0.0,0.0,0.0,0.0,0.0,0.0,0.0,0.0,0.0,0.0,-1.1709,-1.194,-1.2454,-1.2884,-1.328,-1.364,-1.3634,-1.3776,-1.4247,-1.3542,-1.3577,-1.4917,-1.4245,-1.4164,-1.5123,0.0,0.0,0.0,0.0,-1.6686,-1.6766,-1.7131,-1.7341,-1.7396,-1.7396,-1.7396,-1.7396,-1.7396,-1.7368,-1.7291,-1.6927,-1.6766,-1.6733,-1.6317,-1.6192,-1.6257,-1.6521,-1.6612,-1.6662,-1.7082,-1.7229,-1.7156,-1.6749,0.0,0.0,-1.6087,-1.5949,-1.5974,-1.5974,-1.5651,-1.5284,-1.5333,-1.5023,-1.4644,-1.4578,-1.4567,-1.4533,-1.4478,-1.4467,-1.4444,-1.4398,-1.4398,-1.4258,-1.3776,-1.3634,-1.3478,-1.3041,-1.2954,-1.2905,-1.2905,-1.2905,-1.2905,-1.2905,-1.2905,-1.2905,-1.2905,0.0,0.0,-1.2213,-1.1492,-1.1035,-1.0986,-1.0635,-1.0254,-0.9845,-0.9946,-0.9946,-0.9825,-0.9992,-1.0237,-1.0548,-1.0645,-1.0704,-1.0685,-0.9454,-0.9067,0.0,0.0,0.0,0.0,0.0,0.0,0.0,0.0,0.0,0.0,0.0,0.0,0.0,0.0,0.0,-1.1818,-1.2051,-1.2408,-1.3236,-1.3439,-1.3682,-1.4107,-1.3823,-1.3776,-1.4247,-1.4077,-1.4254,-1.5026,-1.5257,-1.5781,-1.6774,-1.686,-1.6881,-1.6945,-1.7016,-1.7318,-1.782,-1.7872,-1.8174,-1.8655,0.0,0.0,-1.8655,-1.8655,-1.8402,-1.7918,-1.7827,-1.7809,-1.7809,-1.7706,-1.7966,-1.8239,-1.6681,-1.605,-1.6061,-1.6163,-1.6188,-1.6188,-1.6087,-1.635,-1.6612,-1.6087,-1.6188,-1.6562,-1.6562,-1.6457,0.0,-1.6855,-1.6882,-1.6705,-1.6268,-1.6161,-1.6055,-1.5608,-1.5513,-1.5401,-1.504,-1.4949,-1.48,-1.4281,-1.3871,-1.3573,-1.3478,-1.3162,-1.2905,-1.2905,-1.2905,-1.2905,-1.2905,-1.2905,-1.2905,-1.2905,-1.2827,-1.2617,-1.2233,-1.2057,-1.1816,-1.1477,-1.14,-1.1322,-1.1213,-1.1234,-1.1234,-1.1203,-1.1255,-1.1305,-1.1373,-1.1394,-1.1425,-1.1394,-1.0915,-1.0686,0.0,0.0,0.0,0.0,0.0,0.0,0.0,0.0,0.0,0.0,0.0,-1.0397,-1.1083,0.0,-1.159,-1.267,-1.2682,-1.2794,-1.3494,-1.3406,-1.3501,-1.4212,-1.4095,-1.4262,-1.5021,-1.4822,-1.5084,-1.6118,-1.6192,-1.6508,-1.7198,-1.7527,-1.7695,-1.7633,-1.7945,-1.8267,-1.8536,-1.8536,-1.8709,-1.8987,-1.8987,-1.8987,-1.8987,-1.8987,-1.8854,-1.8536,-1.8536,-1.8536,-1.8536,-1.8536,-1.8735,-1.8912,-1.7868,-1.7451,-1.7451,-1.7451,-1.7451,-1.7451,-1.7451,-1.7643,-1.781,-1.754,-1.7643,-1.7861,-1.7861,-1.7659,-1.7509,-1.7734,-1.7616,-1.7327,-1.7063,-1.6799,-1.6535,-1.6271,-1.6006,-1.5748,-1.5491,-1.5446,-1.5311,-1.48,-1.4501,-1.4269,-1.4001,-1.3752,-1.343,-1.2978,-1.2905,-1.2905,-1.2905,-1.2905,-1.2905,-1.2905,-1.2905,-1.2817,-1.2578,-1.233,-1.2041,-1.1636,-1.1606,-1.1606,-1.1606,-1.1606,-1.1606,-1.1606,-1.1606,-1.1606,-1.1606,-1.1606,-1.1702,-1.1895,-1.1758,-1.1563,0.0,0.0,0.0,0.0,0.0,0.0,0.0,0.0,-1.0491,-1.055,-1.1132,-1.1708,-1.2051,-1.2265,-1.2672,-1.3473,-1.3343,-1.3355,-1.396,-1.3611,-1.3659,-1.4622,-1.4576,-1.4835,-1.582,-1.5676,-1.604,-1.7263,-1.7059,-1.7068,-1.7512,-1.8011,-1.8255,-1.8255,-1.8735,-1.8987,-1.8987,-1.8987,-1.8987,-1.8987,-1.8987,-1.8987,-1.8987,-1.8987,-1.8987,-1.8987,-1.8987,-1.8987,-1.8987,-1.8987,-1.8987,-1.8987,-1.8987,-1.8987,-1.8987,-1.8987,-1.8987,-1.8987,-1.8987,-1.8987,-1.8987,-1.8987,-1.8987,-1.8987,-1.8987,-1.8698,-1.835,-1.835,-1.8049,-1.77,-1.7567,-1.7219,-1.6883,-1.6787,-1.6427,-1.609,-1.5994,-1.597,-1.58,-1.5335,-1.5153,-1.4971,-1.4536,-1.4374,-1.4048,-1.3296,-1.3162,-1.3138,-1.3041,-1.3017,-1.2968,-1.2881,-1.2856,-1.2881,-1.2905,-1.2559,-1.2207,-1.1858,-1.1839,-1.1839,-1.1839,-1.1839,-1.1839,-1.1839,-1.1839,-1.1839,-1.1839,-1.1839,-1.2025,-1.233,-1.233,-1.2168,-1.1381,-1.0656,-0.9945,-0.9995,-0.9736,-0.9757,0.0,0.0,-1.0915,-1.1423,-1.1929,-1.2268,-1.2207,-1.2872,-1.3473,-1.3576,-1.3854,-1.4423,-1.5477,-1.5141,-1.5165,-1.622,-1.5537,-1.5248,-1.583,-1.6608,-1.7168,-1.7462,-1.776,-1.8197,-1.8762,-1.8854,-1.8907,-1.8907,-1.896,-1.8987,-1.8987,-1.8987,-1.8987,-1.8987,-1.8987,-1.8987,-1.8987,-1.8987,-1.8987,-1.8987,-1.8987,-1.8987,-1.8987,-1.8987,-1.8987,-1.8987,-1.8987,-1.8987,-1.8987,-1.8987,-1.8987,-1.8987,-1.8987,-1.8987,-1.8987,-1.8987,-1.8987,-1.8987,-1.8987,-1.8951,-1.8903,-1.8903,-1.8855,-1.871,-1.8229,-1.8073,-1.7905,-1.7411,-1.7255,-1.7087,-1.6619,-1.6511,-1.6344,-1.5809,-1.539,-1.5085,-1.5017,-1.4605,-1.4258,-1.4165,-1.4142,-1.3978,-1.3573,-1.342,-1.319,-1.2774,-1.2725,-1.2774,-1.2881,-1.2856,-1.2807,-1.2758,-1.2758,-1.2758,-1.2758,-1.2758,-1.2758,-1.2758,-1.2758,-1.2758,-1.2758,-1.2758,-1.2788,-1.2812,-1.2812,-1.2807,-1.285,-1.2009,0.0,0.0,-1.1073,-1.124,-1.1727,-1.1964,-1.2161,-1.2409,-1.2802,-1.3154,-1.3367,-1.3733,-1.4204,0.0,-1.4809,-1.511,-1.6207,-1.5615,-1.5339,-1.6091,-1.583,-1.5885,-1.6692,-1.7128,-1.7623,-1.8315,-1.8537,-1.8735,-1.8987,-1.8987,-1.8987,-1.8987,-1.8987,-1.8987,-1.8987,-1.8987,-1.8987,-1.8987,-1.8987,-1.8987,-1.8999,-1.9338,-1.9636,-1.9937,-1.9941,-1.9925,-1.9937,-1.9937,-1.9925,-1.9941,-1.9925,-1.9937,-1.9865,-1.9227,-1.8987,-1.8987,-1.8987,-1.8987,-1.8987,-1.8987,-1.8987,-1.8987,-1.8987,-1.8987,-1.8987,-1.8987,-1.8987,-1.8939,-1.871,-1.8434,-1.8145,-1.7929,-1.764,-1.7327,-1.7111,-1.7063,-1.6991,-1.6775,-1.6313,-1.5961,-1.5961,-1.552,-1.5164,-1.5164,-1.4674,-1.4235,-1.4025,-1.3647,-1.318,-1.2652,-1.2578,-1.2603,-1.2652,-1.2735,-1.2783,-1.2783,-1.2856,-1.2905,-1.2905,-1.2905,-1.2856,-1.2783,-1.2783,-1.2759,-1.2686,-1.2759,-1.2783,-1.2783,-1.2856,-1.2905,-1.3602,0.0,0.0,-1.2001,-1.2215,-1.2528,-1.2647,-1.3028,-1.3354,-1.3352,-1.3592,-1.3894,-1.4235,-1.4421,-1.4819,-1.575,-1.5669,-1.5879,-1.6975,-1.6173,-1.5674,-1.6265,-1.6056,-1.6209,-1.7099,-1.746,-1.8013,-1.8915,-1.8987,-1.8987,-1.8987,-1.8987,-1.8987,-1.8987,-1.8987,-1.9059,-1.923,-1.9215,-1.9287,-1.9444,-1.9444,-1.9444,-1.9456,-1.9829,-2.0225,-2.0581,-2.0615,-2.0586,-2.0581,-2.0581,-2.0598,-2.0603,-2.0598,-2.0581,-2.0514,-1.972,-1.9432,-1.9444,-1.9444,-1.9444,-1.9444,-1.9444,-1.9432,-1.9447,-1.9447,-1.9432,-1.9408,-1.9251,-1.9215,-1.9206,-1.9035,-1.871,-1.8422,-1.8422,-1.8121,-1.7808,-1.7639,-1.7603,-1.7592,-1.7423,-1.7087,-1.6823,-1.6823,-1.6379,-1.6008,-1.6008,-1.5268,-1.4651,-1.449,-1.3907,-1.33,-1.2706,-1.2632,-1.2593,-1.2505,-1.2627,-1.27,-1.27,-1.2832,-1.2954,-1.3089,-1.292,-1.2847,-1.2886,-1.2725,-1.2603,-1.2505,-1.2603,-1.27,-1.2837,-1.2798,-1.2968,0.0,0.0,-1.2329,-1.2446,-1.2728,-1.3107,-1.3564,-1.3968,-1.426,-1.426,-1.4271,-1.4271,-1.4305,-1.4731,-1.5246,-1.5797,-1.6207,-1.685,-1.7996,-1.7177,-1.6677,-1.729,-1.644,-1.602,0.0,-1.758,-1.841,-1.8951,-1.8987,-1.8987,-1.8987,-1.8987,-1.8987,-1.8987,-1.8987,-1.9266,-1.9772,-1.9784,-2.0033,-2.0533,-2.0533,-2.0533,-2.0533,-2.0557,-2.0569,-2.0581,-2.0615,-2.0586,-2.0581,-2.0581,-2.0598,-2.0603,-2.0598,-2.0581,-2.061,-2.0567,-2.0538,-2.0533,-2.0533,-2.0533,-2.0533,-2.0533,-2.0538,-2.0543,-2.0543,-2.0538,-2.0454,-1.9913,-1.9784,-1.9664,-1.9158,-1.8975,-1.8963,-1.8963,-1.8951,-1.8806,-1.8289,-1.8181,-1.8025,-1.7495,-1.74,-1.7388,-1.7388,-1.6931,-1.6583,-1.6583,-1.6116,-1.5536,-1.4949,-1.4246,-1.3586,-1.304,-1.2991,-1.2856,-1.2529,-1.2627,-1.27,-1.27,-1.2832,-1.3113,-1.3573,-1.3007,-1.291,-1.3372,-1.2803,-1.2505,-1.2505,-1.2505,-1.273,-1.317,-1.273,-1.3094,-1.3622,0.0,-1.3636,-1.3357,-1.3594,-1.3905,-1.4065,-1.4208,-1.4398,-1.4754,-1.4823,-1.4937,-1.5232,-1.5446,-1.5735,-1.6279,-1.6776,-1.737,-1.8096,-1.786,-1.7572,-1.7435,-1.6763,0.0,0.0,0.0,0.0,-1.8398,-1.847,-1.8614,-1.8975,-1.8987,-1.8987,-1.8987,-1.9363,-1.9627,-1.9808,-2.0153,-2.043,-2.0581,-2.0581,-2.0803,-2.1139,-2.1139,-2.1332,-2.1668,-2.1644,-2.1656,-2.1668,-2.1668,-2.1656,-2.1644,-2.1656,-2.1668,-2.1656,-2.1644,-2.1656,-2.156,-2.0863,-2.0581,-2.0581,-2.0581,-2.061,-2.0598,-2.0598,-2.061,-2.0545,-2.0382,-2.0334,-2.0298,-2.0117,-1.9793,-1.9543,-1.9543,-1.9266,-1.8939,-1.8758,-1.8722,-1.8674,-1.8494,-1.8181,-1.7941,-1.7941,-1.7496,-1.6967,-1.6468,-1.6072,-1.5558,-1.4846,-1.4548,-1.4142,-1.3457,-1.3396,-1.3218,-1.2735,-1.2808,-1.2803,-1.2578,-1.2997,-1.33,-1.3467,-1.361,-1.3692,-1.3668,-1.3478,-1.331,-1.3238,-1.331,-1.343,-1.3597,-1.3539,-1.3695,-1.4164,-1.419,-1.434,-1.4238,-1.4383,-1.4628,-1.4789,-1.4835,-1.4926,-1.5289,-1.5356,-1.5424,-1.5748,-1.5792,-1.5994,-1.6511,-1.7039,-1.7592,-1.8133,-1.8037,-1.7869,-1.7712,-1.7039,-1.6679,0.0,0.0,0.0,-1.8133,-1.8374,-1.8638,-1.8975,-1.8987,-1.8987,-1.8987,-1.9531,-1.9877,-2.0069,-2.0622,-2.0995,-2.1175,-2.1175,-2.1356,-2.1692,-2.1692,-2.1873,-2.2197,-2.2197,-2.2197,-2.2197,-2.2197,-2.2197,-2.2197,-2.2197,-2.2197,-2.2197,-2.2197,-2.2197,-2.2101,-2.1416,-2.1175,-2.1175,-2.1175,-2.1175,-2.1175,-2.1175,-2.1175,-2.1139,-2.0947,-2.0899,-2.0851,-2.0658,-2.0346,-2.0081,-2.0081,-1.9688,-1.9302,-1.9302,-1.9158,-1.8987,-1.8987,-1.871,-1.8482,-1.8482,-1.7998,-1.7385,-1.6728,-1.6397,-1.5892,-1.4949,-1.4835,-1.4605,-1.3941,-1.3905,-1.3681,-1.3136,-1.3218,-1.3204,-1.2983,-1.342,-1.3766,-1.3931,-1.4071,-1.4129,-1.4129,-1.3858,-1.3692,-1.3597,-1.3692,-1.3834,-1.3999,-1.3918,-1.4082,-1.4561,-1.4426,-1.4545,-1.5016,-1.5154,-1.5301,-1.5703,-1.5792,-1.578,-1.5756,-1.5756,-1.5744,0.0,0.0,-1.5924,-1.6439,-1.7015,-1.7592,-1.8097,-1.7772,-1.7651,0.0,0.0,0.0,0.0,0.0,0.0,-1.8157,0.0,-1.8963,-1.8987,-1.8987,-1.8999,-1.9035,-1.9567,-2.0093,-2.0646,-2.1187,-2.1692,-2.2197,-2.2197,-2.2197,-2.2197,-2.2197,-2.2197,-2.2197,-2.2197,-2.2197,-2.2197,-2.2197,-2.2197,-2.2197,-2.2197,-2.2197,-2.2197,-2.2197,-2.2197,-2.2197,-2.2197,-2.2197,-2.2197,-2.2197,-2.2197,-2.2197,-2.2197,-2.2197,-2.2089,-2.1584,-2.144,-2.132,-2.0798,-2.0653,-2.0629,-2.0629,-2.0225,-1.9856,-1.9844,-1.9435,-1.9035,-1.9035,-1.9011,-1.8987,-1.8987,-1.8462,-1.7833,-1.7323,-1.7093,-1.6571,-1.5338,-1.5165,-1.4983,-1.4533,-1.4454,-1.421,-1.3692,-1.3763,-1.3821,-1.3797,-1.4059,-1.4421,-1.4869,-1.4351,-1.4271,-1.4709,-1.4025,-1.3692,-1.3692,-1.3692,-1.3952,-1.4419,-1.3894,-1.4246,-1.4883,-1.5411,-1.5957,-1.5696,-1.5922,-1.6135,-1.5854,-1.5792,-1.5684,-1.5289,-1.5205,-1.5106,0.0,0.0,0.0,-1.5384,-1.6535,0.0,-1.7567,-1.8181,0.0,-1.8229,0.0,-1.77,-1.7436,-1.7772,0.0,0.0,-1.8326,-1.8578,-1.8963,-1.8987,-1.9167,-1.9591,-2.0117,-2.0658,-2.1199,-2.1728,-2.2053,-2.2197,-2.2197,-2.2197,-2.2197,-2.2197,-2.2197,-2.2197,-2.2197,-2.2197,-2.2197,-2.2197,-2.2197,-2.2197,-2.2197,-2.2197,-2.2197,-2.2197,-2.2197,-2.2197,-2.2197,-2.2197,-2.2197,-2.2197,-2.2197,-2.2197,-2.2197,-2.2197,-2.2161,-2.2029,-2.1993,-2.1957,-2.1825,-2.15,-2.1211,-2.1211,-2.0791,-2.0394,-2.0398,-1.9977,-1.9615,-1.9615,-1.9263,-1.8987,-1.8987,-1.8528,-1.8081,-1.7836,-1.733,-1.6852,-1.6412,-1.6066,-1.5752,-1.5553,-1.5153,-1.472,-1.4233,-1.4233,-1.4127,-1.3821,-1.4177,-1.4502,-1.4685,-1.4857,-1.4971,-1.5006,-1.48,-1.4709,-1.4709,-1.4709,-1.4789,-1.4926,-1.4789,-1.4869,-1.5696,-1.6319,-1.6823,-1.6295,-1.6379,-1.6403,-1.5624,-1.5444,-1.5322,-1.4802,-1.4694,0.0,0.0,0.0,0.0,0.0,0.0,0.0,-1.7363,-1.7929,-1.8362,0.0,-1.8338,0.0,-1.8109,-1.8374,-1.8554,0.0,-1.8554,-1.8674,-1.8975,-1.9215,-1.9495,-1.9796,-2.055,-2.1211,-2.174,-2.2041,-2.2197,-2.2197,-2.2197,-2.2197,-2.2197,-2.2197,-2.2197,-2.2197,0.0,-2.2197,-2.2197,-2.2197,-2.2197,-2.2197,-2.2197,-2.2197,-2.2197,-2.2197,-2.2197,-2.2197,-2.2197,-2.2197,-2.2197,-2.2197,-2.2197,-2.2197,-2.2197,-2.2197,-2.2197,-2.2197,-2.2197,-2.2197,-2.2197,-2.1969,-2.1753,-2.1753,-2.1344,-2.0959,-2.0935,-2.0526,-2.0069,-1.9856,-1.9567,-1.9263,-1.9035,-1.8694,-1.845,-1.836,-1.7942,-1.7585,-1.7508,-1.6819,-1.6296,-1.6223,-1.5946,-1.5575,-1.5101,-1.5066,-1.4896,-1.4477,-1.4709,-1.488,-1.4994,-1.5187,-1.5267,-1.5187,-1.5131,-1.5108,-1.5108,-1.5108,-1.5108,-1.5108,-1.5108,-1.5108,-1.6607,-1.6991,-1.7267,-1.6739,-1.6607,-1.6331,-1.5253,-1.5013,-1.4866,-1.4313,0.0,-1.4168,-1.4096,0.0,-1.4905,-1.4905,0.0,-1.6787,-1.7315,-1.7447,-1.7893,-1.8867,-1.859,-1.8482,-1.8939,-1.8987,-1.8987,-1.8987,-1.8987,-1.8987,-1.8987,-1.9519,-1.988,-2.0013,-2.0983,-2.1728,-2.2185,-2.2197,-2.2197,-2.2197,-2.2197,-2.2197,-2.2197,-2.2197,-2.2197,-2.2197,-2.2197,0.0,-2.2197,-2.2197,-2.2197,-2.2197,-2.2197,-2.2197,-2.2197,-2.2197,-2.2197,-2.2197,-2.2197,-2.2197,-2.2197,-2.2197,-2.2197,-2.2197,-2.2197,-2.2197,-2.2197,-2.2197,-2.2197,-2.2197,-2.2197,-2.2197,-2.2197,-2.2197,-2.1849,-2.1512,-2.1512,-2.1091,-2.0562,-1.9997,-1.9916,-1.9748,-1.9191,-1.9,-1.8908,-1.8836,-1.861,-1.8449,-1.8422,-1.7416,-1.6701,-1.6701,-1.6633,-1.6426,-1.6038,-1.6003,-1.5832,-1.5498,-1.5487,-1.5544,-1.5646,-1.5485,-1.5394,-1.5371,-1.5199,-1.5108,-1.5108,-1.5108,-1.5131,-1.5131,-1.5234,-1.5257,-1.6607,-1.6991,-1.7267,-1.6739,-1.6607,-1.6331,-1.5253,-1.5013,0.0,0.0,0.0,-1.3505,-1.3059,-1.3782,0.0,-1.4434,0.0,0.0,0.0,0.0,-1.8289,0.0,0.0,0.0,0.0,0.0,0.0,0.0,0.0,-1.8987,-1.8987,-1.9519,-2.0217,-2.1091,-2.1728,-2.2101,-2.2197,-2.2197,-2.2197,-2.2197,-2.2197,-2.2197,-2.2197,-2.2197,-2.2197,-2.2197,-2.2197,0.0,-2.2197,-2.2197,-2.2197,-2.2197,-2.2197,-2.2197,-2.2197,-2.2197,-2.2197,-2.2197,-2.2197,-2.2197,-2.2197,-2.2197,-2.2197,-2.2197,-2.2197,-2.2197,-2.2197,-2.2197,-2.2197,-2.2197,-2.2197,-2.2197,-2.2197,-2.2197,-2.2125,-2.2053,-2.2053,-2.1644,-2.1103,-2.0574,-2.0466,-2.0298,-1.976,-1.9648,-1.9465,-1.9032,-1.8813,-1.8691,-1.8572,-1.7795,-1.7243,-1.7243,-1.6876,-1.6564,-1.6484,-1.6472,-1.6438,-1.6371,-1.647,-1.6495,-1.6408,-1.6112,-1.5904,-1.5797,-1.5337,-1.5108,-1.5108,-1.521,-1.5267,-1.5278,-1.5823,-1.6092,-1.6607,-1.6991,-1.7267,-1.6739,-1.6607,-1.6259,-1.4935,0.0,0.0,0.0,0.0,-1.3011,-1.2758,0.0,0.0,0.0,0.0,0.0,0.0,0.0,0.0,0.0,0.0,0.0,0.0,0.0,0.0,0.0,0.0,-1.8987,-1.8987,-1.9768,-2.0706,-2.1777,-2.2065,-2.2197,-2.2197,-2.2197,-2.2197,-2.2197,-2.2197,-2.2197,-2.2197,-2.2197,-2.2197,-2.2197,-2.2197,0.0,-2.2197,-2.2197,-2.2197,-2.2197,-2.2197,-2.2197,-2.2197,-2.2197,-2.2197,-2.2197,-2.2197,-2.2197,-2.2197,-2.2197,-2.2197,-2.2197,-2.2197,-2.2197,-2.2197,-2.2197,-2.2197,-2.2197,-2.2197,-2.2197,-2.2197,-2.2197,-2.2197,-2.2197,-2.2197,-2.1993,-2.1656,-2.1127,-2.1031,-2.0851,-2.0314,-2.023,-2.0021,-1.9519,-1.9299,-1.908,-1.8649,-1.8189,-1.7889,-1.7771,-1.7527,-1.7286,-1.7037,-1.7014,-1.6936,-1.6733,-1.6698,-1.6698,-1.671,-1.6467,-1.6316,-1.6254,-1.6002,-1.5876,-1.5876,-1.6019,-1.6079,-1.609,-1.6514,-1.6715,-1.6607,-1.6907,-1.7123,-1.6703,-1.6511,-1.6042,-1.4627,-1.4309,0.0,0.0,-1.2709,-1.2709,-1.2709,0.0,0.0,0.0,0.0,0.0,0.0,0.0,0.0,0.0,0.0,0.0,0.0,0.0,0.0,0.0,0.0,0.0,-1.9338,-2.0141,-2.1103,-2.2161,-2.2197,-2.2197,-2.2197,-2.2197,-2.2197,-2.2197,-2.2197,-2.2197,-2.2197,-2.2197,-2.2197,-2.2197,-2.2197,0.0,0.0,-2.2197,-2.2197,-2.2197,-2.2197,-2.2197,-2.2197,-2.2197,-2.2197,-2.2197,-2.2197,-2.2197,-2.2197,-2.2197,-2.2197,-2.2197,-2.2197,-2.2197,-2.2197,-2.2197,-2.2197,-2.2197,-2.2197,-2.2197,-2.2197,-2.2197,-2.2197,-2.2197,-2.2197,-2.2197,-2.2065,-2.1656,-2.1572,-2.1392,-2.0868,-2.0767,-2.0598,-2.0061,-1.9781,-1.9456,-1.8892,-1.8588,-1.8367,-1.8166,-1.8139,-1.7951,-1.7576,-1.7542,-1.7433,-1.7093,-1.7058,-1.7032,-1.7069,-1.6929,-1.6834,-1.6759,-1.6694,-1.6648,-1.6648,-1.6811,-1.6898,-1.6898,-1.7199,-1.7344,-1.6607,-1.6643,-1.6667,-1.6619,-1.6235,-1.5598,-1.4542,0.0,0.0,-1.2926,-1.2709,-1.2709,-1.2709,0.0,0.0,0.0,0.0,0.0,0.0,0.0,0.0,0.0,0.0,0.0,0.0,0.0,0.0,0.0,0.0,0.0,-2.0398,-2.055,-2.1103,-2.2161,-2.2197,-2.2197,-2.2197,-2.2197,-2.2197,-2.2197,-2.2197,-2.2197,-2.2197,-2.2197,-2.2197,-2.2197,-2.2197,0.0,0.0,-2.2197,-2.2197,-2.2197,-2.2197,-2.2197,-2.2197,-2.2197,-2.2197,-2.2197,-2.2197,-2.2197,-2.2197,-2.2197,-2.2197,-2.2197,-2.2197,-2.2197,-2.2197,-2.2197,-2.2197,-2.2197,-2.2197,-2.2197,-2.2197,-2.2197,-2.2197,-2.2197,-2.2197,-2.2197,-2.2173,-2.2125,-2.2125,-2.1957,-2.1416,-2.1332,-2.1139,-2.0615,-2.0081,-1.9713,-1.9539,-1.8975,-1.8545,-1.8394,-1.8205,-1.8088,-1.8043,-1.8043,-1.802,-1.7974,-1.8232,-1.8285,-1.7974,-1.7789,-1.7597,-1.7327,-1.6968,-1.6774,-1.6774,-1.7046,-1.7168,-1.718,-1.7804,-1.8108,-1.6126,-1.6126,-1.6126,-1.6126,-1.5948,-1.5538,-1.453,0.0,-1.3987,-1.2926,-1.2709,-1.2709,-1.2709,-1.286,0.0,0.0,0.0,0.0,0.0,0.0,0.0,0.0,0.0,0.0,0.0,0.0,0.0,0.0,0.0,0.0,-2.0562,-2.061,-2.1103,-2.2161,-2.2197,-2.2197,-2.2197,-2.2197,-2.2197,-2.2197,-2.2197,-2.2197,-2.2197,-2.2197,-2.2197,-2.2197,-2.2197,0.0,0.0,-2.2197,-2.2197,-2.2197,-2.2197,-2.2197,-2.2197,-2.2197,-2.2197,-2.2197,-2.2197,-2.2197,-2.2246,-2.257,-2.2666,-2.2606,-2.2294,-2.2197,-2.2197,-2.2197,-2.2197,-2.2197,-2.2197,-2.2197,-2.2197,-2.2197,-2.2197,-2.2197,-2.2197,-2.2197,-2.2197,-2.2197,-2.2197,-2.2125,-2.1921,-2.1873,-2.1692,-2.1151,-2.0887,-2.0617,-2.0151,-1.9555,-1.9085,-1.8864,-1.8405,-1.8084,-1.8084,-1.8084,-1.8084,-1.8084,-1.822,-1.8247,-1.8123,-1.8024,-1.8,-1.8,-1.7845,-1.7792,-1.7885,-1.8078,-1.8156,-1.8168,-1.8526,-1.8674,-1.5756,-1.5792,-1.5792,-1.5792,-1.5672,-1.5346,0.0,-1.4168,-1.3795,-1.2902,-1.2709,-1.2709,-1.2709,-1.2709,-1.2878,0.0,0.0,-1.3746,0.0,0.0,0.0,0.0,0.0,0.0,0.0,0.0,0.0,0.0,0.0,0.0,-2.0545,-2.061,-2.1091,-2.2161,-2.2197,-2.2197,-2.2197,-2.2197,-2.2197,-2.2197,-2.2197,-2.2197,-2.2197,-2.2197,-2.2197,-2.2197,-2.2197,0.0,0.0,-2.2197,-2.2197,-2.2197,-2.2197,-2.2197,-2.2197,-2.2197,-2.2294,-2.2402,-2.2246,-2.2402,-2.2702,-2.2939,-2.3119,-2.318,-2.2806,-2.2546,-2.2426,-2.2426,-2.2306,-2.2197,-2.2197,-2.2197,-2.2197,-2.2197,-2.2197,-2.2197,-2.2197,-2.2197,-2.2197,-2.2197,-2.2197,-2.2197,-2.2197,-2.2197,-2.2065,-2.1692,-2.15,-2.1242,-2.0758,-2.0199,-1.9752,-1.9502,-1.8962,-1.8499,-1.8134,-1.8084,-1.8084,-1.8084,-1.8166,-1.8166,-1.8084,-1.8193,-1.8313,-1.8394,-1.8476,-1.8545,-1.8652,-1.8786,-1.8878,-1.8878,-1.8972,-1.8987,-1.5648,-1.5792,-1.5792,-1.5792,-1.5396,-1.4869,0.0,-1.3891,-1.336,-1.2818,-1.2709,-1.2709,-1.2709,-1.2709,-1.2878,-1.3409,-1.3505,0.0,0.0,0.0,0.0,0.0,0.0,0.0,0.0,0.0,0.0,0.0,0.0,0.0,-2.0533,-2.0586,-2.1097,-2.2161,-2.2197,-2.2197,-2.2197,-2.2197,-2.2197,-2.2197,-2.2197,-2.2197,-2.2197,-2.2197,-2.2197,0.0,0.0,0.0,0.0,-2.2197,-2.2197,-2.2197,-2.2197,-2.2197,-2.2197,-2.2197,-2.2522,-2.2927,-2.2378,-2.2915,-2.3697,-2.318,-2.3372,-2.3794,-2.3794,-2.3421,-2.2999,-2.2999,-2.2594,-2.2197,-2.2197,-2.2197,-2.2197,-2.2197,-2.2197,-2.2197,-2.2197,-2.2197,-2.2197,-2.2197,-2.2197,-2.2197,-2.2197,-2.2197,-2.2197,-2.2185,-2.174,-2.1404,-2.1392,-2.0806,-2.0384,-2.0384,-2.0094,-1.9385,-1.8203,-1.8084,-1.8084,-1.8084,-1.8286,-1.8313,-1.8111,-1.8437,-1.8545,-1.8394,-1.8664,-1.8798,-1.8798,-1.8919,-1.8987,-1.8987,-1.8987,-1.8987,-1.4823,-1.5019,-1.5169,-1.4838,-1.4654,-1.4293,-1.3421,-1.336,-1.324,-1.233,-1.2439,-1.2601,-1.2222,-1.2451,-1.277,-1.2926,-1.3264,0.0,0.0,0.0,0.0,0.0,0.0,0.0,0.0,0.0,0.0,0.0,0.0,0.0,-2.0545,-2.0947,-2.1464,-2.2173,-2.2197,-2.2197,-2.2197,-2.2197,-2.2197,-2.2197,-2.2197,-2.2197,-2.2197,-2.2197,-2.2197,0.0,0.0,0.0,0.0,-2.2197,-2.2197,-2.2197,-2.2197,-2.2197,-2.2234,-2.2594,-2.2835,-2.3047,-2.324,-2.3517,-2.383,-2.3977,-2.4145,-2.435,-2.4711,-2.3965,-2.2939,-2.2546,-2.2318,-2.2197,-2.2197,-2.2197,-2.2197,-2.2197,-2.2197,-2.2197,-2.2197,-2.2197,-2.2197,-2.2197,-2.2197,-2.2197,-2.2197,-2.2197,-2.2197,-2.2197,-2.2053,-2.1945,-2.1945,-2.1446,-2.1051,-2.095,-2.0511,-1.9853,-1.8948,-1.8739,-1.8478,-1.8107,-1.8166,-1.8177,-1.8084,-1.8193,-1.8356,-1.8545,-1.8625,-1.8759,-1.8946,-1.8999,-1.8987,-1.8987,-1.8987,-1.8987,0.0,-1.451,-1.467,-1.4373,-1.4144,-1.3819,-1.3155,-1.3107,-1.3011,-1.233,-1.2463,-1.2613,-1.2258,-1.2306,-1.2463,-1.2673,-1.2987,0.0,0.0,0.0,0.0,0.0,0.0,0.0,0.0,0.0,0.0,0.0,0.0,0.0,-2.0545,-2.0935,-2.144,-2.2173,-2.2197,-2.2197,-2.2197,-2.2197,-2.2197,-2.2197,-2.2197,-2.2197,-2.2197,-2.2197,-2.2197,0.0,0.0,0.0,0.0,-2.2197,-2.2197,-2.2197,-2.2197,-2.2197,-2.2234,-2.257,-2.2963,-2.3324,-2.3457,-2.389,-2.4362,-2.4482,-2.465,-2.4843,-2.4975,-2.4194,-2.3156,-2.2402,-2.2197,-2.2197,-2.2197,-2.2197,-2.2197,-2.2197,-2.2197,-2.2197,-2.2197,-2.2197,-2.2197,-2.2197,-2.2197,-2.2197,-2.2197,-2.2197,-2.2197,-2.2197,-2.2197,-2.2197,-2.2197,-2.1909,-2.1662,-2.1601,-2.1212,-2.0677,-2.0011,-1.9529,-1.9051,-1.8504,-1.8426,-1.8306,-1.8123,-1.8166,-1.8329,-1.8587,-1.8652,-1.8786,-1.8987,-1.8987,-1.8987,-1.8987,-1.8987,-1.8987,0.0,-1.4205,-1.4229,-1.4212,-1.3807,-1.3433,-1.3397,-1.3035,0.0,-1.2643,-1.2668,-1.2709,-1.2709,-1.2282,-1.2126,-1.2673,0.0,0.0,0.0,0.0,0.0,0.0,0.0,0.0,0.0,0.0,0.0,0.0,0.0,0.0,-2.0533,-2.0629,-2.1139,-2.2161,-2.2197,-2.2197,-2.2197,-2.2197,-2.2197,-2.2197,-2.2197,-2.2197,-2.2197,-2.2197,-2.2197,0.0,0.0,0.0,0.0,-2.2197,-2.2197,-2.2197,-2.2197,-2.2197,-2.2197,-2.2234,-2.2903,-2.3685,-2.3232,-2.4037,-2.518,-2.4723,-2.4903,-2.5204,-2.464,-2.4169,-2.3589,-2.2534,-2.2221,-2.2197,-2.2197,-2.2197,-2.2197,-2.2197,-2.2197,-2.2197,-2.2197,-2.2197,-2.2197,-2.2197,-2.2197,-2.2197,-2.2197,-2.2197,-2.2197,-2.2197,-2.2197,-2.2197,-2.2197,-2.2197,-2.2197,-2.2197,-2.203,-2.1735,-2.1296,-2.0488,-1.9756,-1.9209,-1.9056,-1.8764,-1.8237,-1.8417,-1.8581,-1.8693,-1.8804,-1.8926,-1.9047,-1.9047,-1.9071,-1.9107,-1.9107,-1.9107,-1.3065,0.0,-1.359,-1.318,-1.2987,-1.2782,0.0,-1.2504,-1.2571,0.0,0.0,0.0,-1.2709,0.0,0.0,0.0,0.0,0.0,0.0,0.0,0.0,0.0,0.0,0.0,0.0,0.0,0.0,0.0,0.0,-1.9889,-2.0545,-2.1007,-2.1512,-2.2173,-2.2197,-2.2197,-2.2197,-2.2197,-2.2197,-2.2197,-2.2197,-2.2197,-2.2197,-2.2197,-2.2197,0.0,0.0,0.0,-2.2197,-2.2197,-2.2197,-2.2197,-2.2197,-2.2197,-2.2246,-2.2654,-2.2987,-2.33,-2.3929,-2.4398,-2.4712,-2.5035,-2.5204,-2.5204,-2.464,-2.4169,-2.3661,-2.3011,-2.251,-2.2197,-2.2197,-2.2197,-2.2197,-2.2197,-2.2197,-2.2197,-2.2197,-2.2197,-2.2197,-2.2197,-2.2197,-2.2197,-2.2197,-2.2197,-2.2197,-2.2197,-2.2197,-2.2197,-2.2197,-2.2197,-2.2197,-2.2197,-2.2166,-2.2075,-2.1974,-2.1168,-2.0458,-1.9982,-1.9901,-1.9755,-1.9495,-1.9512,-1.9615,-1.9747,-1.9638,-1.9573,-1.9615,-1.9615,-1.9817,-2.0209,-2.0209,-2.0209,-1.275,-1.2932,-1.3059,-1.2764,-1.2709,-1.2607,-1.233,0.0,0.0,0.0,0.0,0.0,0.0,0.0,0.0,0.0,0.0,0.0,0.0,0.0,0.0,0.0,0.0,0.0,0.0,0.0,0.0,0.0,0.0,-2.0021,-2.0557,-2.1115,-2.1644,-2.2173,-2.2197,-2.2197,-2.2197,-2.2197,-2.2197,-2.2197,-2.2197,-2.2197,-2.2197,-2.2197,-2.2197,0.0,0.0,0.0,-2.2197,-2.2197,-2.2197,-2.2197,-2.2197,-2.2197,-2.2221,-2.2522,-2.2919,-2.3457,-2.3977,-2.4482,-2.4856,-2.4927,-2.5107,-2.5204,-2.464,-2.4326,-2.4013,-2.3517,-2.3168,-2.2891,-2.2618,-2.2558,-2.2558,-2.2558,-2.2558,-2.2618,-2.2891,-2.2727,-2.2558,-2.2558,-2.2354,-2.2197,-2.2197,-2.2197,-2.2197,-2.2197,-2.2197,-2.2197,-2.2197,-2.2197,-2.2197,-2.2197,-2.2197,-2.2197,-2.2197,-2.1768,-2.1253,-2.0701,-2.0576,-2.0382,-2.003,-2.003,-2.0106,-2.0239,-2.0196,-2.0165,-2.0165,-2.0165,-2.0322,-2.0581,-2.0581,-2.061,-1.2882,-1.2866,-1.2782,-1.2607,-1.2649,-1.2685,-1.2613,0.0,0.0,0.0,0.0,0.0,0.0,0.0,0.0,0.0,0.0,0.0,0.0,0.0,0.0,0.0,0.0,0.0,0.0,0.0,0.0,0.0,0.0,-2.0105,-2.0598,-2.1199,-2.1728,-2.2173,-2.2197,-2.2197,-2.2197,-2.2197,-2.2197,-2.2197,-2.2197,-2.2197,-2.2197,-2.2197,-2.2197,-2.2197,0.0,0.0,-2.2197,-2.2197,-2.2197,-2.2197,-2.2197,-2.2197,-2.2197,-2.2197,-2.2843,-2.371,-2.3866,-2.4506,-2.524,-2.4748,-2.4939,-2.5228,-2.4771,-2.4604,-2.4554,-2.4121,-2.3926,-2.3697,-2.3252,-2.3132,-2.3132,-2.3132,-2.3132,-2.3264,-2.371,-2.3445,-2.3132,-2.3132,-2.277,-2.2438,-2.2438,-2.2438,-2.2402,-2.233,-2.2306,-2.2282,-2.2197,-2.2197,-2.2197,-2.2197,-2.2197,-2.2197,-2.2197,-2.2197,-2.1962,-2.1385,-2.1187,-2.0907,-2.0482,-2.047,-2.0452,-2.0515,-2.0643,-2.073,-2.073,-2.073,-2.075,-2.0834,-2.0834,-2.0839,-1.3307,-1.3403,-1.3155,-1.2246,-1.2354,-1.2571,-1.2126,0.0,0.0,0.0,0.0,0.0,0.0,0.0,0.0,0.0,0.0,0.0,0.0,0.0,0.0,0.0,0.0,0.0,0.0,0.0,0.0,0.0,0.0,-2.0519,-2.061,-2.1536,-2.2101,-2.2197,-2.2197,-2.2197,-2.2197,-2.2197,-2.2197,-2.2197,-2.2197,-2.2197,-2.2197,-2.2197,-2.2197,-2.2197,0.0,-2.2197,-2.2197,-2.2197,-2.2197,-2.2197,-2.2197,-2.2197,-2.2197,-2.2197,-2.2582,-2.3232,-2.4097,-2.4795,-2.53,-2.5216,-2.524,-2.5288,-2.5216,-2.5192,-2.5168,-2.5095,-2.4446,-2.3782,-2.3697,-2.3685,-2.3685,-2.3685,-2.3685,-2.3697,-2.3782,-2.3746,-2.3685,-2.3685,-2.3613,-2.3553,-2.3553,-2.3553,-2.3408,-2.2963,-2.2891,-2.2702,-2.2246,-2.2197,-2.2197,-2.2197,-2.2197,-2.2197,-2.2197,-2.2197,-2.2161,-2.2046,-2.2003,-2.1906,-2.1668,-2.1625,-2.1454,-2.1003,-2.1182,-2.1284,-2.1284,-2.1284,-2.1512,-2.1945,-2.1945,-2.1945,-1.2769,-1.2773,-1.2685,-1.2399,-1.2745,-1.3071,-1.283,0.0,0.0,0.0,0.0,0.0,0.0,0.0,0.0,0.0,0.0,0.0,0.0,0.0,0.0,0.0,0.0,0.0,0.0,0.0,0.0,0.0,0.0,0.0,-2.0165,-2.0911,-2.1476,-2.1765,-2.1765,-2.1909,-2.2197,-2.2197,-2.2197,-2.2197,-2.2197,-2.2197,-2.2197,-2.2197,-2.2197,-2.2197,0.0,-2.2197,-2.2197,-2.2197,-2.2197,-2.2197,-2.2197,-2.2197,-2.2258,-2.2867,-2.3228,-2.3589,-2.459,-2.5107,-2.5264,-2.4975,-2.5071,-2.5252,-2.4975,-2.5083,-2.5312,-2.5312,-2.4975,-2.453,-2.4242,-2.4181,-2.4181,-2.4181,-2.4181,-2.4254,-2.4542,-2.4374,-2.4181,-2.4181,-2.3953,-2.3806,-2.3806,-2.3806,-2.3722,-2.3481,-2.3445,-2.3348,-2.3107,-2.3071,-2.3071,-2.3071,-2.283,-2.2618,-2.2618,-2.2354,-2.2197,-2.2197,-2.2197,-2.2166,-2.2061,-2.2061,-2.1954,-2.1703,-2.1794,-2.1825,-2.1825,-2.1825,-2.1957,-2.2197,-2.2197,-2.2197,-1.2361,-1.2396,-1.2499,-1.28,0.0,-1.3348,-1.3469,0.0,0.0,0.0,0.0,0.0,0.0,0.0,0.0,0.0,0.0,0.0,0.0,0.0,0.0,0.0,0.0,0.0,0.0,0.0,0.0,0.0,0.0,0.0,-1.9808,-2.031,-2.0803,-2.1199,-2.1332,-2.1596,-2.2005,-2.2125,-2.2197,-2.2197,-2.2197,-2.2197,-2.2197,-2.2197,-2.2197,-2.2197,-2.2197,-2.2197,-2.2197,-2.2197,-2.2197,-2.2197,-2.2197,-2.2197,-2.2318,-2.3408,-2.3806,-2.395,-2.4951,-2.5312,-2.524,-2.4831,-2.4975,-2.5228,-2.4831,-2.4987,-2.5312,-2.5312,-2.5312,-2.5216,-2.4772,-2.4699,-2.4699,-2.4699,-2.4699,-2.4819,-2.5216,-2.4987,-2.4699,-2.4699,-2.4398,-2.4167,-2.4167,-2.4167,-2.4119,-2.3965,-2.3974,-2.3938,-2.3818,-2.3806,-2.3806,-2.3806,-2.3445,-2.3144,-2.3023,-2.2606,-2.233,-2.2197,-2.2197,-2.2197,-2.2197,-2.2197,-2.2197,-2.2197,-2.2197,-2.2197,-2.2197,-2.2197,-2.2197,-2.2197,-2.2197,-2.2197,-1.2734,-1.312,-1.3407,-1.3445,-1.3107,0.0,-1.3385,-1.3505,0.0,0.0,0.0,0.0,0.0,0.0,0.0,0.0,0.0,0.0,0.0,0.0,0.0,0.0,0.0,0.0,0.0,0.0,0.0,0.0,0.0,0.0,-1.9808,-2.031,-2.0622,-2.0663,-2.1127,-2.1416,-2.1464,-2.1945,-2.2197,-2.2197,-2.2197,-2.2197,-2.2197,-2.2197,-2.2197,-2.2197,-2.2197,-2.2197,-2.2197,-2.2197,-2.2197,-2.2197,-2.2197,-2.2197,-2.2318,-2.3408,-2.3806,-2.395,-2.4951,-2.5312,-2.53,-2.5264,-2.5276,-2.53,-2.5264,-2.5276,-2.5312,-2.5312,-2.5312,-2.53,-2.5264,-2.5252,-2.5252,-2.5252,-2.5252,-2.5264,-2.53,-2.5276,-2.5252,-2.5252,-2.5228,-2.5204,-2.5204,-2.5204,-2.5023,-2.4508,-2.4436,-2.429,-2.3866,-2.3806,-2.3806,-2.3806,-2.377,-2.3553,-2.3047,-2.2943,-2.2746,-2.2221,-2.2197,-2.2197,-2.2197,-2.2197,-2.2197,-2.2197,-2.2197,-2.2197,-2.2197,-2.2197,-2.2197,-2.2197,-2.2197,-2.2197,-1.1901,-1.208,-1.2427,-1.3684,-1.3587,0.0,0.0,-1.4233,-1.4577,0.0,0.0,0.0,0.0,0.0,0.0,0.0,0.0,0.0,0.0,0.0,0.0,0.0,0.0,0.0,0.0,0.0,0.0,0.0,0.0,0.0,-1.9287,-1.9492,-1.9744,-2.0097,-2.0627,-2.1055,-2.1404,-2.1921,-2.2197,-2.2197,-2.2197,-2.2197,-2.2197,-2.2197,-2.2197,-2.2197,-2.2197,-2.2197,-2.2197,-2.2197,-2.2197,-2.2197,-2.2197,-2.2197,-2.2282,-2.3047,-2.3517,-2.3902,-2.4578,-2.5035,-2.5312,-2.5312,-2.5312,-2.5312,-2.5312,-2.5312,-2.5312,-2.5312,-2.5312,-2.5312,-2.5312,-2.5312,-2.5312,-2.5312,-2.5312,-2.5312,-2.5312,-2.5312,-2.5312,-2.5312,-2.5312,-2.5312,-2.5312,-2.5312,-2.524,-2.5035,-2.5011,-2.4939,-2.4759,-2.4723,-2.4723,-2.4723,-2.4434,-2.4025,-2.3553,-2.3505,-2.3276,-2.2746,-2.2378,-2.2197,-2.2197,-2.2197,-2.2197,-2.2197,-2.2197,-2.2197,-2.2197,-2.2197,-2.2197,-2.2197,-2.2197,-2.2197,-1.1031,-1.1322,-1.1927,-1.3466,0.0,0.0,-1.4393,-1.477,-1.5205,0.0,0.0,0.0,0.0,0.0,0.0,0.0,0.0,0.0,0.0,0.0,0.0,0.0,0.0,0.0,0.0,0.0,0.0,0.0,0.0,0.0,0.0,-1.8987,-1.9155,-1.9543,-2.0073,-2.0581,-2.1158,-2.1674,-2.2029,-2.2197,-2.2197,-2.2197,-2.2197,-2.2197,-2.2197,-2.2197,-2.2197,-2.2197,-2.2197,-2.2197,-2.2197,-2.2197,-2.2197,-2.2197,-2.2258,-2.2787,-2.324,-2.3649,-2.429,-2.4759,-2.5083,-2.5252,-2.5312,-2.5312,-2.5312,-2.5312,-2.5312,-2.5312,-2.5312,-2.5312,-2.5312,-2.5312,-2.5312,-2.5312,-2.5312,-2.5312,-2.5312,-2.5312,-2.5312,-2.5312,-2.5312,-2.5312,-2.5312,-2.5312,-2.5312,-2.5312,-2.5312,-2.5312,-2.5312,-2.5312,-2.5312,-2.5312,-2.4987,-2.4554,-2.4049,-2.4013,-2.3785,-2.33,-2.2927,-2.2534,-2.2209,-2.2197,-2.2197,-2.2197,-2.2197,-2.2197,-2.2197,-2.2197,-2.2197,-2.2197,-2.2197,-2.2282,-1.0337,-1.1125,-1.221,0.0,0.0,0.0,0.0,-1.5013,0.0,0.0,0.0,0.0,0.0,0.0,0.0,0.0,0.0,0.0,0.0,0.0,0.0,0.0,0.0,0.0,0.0,0.0,0.0,0.0,0.0,0.0,0.0,-1.8987,-1.8987,-1.8987,-1.9531,-2.0057,-2.0606,-2.1117,-2.1668,-2.2197,-2.2197,-2.2197,-2.2197,-2.2197,-2.2197,-2.2197,-2.2197,-2.2197,-2.2197,-2.2197,-2.2197,-2.2197,-2.2197,-2.2197,-2.2258,-2.2787,-2.3011,-2.3123,-2.4145,-2.4472,-2.4568,-2.5131,-2.53,-2.5312,-2.5312,-2.5312,-2.5312,-2.5312,-2.5312,-2.5312,-2.5312,-2.5312,-2.5312,-2.5312,-2.5312,-2.5312,-2.5312,-2.5312,-2.5312,-2.5312,-2.5312,-2.5312,-2.5312,-2.5312,-2.5312,-2.5312,-2.5312,-2.5312,-2.5312,-2.5312,-2.5312,-2.5312,-2.5312,-2.5095,-2.4544,-2.4496,-2.4314,-2.3842,-2.3806,-2.3336,-2.2246,-2.2197,-2.2197,-2.2197,-2.2197,-2.2197,-2.2197,-2.2197,-2.2197,-2.2209,-2.2209,-2.2486,-1.052,-1.0836,0.0,0.0,0.0,0.0,0.0,0.0,0.0,0.0,0.0,0.0,0.0,0.0,0.0,0.0,0.0,0.0,0.0,0.0,0.0,0.0,0.0,0.0,0.0,0.0,0.0,0.0,0.0,0.0,0.0,-1.8987,-1.8987,-1.8987,-1.9531,-2.0069,-2.0601,-2.1122,-2.1668,-2.2197,-2.2197,-2.2197,-2.2197,-2.2197,-2.2197,-2.2197,-2.2197,-2.2197,-2.2197,-2.2197,-2.2197,-2.2197,-2.2197,-2.2197,-2.2209,-2.2366,-2.2666,-2.3027,-2.3328,-2.3917,-2.4542,-2.4699,-2.5011,-2.5312,-2.5312,-2.5312,-2.5312,-2.5312,-2.5312,-2.5312,-2.5312,-2.5312,-2.5312,-2.5312,-2.5312,-2.5312,-2.5312,-2.5312,-2.5312,-2.5312,-2.5312,-2.5312,-2.5312,-2.5312,-2.5312,-2.5312,-2.5312,-2.5312,-2.5312,-2.5312,-2.5312,-2.5312,-2.5312,-2.5252,-2.5083,-2.5071,-2.4855,-2.4338,-2.429,-2.4001,-2.336,-2.2975,-2.2751,-2.2751,-2.2378,-2.2378,-2.2751,-2.2751,-2.2975,-2.3336,-2.3336,-2.3421,-1.0195,0.0,0.0,0.0,0.0,0.0,0.0,0.0,0.0,0.0,0.0,0.0,0.0,0.0,0.0,0.0,0.0,0.0,0.0,0.0,0.0,0.0,0.0,0.0,0.0,0.0,0.0,0.0,0.0,0.0,0.0,-1.8987,-1.8987,-1.8987,-1.93,-1.9837,-2.0579,-2.0918,-2.1452,-2.2197,-2.2197,-2.2197,-2.2197,-2.2197,-2.2197,-2.2197,-2.2197,-2.2197,-2.2197,-2.2197,-2.2197,-2.2197,-2.2197,-2.2197,-2.2197,-2.2197,-2.239,-2.2702,-2.2939,-2.3388,-2.3977,-2.4352,-2.4735,-2.5035,-2.5252,-2.5312,-2.5312,-2.5312,-2.5312,-2.5312,-2.5312,-2.5312,-2.5312,-2.5312,-2.5312,-2.5312,-2.5312,-2.5312,-2.5312,-2.5312,-2.5312,-2.5312,-2.5312,-2.5312,-2.5312,-2.5312,-2.5312,-2.5312,-2.5312,-2.5312,-2.5312,-2.5312,-2.5312,-2.5312,-2.5312,-2.5312,-2.5168,-2.4855,-2.4831,-2.4699,-2.4398,-2.371,-2.3324,-2.3324,-2.3011,-2.2999,-2.3324,-2.3324,-2.3493,-2.3806,-2.3806,-2.3914,-0.9668,0.0,0.0,0.0,0.0,0.0,0.0,0.0,0.0,0.0,0.0,0.0,0.0,0.0,0.0,0.0,0.0,0.0,0.0,0.0,0.0,0.0,0.0,0.0,0.0,0.0,0.0,0.0,0.0,0.0,0.0,-1.8987,-1.8987,-1.8987,-1.8987,-1.9494,-2.0528,-2.0589,-2.1121,-2.2125,-2.2173,-2.2197,-2.2197,-2.2197,-2.2197,-2.2197,-2.2197,-2.2197,-2.2197,-2.2197,-2.2197,-2.2197,-2.2197,-2.2197,-2.2197,-2.2197,-2.2197,-2.2258,-2.2751,-2.2975,-2.3135,-2.4073,-2.4446,-2.4568,-2.5083,-2.5264,-2.5312,-2.5312,-2.5312,-2.5312,-2.5312,-2.5312,-2.5312,-2.5312,-2.5312,-2.5312,-2.5312,-2.5312,-2.5312,-2.5312,-2.5312,-2.5312,-2.5312,-2.5312,-2.5312,-2.5312,-2.5312,-2.5312,-2.5312,-2.5312,-2.5312,-2.5312,-2.5312,-2.5312,-2.5312,-2.5312,-2.5312,-2.5312,-2.5312,-2.5312,-2.5312,-2.4362,-2.3866,-2.3866,-2.383,-2.383,-2.3866,-2.3866,-2.389,-2.3938,-2.3938,-2.4157,0.0,-1.0745,0.0,0.0,0.0,0.0,0.0,0.0,0.0,0.0,0.0,0.0,0.0,0.0,0.0,0.0,0.0,0.0,0.0,0.0,0.0,0.0,0.0,0.0,0.0,0.0,0.0,0.0,0.0,0.0,-1.8987,-1.8987,-1.8987,-1.8987,-1.8987,-1.9324,-1.9965,-2.0382,-2.094,0.0,-2.1993,-2.2197,-2.2197,-2.2197,-2.2197,-2.2197,-2.2197,-2.2197,-2.2197,-2.2197,-2.2197,-2.2197,-2.2197,-2.2197,-2.2197,-2.2197,-2.2197,-2.2209,-2.233,-2.263,-2.3047,-2.3244,-2.3857,-2.4508,-2.465,-2.4975,-2.5312,-2.5312,-2.5312,-2.5312,-2.5312,-2.5312,-2.5312,-2.5312,-2.5312,-2.5312,-2.5312,-2.5312,-2.5312,-2.5312,-2.5312,-2.5312,-2.5312,-2.5312,-2.5312,-2.5312,-2.5312,-2.5312,-2.5312,-2.5312,-2.5312,-2.5312,-2.5312,-2.5312,-2.5312,-2.5312,-2.5312,-2.5312,-2.5312,-2.5312,-2.5312,-2.4699,-2.4362,-2.4362,-2.4011,-2.3965,-2.4362,-2.4362,-2.4578,-2.4975,-2.4975,-2.5035,0.0,0.0,0.0,0.0,0.0,0.0,0.0,0.0,0.0,0.0,0.0,0.0,0.0,0.0,0.0,0.0,0.0,0.0,0.0,0.0,0.0,0.0,0.0,0.0,0.0,0.0,0.0,0.0,0.0,-1.8987,-1.8987,-1.8987,-1.8987,-1.8987,-1.8987,-1.9266,-1.9796,-2.0085,-2.0506,-2.1031,-2.1308,-2.1572,-2.1825,-2.2077,-2.2197,-2.2197,-2.2197,-2.2197,-2.2197,-2.2197,-2.2197,-2.2197,-2.2197,-2.2197,-2.2197,-2.2197,-2.2197,-2.2197,-2.2197,-2.2378,-2.2674,-2.2939,-2.352,-2.4206,-2.4446,-2.4856,-2.5312,-2.5312,-2.5312,-2.5312,-2.5312,-2.5312,-2.5312,-2.5312,-2.5312,-2.5312,-2.5312,-2.5312,-2.5312,-2.5312,-2.5312,-2.5312,-2.5312,-2.5312,-2.5312,-2.5312,-2.5312,-2.5312,-2.5312,-2.5312,-2.5312,-2.5312,-2.5312,-2.5312,-2.5312,-2.5312,-2.5312,-2.5312,-2.5312,-2.5312,-2.5312,-2.5035,-2.4891,-2.4891,-2.4638,-2.4638,-2.4891,-2.4891,-2.5035,-2.5312,-2.5312,-2.5312,0.0,0.0,0.0,0.0,0.0,0.0,0.0,0.0,0.0,0.0,0.0,0.0,0.0,0.0,0.0,0.0,0.0,0.0,0.0,0.0,0.0,0.0,0.0,0.0,0.0,0.0,0.0,0.0,0.0,-1.8987,-1.8987,-1.8987,-1.8987,-1.8987,-1.8987,-1.9203,-1.9664,-1.9755,-2.0004,-2.0466,-2.0562,-2.0887,-2.1416,-2.1861,-2.2101,-2.2197,-2.2197,-2.2197,-2.2197,-2.2197,-2.2197,-2.2197,-2.2197,-2.2197,-2.2197,-2.2197,-2.2197,-2.2197,-2.2197,-2.2197,-2.2258,-2.2702,-2.33,-2.3878,-2.4266,-2.4819,-2.5312,-2.5312,-2.5312,-2.5312,-2.5312,-2.5312,-2.5312,-2.5312,-2.5312,-2.5312,-2.5312,-2.5312,-2.5312,-2.5312,-2.5312,-2.5312,-2.5312,-2.5312,-2.5312,-2.5312,-2.5312,-2.5312,-2.5312,-2.5312,-2.5312,-2.5312,-2.5312,-2.5312,-2.5312,-2.5312,-2.5312,-2.5312,-2.5312,-2.5312,-2.5312,-2.5312,-2.5312,-2.5312,-2.5312,-2.5312,-2.5312,-2.5312,-2.5312,-2.5312,-2.5312,-2.5312,0.0,0.0,0.0,0.0,0.0,0.0,0.0,0.0,0.0,0.0,0.0,0.0,0.0,0.0,0.0,0.0,0.0,0.0,0.0,0.0,0.0,0.0,0.0,0.0,0.0,0.0,0.0,0.0,-1.8987,-1.8987,-1.8987,-1.8987,-1.8987,-1.8987,-1.8987,-1.9023,-1.9122,-1.957,-1.9839,-1.9916,-2.0386,-2.0892,-2.1404,-2.1476,-2.1765,-2.2197,-2.2197,-2.2197,-2.2197,-2.2197,-2.2197,-2.2197,-2.2197,-2.2197,-2.2197,-2.2197,-2.2197,-2.2197,-2.2197,-2.2197,-2.2197,-2.227,-2.2999,-2.3818,-2.3878,-2.4542,-2.5312,-2.5312,-2.5312,-2.5312,-2.5312,-2.5312,-2.5312,-2.5312,-2.5312,-2.5312,-2.5312,-2.5312,-2.5312,-2.5312,-2.5312,-2.5312,-2.5312,-2.5312,-2.5312,-2.5312,-2.5312,-2.5312,-2.5312,-2.5312,-2.5312,-2.5312,-2.5312,-2.5312,-2.5312,-2.5312,-2.5312,-2.5312,-2.5312,-2.5312,-2.5312,-2.5312,-2.5312,-2.5312,-2.5312,-2.5312,-2.5312,-2.5312,-2.5312,-2.5312,-2.5312,-2.5312,0.0,0.0,0.0,0.0,0.0,0.0,0.0,0.0,0.0,0.0,0.0,0.0,0.0,0.0,0.0,0.0,0.0,0.0,0.0,0.0,0.0,0.0,0.0,0.0,0.0,0.0,0.0,0.0,-1.8987,-1.8987,-1.8987,-1.8987,-1.8987,-1.8987,-1.8987,-1.8987,-1.8987,-1.9243,-1.9352,-1.9375,-1.9904,-2.0434,-2.0947,-2.126,-2.1692,-2.2197,-2.2197,-2.2197,-2.2197,-2.2197,-2.2197,-2.2197,-2.2197,-2.2197,-2.2197,-2.2197,-2.2197,-2.2197,-2.2197,-2.2197,-2.2197,-2.2197,-2.2939,-2.3806,-2.3806,-2.4494,-2.5312,-2.5312,-2.5312,-2.5312,-2.5312,-2.5312,-2.5312,-2.5312,-2.5312,-2.5312,-2.5312,-2.5312,-2.5312,-2.5312,-2.5312,-2.5312,-2.5312,-2.5312,-2.5312,-2.5312,-2.5312,-2.5312,-2.5312,-2.5312,-2.542,-2.5721,-2.548,-2.5432,-2.5721,-2.548,-2.5312,-2.5312,-2.5312,-2.5312,-2.5312,-2.5312,-2.5312,-2.5312,-2.5312,-2.5312,-2.5312,-2.5312,-2.5312,-2.5312,-2.5312,-2.5312,0.0,0.0,0.0,0.0,0.0,0.0,0.0,0.0,0.0,0.0,0.0,0.0,0.0,0.0,0.0,0.0,0.0,0.0,0.0,0.0,0.0,0.0,0.0,0.0,0.0,0.0,0.0,0.0,-1.8987,-1.8987,-1.8987,-1.8987,-1.8987,-1.8987,-1.8987,-1.8987,-1.8987,-1.8987,-1.8987,-1.8999,-1.9423,-1.9965,-2.0615,-2.1019,-2.156,-2.2197,-2.2197,-2.2197,-2.2197,-2.2197,-2.2197,-2.2197,-2.2197,-2.2197,-2.2197,-2.2197,-2.2197,-2.2197,-2.2197,-2.2197,-2.2209,-2.2354,-2.3047,-2.383,-2.395,-2.459,-2.5312,-2.5312,-2.5312,-2.5312,-2.5312,-2.5312,-2.5312,-2.5312,-2.5312,-2.5312,-2.5312,-2.5312,-2.5312,-2.5312,-2.5312,-2.5312,-2.5312,-2.5312,-2.5312,-2.5312,-2.5432,-2.5504,-2.5504,-2.5636,-2.5877,-2.6274,-2.5961,-2.5889,-2.6274,-2.5949,-2.5721,-2.5721,-2.5721,-2.5721,-2.5721,-2.5588,-2.5504,-2.5504,-2.5384,-2.5312,-2.5312,-2.5312,-2.5312,-2.5312,-2.5312,-2.5312,0.0,0.0,0.0,0.0,0.0,0.0,0.0,0.0,0.0,0.0,0.0,0.0,0.0,0.0,0.0,0.0,0.0,0.0,0.0,0.0,0.0,0.0,0.0,0.0,0.0,0.0,0.0,0.0,-1.8987,-1.8987,-1.8987,-1.8987,-1.8987,-1.8987,-1.8987,-1.8987,-1.8987,-1.8987,-1.8987,-1.8987,-1.9023,-1.9588,-2.0581,-2.0646,-2.1211,-2.2197,-2.2197,-2.2197,-2.2197,-2.2197,-2.2197,-2.2197,-2.2197,-2.2197,-2.2197,-2.2197,-2.2197,-2.2197,-2.2197,-2.2197,-2.227,-2.2775,-2.3348,-2.389,-2.4338,-2.4867,-2.5312,-2.5312,-2.5312,-2.5312,-2.5312,-2.5312,-2.5312,-2.5312,-2.5312,-2.5312,-2.5312,-2.5312,-2.5312,-2.5312,-2.5312,-2.5312,-2.5312,-2.5312,-2.5312,-2.5312,-2.5733,-2.6057,-2.6057,-2.6477,-2.6825,-2.6849,-2.6825,-2.6825,-2.6849,-2.6825,-2.6813,-2.6813,-2.6813,-2.6813,-2.6813,-2.6334,-2.6057,-2.6057,-2.5564,-2.5312,-2.5312,-2.5312,-2.5312,-2.5312,-2.5312,-2.5312,0.0,0.0,0.0,0.0,0.0,0.0,0.0,0.0,0.0,0.0,0.0,0.0,0.0,0.0,0.0,0.0,0.0,0.0,0.0,0.0,0.0,0.0,0.0,0.0,0.0,0.0,0.0,0.0,0.0,-1.8987,-1.8987,-1.8987,-1.8987,-1.8987,-1.8987,-1.8987,-1.8987,-1.8987,-1.8987,-1.8987,-1.8987,-1.9372,-2.0093,-2.0454,-2.1007,-2.1704,-2.2041,-2.2197,-2.2197,-2.2197,-2.2197,-2.2197,-2.2197,-2.2197,-2.2197,-2.2197,-2.2197,-2.2197,-2.2197,-2.2197,-2.2282,-2.2843,-2.3372,-2.3902,-2.4374,-2.4856,-2.5312,-2.5312,-2.5312,-2.5312,-2.5312,-2.5312,-2.5312,-2.5312,-2.5312,-2.5312,-2.5312,-2.5312,-2.5312,-2.5312,-2.5588,-2.5817,-2.5817,-2.6105,-2.6321,-2.6321,-2.6477,-2.6597,-2.6597,-2.6777,-2.7018,-2.7366,-2.7102,-2.703,-2.7378,-2.709,-2.6898,-2.6898,-2.6898,-2.6898,-2.6898,-2.6705,-2.6597,-2.6597,-2.6093,-2.5648,-2.5312,-2.5312,-2.5312,-2.5312,-2.5312,-2.5312,-0.9385,0.0,0.0,0.0,0.0,0.0,0.0,0.0,0.0,0.0,0.0,0.0,0.0,0.0,0.0,0.0,0.0,0.0,0.0,0.0,0.0,0.0,0.0,0.0,0.0,0.0,0.0,0.0,0.0,0.0,-1.8987,-1.8987,-1.8987,-1.8987,-1.8987,-1.8987,-1.8987,-1.8987,-1.8987,-1.8987,-1.8987,-1.9287,-1.9837,-2.0354,-2.0887,-2.1445,-2.1986,-2.2197,-2.2197,-2.2197,-2.2197,-2.2197,-2.2197,-2.2197,-2.2197,-2.2197,-2.2197,-2.2197,-2.2197,-2.2197,-2.2306,-2.3047,-2.3517,-2.3926,-2.4578,-2.5035,-2.5312,-2.5312,-2.5312,-2.5312,-2.5312,-2.5312,-2.5312,-2.5312,-2.5444,-2.5576,-2.5576,-2.5576,-2.5576,-2.5576,-2.6009,-2.6382,-2.6382,-2.6645,-2.6898,-2.6898,-2.7042,-2.7162,-2.7162,-2.7318,-2.7558,-2.7906,-2.763,-2.757,-2.7957,-2.763,-2.7426,-2.7426,-2.7426,-2.7426,-2.7426,-2.7258,-2.7162,-2.7162,-2.6659,-2.6105,-2.5576,-2.5396,-2.5312,-2.5312,-2.5312,-2.5312,0.0,0.0,0.0,0.0,0.0,0.0,0.0,0.0,0.0,0.0,0.0,0.0,0.0,0.0,0.0,0.0,0.0,0.0,0.0,0.0,0.0,0.0,0.0,0.0,0.0,0.0,0.0,0.0,-1.8987,-1.8987,-1.8987,-1.8987,-1.8987,-1.8987,-1.8987,-1.8987,-1.8987,-1.8987,-1.8987,-1.8987,-1.8987,-1.927,-1.9781,-2.0346,-2.088,-2.1412,-2.1978,-2.2197,-2.2197,-2.2197,-2.2197,-2.2197,-2.2197,-2.2197,-2.2197,-2.2197,-2.2197,-2.2197,-2.2197,-2.2197,-2.239,-2.3469,-2.3806,-2.4023,-2.4999,-2.5312,-2.5312,-2.5312,-2.5312,-2.5312,-2.5312,-2.5312,-2.5312,-2.5324,-2.5721,-2.6105,-2.6117,-2.6142,-2.6142,-2.6129,-2.6574,-2.6922,-2.6922,-2.6934,-2.6946,-2.6946,-2.7378,-2.7702,-2.7702,-2.8198,-2.851,-2.851,-2.851,-2.851,-2.851,-2.851,-2.851,-2.851,-2.851,-2.851,-2.851,-2.7978,-2.7702,-2.7702,-2.7186,-2.6657,-2.6142,-2.56,-2.5324,-2.5312,-2.5312,-2.5312,-0.9082,0.0,0.0,0.0,0.0,0.0,0.0,0.0,0.0,0.0,0.0,0.0,0.0,0.0,0.0,0.0,0.0,0.0,0.0,0.0,0.0,0.0,0.0,0.0,0.0,0.0,0.0,0.0,-1.8987,-1.8987,-1.8987,-1.8987,-1.8987,-1.8987,-1.8987,-1.8987,-1.8987,-1.8987,-1.8987,-1.8987,-1.8987,-1.9083,-1.9261,-2.0195,-2.0696,-2.0866,-2.1805,-2.2197,-2.2197,-2.2197,-2.2197,-2.2197,-2.2197,-2.2197,-2.2197,-2.2197,-2.2197,-2.2197,-2.2197,-2.2438,-2.2903,-2.3589,-2.4013,-2.4434,-2.5107,-2.5312,-2.5312,-2.5312,-2.5312,-2.5312,-2.5312,-2.5312,-2.5408,-2.5793,-2.5997,-2.6214,-2.6573,-2.697,-2.7126,-2.6741,-2.7102,-2.7462,-2.7462,-2.7786,-2.8077,-2.8077,-2.8198,-2.8294,-2.8294,-2.8426,-2.851,-2.851,-2.851,-2.851,-2.851,-2.851,-2.851,-2.851,-2.851,-2.851,-2.851,-2.8366,-2.8294,-2.8294,-2.7726,-2.7428,-2.7272,-2.6334,-2.5685,-2.5312,-2.5312,-2.5312,0.0,0.0,0.0,0.0,0.0,0.0,0.0,-1.1746,0.0,0.0,0.0,0.0,0.0,0.0,0.0,0.0,0.0,0.0,0.0,0.0,0.0,0.0,0.0,0.0,0.0,-1.8466,-1.8762,-1.8963,-1.8987,-1.8987,-1.8987,-1.8987,-1.8987,-1.8987,-1.8987,-1.8987,-1.8987,-1.8987,-1.8987,-1.8987,-1.8987,-1.8987,-1.9049,-2.0125,-2.0584,-2.0665,-2.1721,-2.2197,-2.2197,-2.2197,-2.2197,-2.2197,-2.2197,-2.2197,-2.2197,-2.2197,-2.2197,-2.2197,-2.2197,-2.2534,-2.3095,-2.3637,-2.4109,-2.4592,-2.5155,-2.5347,-2.543,-2.543,-2.55,-2.5535,-2.5535,-2.5535,-2.5669,-2.6118,-2.6384,-2.6698,-2.7152,-2.7681,-2.7897,-2.733,-2.7654,-2.8014,-2.8014,-2.8306,-2.851,-2.851,-2.851,-2.851,-2.851,-2.851,-2.851,-2.851,-2.851,-2.851,-2.851,-2.851,-2.851,-2.851,-2.851,-2.851,-2.851,-2.851,-2.851,-2.851,-2.821,-2.7906,-2.7678,-2.6635,-2.5829,-2.5312,-2.5312,-2.5312,-0.9983,-1.0257,0.0,0.0,0.0,0.0,-1.183,-1.1488,-1.1175,0.0,0.0,0.0,0.0,0.0,0.0,0.0,0.0,0.0,0.0,0.0,0.0,0.0,0.0,0.0,-1.7928,-1.8127,-1.8403,-1.8893,-1.8963,-1.8987,-1.8987,-1.8987,-1.8987,-1.8987,-1.8987,-1.8987,-1.8987,-1.8987,-1.8987,-1.8987,-1.8987,-1.8987,-1.9035,-2.0099,-2.0611,-2.0659,-2.174,-2.2197,-2.2197,-2.2197,-2.2197,-2.2197,-2.2197,-2.2197,-2.2197,-2.2197,-2.2197,-2.2197,-2.2258,-2.263,-2.3192,-2.3722,-2.4227,-2.4733,-2.5203,-2.5488,-2.5641,-2.5641,-2.5758,-2.591,-2.591,-2.5947,-2.6096,-2.6444,-2.6944,-2.7404,-2.777,-2.8213,-2.8406,-2.7897,-2.8186,-2.851,-2.851,-2.851,-2.851,-2.851,-2.851,-2.851,-2.851,-2.851,-2.851,-2.851,-2.851,-2.851,-2.851,-2.851,-2.851,-2.851,-2.851,-2.851,-2.851,-2.851,-2.851,-2.851,-2.851,-2.8246,-2.7678,-2.6695,-2.5913,-2.5396,-2.5396,-2.5396,-1.0802,-1.1335,-1.1881,-1.1603,0.0,0.0,0.0,-1.1055,-1.1338,0.0,0.0,0.0,0.0,0.0,0.0,0.0,0.0,0.0,0.0,0.0,0.0,0.0,0.0,0.0,-1.6896,-1.77,-1.8243,-1.835,-1.8758,-1.8987,-1.8987,-1.8987,-1.8987,-1.8987,-1.8987,-1.8987,-1.8987,-1.8987,-1.8987,-1.8987,-1.8987,-1.8987,-1.9035,-2.0097,-2.0601,-2.0665,-2.174,-2.2197,-2.2197,-2.2197,-2.2197,-2.2197,-2.2197,-2.2197,-2.2197,-2.2197,-2.2197,-2.2258,-2.2678,-2.3204,-2.3734,-2.4386,-2.4953,-2.5437,-2.5687,-2.5793,-2.5828,-2.5828,-2.5875,-2.591,-2.591,-2.623,-2.6661,-2.7164,-2.7704,-2.8243,-2.8704,-2.877,-2.8688,-2.8591,-2.8545,-2.851,-2.851,-2.851,-2.851,-2.851,-2.851,-2.851,-2.851,-2.851,-2.851,-2.851,-2.851,-2.851,-2.851,-2.851,-2.851,-2.851,-2.851,-2.851,-2.851,-2.851,-2.851,-2.851,-2.851,-2.8246,-2.7678,-2.7042,-2.649,-2.5937,-2.5937,-2.5937,-1.1084,-1.1369,-1.1683,-1.1589,0.0,0.0,0.0,0.0,0.0,0.0,0.0,0.0,0.0,0.0,0.0,0.0,0.0,0.0,0.0,0.0,0.0,0.0,0.0,0.0,-1.6571,-1.7087,-1.7603,-1.8157,-1.8446,-1.871,-1.8975,-1.8987,-1.8987,-1.8987,-1.8987,-1.8987,-1.8987,-1.8987,-1.8987,-1.8987,-1.8987,-1.8987,-1.9035,-2.0117,-2.0598,-2.0663,-2.1716,-2.2197,-2.2197,-2.2197,-2.2197,-2.2197,-2.2197,-2.2197,-2.2197,-2.2197,-2.2354,-2.263,-2.2927,-2.3562,-2.4362,-2.4696,-2.5249,-2.5758,-2.5875,-2.598,-2.6062,-2.6188,-2.6188,-2.6188,-2.6188,-2.6586,-2.7097,-2.7545,-2.8051,-2.8582,-2.9008,-2.9,-2.8961,-2.8961,-2.8855,-2.8749,-2.855,-2.851,-2.851,-2.851,-2.851,-2.851,-2.851,-2.851,-2.851,-2.851,-2.851,-2.851,-2.851,-2.851,-2.851,-2.851,-2.851,-2.851,-2.851,-2.851,-2.851,-2.851,-2.851,-2.8378,-2.8114,-2.7849,-2.7258,-2.6514,-2.6514,-2.6514,0.0,0.0,0.0,0.0,0.0,-1.1103,0.0,0.0,0.0,0.0,0.0,0.0,0.0,0.0,0.0,0.0,0.0,0.0,0.0,0.0,0.0,0.0,0.0,0.0,0.0,-1.6451,-1.6883,-1.7977,-1.8049,-1.8277,-1.8806,-1.8939,-1.8987,-1.8987,-1.8987,-1.8987,-1.8987,-1.8987,-1.8987,-1.8987,-1.8987,-1.9047,-1.9179,-2.0145,-2.0658,-2.081,-2.1771,-2.2197,-2.2197,-2.2197,-2.2197,-2.2197,-2.2197,-2.2197,-2.2197,-2.2197,-2.2522,-2.2991,-2.3132,-2.3848,-2.4759,-2.4971,-2.5473,-2.6015,-2.6015,-2.6119,-2.6305,-2.6465,-2.6562,-2.665,-2.665,-2.714,-2.7684,-2.7952,-2.8425,-2.8897,-2.9201,-2.9209,-2.917,-2.917,-2.9131,-2.9013,-2.8669,-2.863,-2.863,-2.863,-2.863,-2.859,-2.8538,-2.8538,-2.855,-2.851,-2.851,-2.851,-2.851,-2.851,-2.851,-2.851,-2.851,-2.851,-2.851,-2.851,-2.851,-2.851,-2.851,-2.851,-2.8538,-2.851,-2.7978,-2.7042,-2.7042,-2.7042,0.0,0.0,0.0,0.0,-1.1816,0.0,0.0,0.0,0.0,0.0,0.0,0.0,0.0,0.0,0.0,0.0,0.0,0.0,0.0,0.0,0.0,0.0,0.0,0.0,0.0,-1.5876,-1.6343,-1.7399,-1.7496,-1.7712,-1.8265,-1.8734,-1.8987,-1.8987,-1.8987,-1.8987,-1.8987,-1.8987,-1.8987,-1.8987,-1.8987,-1.9266,-1.972,-2.0342,-2.0846,-2.1329,-2.1934,-2.2197,-2.2197,-2.2197,-2.2197,-2.2197,-2.2197,-2.2197,-2.2197,-2.2197,-2.2522,-2.3083,-2.3553,-2.4083,-2.4671,-2.5514,-2.6057,-2.643,-2.643,-2.6465,-2.6465,-2.6499,-2.6851,-2.7228,-2.7228,-2.7959,-2.8725,-2.8787,-2.9239,-2.9665,-2.9702,-2.9521,-2.938,-2.938,-2.9236,-2.9091,-2.9052,-2.9013,-2.9013,-2.9013,-2.9013,-2.8973,-2.8803,-2.8764,-2.8685,-2.851,-2.851,-2.851,-2.851,-2.851,-2.851,-2.851,-2.851,-2.851,-2.851,-2.851,-2.851,-2.851,-2.851,-2.8578,-2.8764,-2.8578,-2.821,-2.7594,-2.7594,-2.7594,0.0,0.0,0.0,0.0,0.0,0.0,-1.0889,0.0,-1.0566,0.0,0.0,0.0,0.0,0.0,0.0,0.0,0.0,0.0,0.0,0.0,0.0,0.0,0.0,0.0,0.0,0.0,0.0,0.0,-1.6655,-1.6979,-1.8145,-1.841,-1.8674,-1.8987,-1.8987,-1.8987,-1.8987,-1.8987,-1.8987,-1.8987,-1.9326,-1.9573,-1.9841,-2.0686,-2.1176,-2.1422,-2.1962,-2.2197,-2.2197,-2.2197,-2.2197,-2.2228,-2.2285,-2.2266,-2.2234,-2.2534,-2.3043,-2.3627,-2.4059,-2.4759,-2.5568,-2.6067,-2.6349,-2.6499,-2.6499,-2.6499,-2.6499,-2.6499,-2.6889,-2.7281,-2.7281,-2.8097,-2.8888,-2.8888,-2.9365,-2.9792,-2.9792,-2.9702,-2.965,-2.965,-2.9573,-2.9507,-2.9507,-2.93,-2.9091,-2.9091,-2.9091,-2.9052,-2.8961,-2.8961,-2.8934,-2.8855,-2.8855,-2.8855,-2.8855,-2.8855,-2.8855,-2.8855,-2.8855,-2.8816,-2.8685,-2.8657,-2.8618,-2.851,-2.851,-2.855,-2.8618,-2.855,-2.8402,-2.8174,-2.8174,-2.8174,-1.2436,0.0,0.0,0.0,0.0,0.0,0.0,0.0,0.0,0.0,0.0,0.0,0.0,0.0,0.0,0.0,0.0,0.0,0.0,0.0,0.0,0.0,0.0,0.0,0.0,0.0,0.0,0.0,0.0,-1.6283,-1.7905,-1.8121,-1.8446,-1.8975,-1.8987,-1.8987,-1.8987,-1.8987,-1.8987,-1.8999,-1.9555,-1.9885,-2.0036,-2.099,-2.1499,-2.1642,-2.2032,-2.2197,-2.2197,-2.2197,-2.2216,-2.2254,-2.2353,-2.245,-2.2606,-2.2994,-2.3531,-2.4131,-2.4519,-2.534,-2.6201,-2.6361,-2.6465,-2.6499,-2.6499,-2.6499,-2.6524,-2.6675,-2.7115,-2.7544,-2.7695,-2.8448,-2.9164,-2.9164,-2.949,-2.9792,-2.9792,-2.9792,-2.9792,-2.9792,-2.9792,-2.9792,-2.9792,-2.9507,-2.93,-2.93,-2.93,-2.926,-2.9197,-2.9157,-2.917,-2.9091,-2.9052,-2.9,-2.9,-2.8973,-2.8946,-2.8946,-2.8946,-2.8855,-2.8724,-2.8724,-2.8657,-2.851,-2.851,-2.855,-2.8578,-2.855,-2.855,-2.8578,-2.855,-2.851,0.0,0.0,0.0,-1.1819,0.0,0.0,0.0,0.0,-1.0868,0.0,0.0,0.0,0.0,0.0,0.0,0.0,0.0,0.0,0.0,0.0,0.0,0.0,0.0,0.0,0.0,0.0,0.0,0.0,-1.5325,0.0,-1.7327,-1.7929,-1.8446,-1.8975,-1.8987,-1.8987,-1.8987,-1.8987,-1.8987,-1.8999,-1.9555,-2.0069,-2.0581,-2.1163,-2.1692,-2.2185,-2.2185,-2.2197,-2.2197,-2.2197,-2.2273,-2.2384,-2.239,-2.2836,-2.3464,-2.3477,-2.3833,-2.4374,-2.4915,-2.5571,-2.6213,-2.6213,-2.6339,-2.6499,-2.6499,-2.6499,-2.6612,-2.714,-2.7657,-2.8197,-2.87,-2.9315,-2.9767,-2.9767,-2.9779,-2.9792,-2.9792,-2.9792,-2.9792,-2.9792,-2.9792,-2.9792,-2.9792,-2.9792,-2.9792,-2.9792,-2.9792,-2.9702,-2.9419,-2.938,-2.9302,-2.9131,-2.8922,-2.8791,-2.8791,-2.8618,-2.851,-2.851,-2.851,-2.851,-2.851,-2.851,-2.851,-2.851,-2.851,-2.8618,-2.8803,-2.8578,-2.8618,-2.8803,-2.8578,-2.851,0.0,0.0,-1.3893,-1.2749,0.0,0.0,0.0,0.0,0.0,0.0,0.0,0.0,0.0,0.0,0.0,0.0,0.0,0.0,0.0,0.0,0.0,0.0,0.0,0.0,0.0,0.0,0.0,0.0,-1.5109,0.0,-1.6799,-1.7388,-1.7929,-1.8458,-1.8806,-1.8987,-1.8987,-1.8987,-1.9194,-1.9543,-2.0069,-2.061,-2.1151,-2.168,-2.2029,-2.2197,-2.2197,-2.2197,-2.2228,-2.2285,-2.2304,-2.2304,-2.2622,-2.3059,-2.3526,-2.3894,-2.446,-2.5124,-2.5784,-2.6108,-2.6201,-2.6374,-2.643,-2.6499,-2.6499,-2.6751,-2.7077,-2.7231,-2.7946,-2.865,-2.8838,-2.9365,-2.9792,-2.9792,-2.9792,-2.9792,-2.9792,-2.9792,-2.9792,-2.9792,-2.9792,-2.9792,-2.9792,-2.9792,-2.9792,-2.9792,-2.9792,-2.9753,-2.9702,-2.965,-2.9573,-2.9302,-2.9223,-2.9145,-2.9013,-2.8934,-2.8895,-2.8895,-2.8895,-2.8855,-2.8685,-2.8685,-2.8657,-2.851,-2.851,-2.855,-2.8618,-2.8657,-2.8724,-2.8791,-2.8855,-2.8736,-1.3704,-1.4104,0.0,-1.334,-1.3105,0.0,-1.1619,0.0,0.0,0.0,0.0,0.0,0.0,0.0,0.0,0.0,0.0,0.0,0.0,0.0,0.0,0.0,0.0,0.0,0.0,0.0,-1.4698,-1.5241,-1.495,0.0,0.0,0.0,-1.7664,-1.8181,-1.871,-1.8987,-1.8987,-1.9179,-1.9471,-1.982,-2.0538,-2.1079,-2.1416,-2.1957,-2.2197,-2.2197,-2.2197,-2.2197,-2.2228,-2.2285,-2.2316,-2.234,-2.2874,-2.3417,-2.3949,-2.434,-2.5054,-2.5861,-2.6339,-2.643,-2.6339,-2.6465,-2.6499,-2.6524,-2.6725,-2.704,-2.7369,-2.7758,-2.8386,-2.8938,-2.9176,-2.9515,-2.9792,-2.9792,-2.9792,-2.9792,-2.9792,-2.9792,-2.9792,-2.9792,-2.9792,-2.9792,-2.9792,-2.9792,-2.9792,-2.9792,-2.9792,-2.9792,-2.9792,-2.9792,-2.974,-2.956,-2.947,-2.9302,-2.9131,-2.9091,-2.9091,-2.9091,-2.904,-2.8922,-2.8803,-2.8724,-2.8618,-2.851,-2.851,-2.855,-2.8618,-2.8657,-2.8724,-2.8791,-2.8855,-2.8736]},{"header":{"parameterUnit":"m.s-1","parameterCategory":1,"la1":30.6,"la2":29.2853,"lo1":-89.7004,"lo2":-87.6739,"dy":0.0162,"dx":0.0183,"nx":112,"ny":82,"refTime":"2026-03-04T00:00:00:Z","depth":0,"parameterNumber":3,"parameterNumberName":"V-component_of_WINDS"},"data":[0.0,0.0,0.0,0.0,0.0,0.0,0.0,0.0,0.0,0.0,0.0,0.0,0.0,0.0,0.0,0.0,0.0,0.0,0.0,0.0,0.0,0.0,0.0,0.0,0.0,0.0,0.0,0.0,0.0,0.0,0.0,0.0,0.0,0.0,0.0,0.0,0.0,0.0,0.0,0.0,0.0,0.0,0.0,0.0,0.0,0.0,0.0,0.0,0.0,0.0,0.0,0.0,0.0,0.0,0.0,0.0,0.0,0.0,0.0,0.0,0.0,0.0,0.0,0.0,0.0,0.0,0.0,0.0,0.0,0.0,0.0,0.0,0.0,0.0,0.0,0.0,0.0,0.0,0.0,0.0,0.0,0.0,0.0,0.0,0.0,0.0,0.0,0.0,0.0,0.0,0.0,1.3078,1.4193,1.4838,1.4897,1.543,1.4964,1.3119,0.0,0.0,0.0,0.0,0.0,0.0,0.0,0.0,0.0,0.0,0.0,0.0,0.0,0.0,0.0,0.0,0.0,0.0,0.0,0.0,0.0,0.0,0.0,0.0,0.0,0.0,0.0,0.0,0.0,0.0,0.0,0.0,0.0,0.0,0.0,0.0,0.0,0.0,0.0,0.0,0.0,0.0,0.0,0.0,0.0,0.0,0.0,0.0,0.0,0.0,0.0,0.0,0.0,0.0,0.0,0.0,0.0,0.0,0.0,0.0,0.0,0.0,0.0,0.0,0.0,0.0,0.0,0.0,0.0,0.0,0.0,0.0,0.0,0.0,0.0,0.0,0.0,0.0,0.0,0.0,0.0,0.0,0.0,0.0,0.0,0.0,0.0,0.0,0.0,0.0,0.0,0.0,0.0,0.0,0.0,0.0,0.0,0.0,0.0,0.0,0.0,0.0,0.0,0.0,1.1835,1.4271,1.4697,1.4838,1.4897,1.5055,1.4528,1.3091,0.0,0.0,0.0,0.0,0.0,0.0,0.0,0.0,0.0,0.0,0.0,0.0,0.0,0.0,0.0,0.0,0.0,0.0,0.0,0.0,0.0,0.0,0.0,0.0,0.0,0.0,0.0,0.0,0.0,0.0,0.0,0.0,0.0,0.0,0.0,0.0,0.0,0.0,0.0,0.0,0.0,0.0,0.0,0.0,0.0,0.0,0.0,0.0,0.0,0.0,0.0,0.0,0.0,0.0,0.0,0.0,0.0,0.0,0.0,0.0,0.0,0.0,0.0,0.0,0.0,0.0,0.0,0.0,0.0,0.0,0.0,0.0,0.0,0.0,0.0,0.0,0.0,0.0,0.0,0.0,0.0,0.0,0.0,0.0,0.0,0.0,0.0,0.0,0.0,0.0,0.0,0.0,0.0,0.0,0.0,0.0,0.0,0.0,0.0,0.0,0.0,0.0,0.0,1.35,1.3739,1.4792,1.4904,1.4965,1.5099,1.5147,1.4572,1.32,1.3002,0.0,0.0,0.0,0.0,0.0,0.0,0.0,0.0,0.0,0.0,0.0,0.0,0.0,0.0,0.0,0.0,0.0,0.0,0.0,0.0,0.0,0.0,0.0,0.0,0.0,0.0,0.0,0.0,0.0,0.0,0.0,0.0,0.0,0.0,0.0,0.0,0.0,0.0,0.0,0.0,0.0,0.0,0.0,0.0,0.0,0.0,0.0,0.0,0.0,0.0,0.0,0.0,0.0,0.0,0.0,0.0,0.0,0.0,0.0,0.0,0.0,0.0,0.0,0.0,0.0,0.0,0.0,0.0,0.0,0.0,0.0,0.0,0.0,0.0,0.0,0.0,0.0,0.0,0.0,0.0,0.0,0.0,0.0,0.0,0.0,0.0,0.0,0.0,0.0,0.0,0.0,0.0,0.0,0.0,0.0,0.0,0.0,0.0,0.0,0.0,0.0,0.0,1.4964,1.5242,1.5107,1.5148,1.5208,1.5343,1.5227,1.4587,1.3253,1.3025,0.0,0.0,0.0,0.0,0.0,0.0,0.0,0.0,0.0,0.0,0.0,0.0,0.0,0.0,0.0,0.0,0.0,0.0,0.0,0.0,0.0,0.0,0.0,0.0,0.0,0.0,0.0,0.0,0.0,0.0,0.0,0.0,0.0,0.0,0.0,0.0,0.0,0.0,0.0,0.0,0.0,0.0,0.0,0.0,0.0,0.0,0.0,0.0,0.0,0.0,0.0,0.0,0.0,0.0,0.0,0.0,0.0,0.0,0.0,0.0,0.0,0.0,0.0,0.0,0.0,0.0,0.0,0.0,0.0,0.0,0.0,0.0,0.0,0.0,0.0,0.0,0.0,0.0,0.0,0.0,0.0,0.0,0.0,0.0,0.0,0.0,0.0,0.0,0.0,0.0,0.0,0.0,0.0,0.0,0.0,0.0,0.0,0.0,0.0,0.0,0.0,0.0,1.4558,1.5313,1.5374,1.5536,1.561,1.5492,1.5031,1.427,1.3184,1.2522,0.0,0.0,0.0,0.0,0.0,0.0,0.0,0.0,0.0,0.0,0.0,0.0,0.0,0.0,0.0,0.0,0.0,0.0,0.0,0.0,0.0,0.0,0.0,0.0,0.0,0.0,0.0,0.0,0.0,0.0,0.0,0.0,0.0,0.0,0.0,0.0,0.0,0.0,0.0,0.0,0.0,0.0,0.0,0.0,0.0,0.0,0.0,0.0,0.0,0.0,0.0,0.0,0.0,0.0,0.0,0.0,0.0,0.0,0.0,0.0,0.0,0.0,0.0,0.0,0.0,0.0,0.0,0.0,0.0,0.0,0.0,0.0,0.0,0.0,0.0,0.0,0.0,0.0,0.0,0.0,0.0,0.0,0.0,0.0,0.0,0.0,0.0,0.0,0.0,0.0,0.0,0.0,0.0,0.0,0.0,0.0,0.0,0.0,0.0,0.0,0.0,0.0,1.4296,1.4848,0.0,1.5298,1.5298,1.5374,1.5242,1.4541,1.3132,0.0,0.0,0.0,0.0,0.0,0.0,0.0,0.0,0.0,0.0,0.0,0.0,0.0,0.0,0.0,0.0,0.0,0.0,0.0,0.0,0.0,0.0,0.0,0.0,0.0,0.0,0.0,0.0,0.0,0.0,0.0,0.0,0.0,0.0,0.0,0.0,0.0,0.0,0.0,0.0,0.0,0.0,0.0,0.0,0.0,0.0,0.0,0.0,0.0,0.0,0.0,0.0,0.0,0.0,0.0,0.0,0.0,0.0,0.0,0.0,0.0,0.0,0.0,0.0,0.0,0.0,0.0,0.0,0.0,0.0,0.0,0.0,0.0,0.0,0.0,0.0,0.0,0.0,0.0,0.0,0.0,0.0,0.0,0.0,0.0,0.0,0.0,0.0,0.0,0.0,0.0,0.0,0.0,0.0,0.0,0.0,0.0,0.0,0.0,0.0,0.0,0.0,1.362,1.4391,1.4949,0.0,1.5492,1.5492,1.5697,1.5559,1.4836,1.3372,0.0,0.0,0.0,0.0,0.0,0.0,0.0,0.0,0.0,0.0,0.0,0.0,0.0,0.0,0.0,0.0,0.0,0.0,0.0,0.0,0.0,0.0,0.0,0.0,0.0,0.0,0.0,0.0,0.0,0.0,0.0,0.0,0.0,0.0,0.0,0.0,0.0,0.0,0.0,0.0,0.0,0.0,0.0,0.0,0.0,0.0,0.0,0.0,0.0,0.0,0.0,0.0,0.0,0.0,0.0,0.0,0.0,0.0,0.0,0.0,0.0,0.0,0.0,0.0,0.0,0.0,0.0,0.0,0.0,0.0,0.0,0.0,0.0,0.0,0.0,0.0,0.0,0.0,0.0,0.0,0.0,0.0,0.0,0.0,0.0,0.0,0.0,0.0,0.0,0.0,0.0,0.0,0.0,0.0,0.0,0.0,0.0,0.0,0.0,0.0,0.0,0.0,1.3485,1.4822,1.5783,1.626,1.6301,1.6382,1.6583,1.5991,1.5108,0.0,0.0,0.0,0.0,0.0,0.0,0.0,0.0,0.0,0.0,0.0,0.0,0.0,0.0,0.0,0.0,0.0,0.0,0.0,0.0,0.0,0.0,0.0,0.0,0.0,0.0,0.0,0.0,0.0,0.0,0.0,0.0,0.0,0.0,0.0,0.0,0.0,0.0,0.0,0.0,0.0,0.0,0.0,0.0,0.0,0.0,0.0,0.0,0.0,0.0,0.0,0.0,0.0,0.0,0.0,0.0,0.0,0.0,0.0,0.0,0.0,0.0,0.0,0.0,0.0,0.0,0.0,0.0,0.0,0.0,0.0,0.0,0.0,0.0,0.0,0.0,0.0,0.0,0.0,0.0,0.0,0.0,0.0,0.0,0.0,0.0,0.0,0.0,0.0,0.0,0.0,0.0,0.0,0.0,0.0,0.0,0.0,0.0,0.0,0.0,0.0,0.0,0.0,1.3654,1.5118,1.6079,1.6217,1.615,1.6108,1.6177,1.5697,1.4701,1.3094,0.0,0.0,0.0,0.0,0.0,0.0,0.0,0.0,0.0,0.0,0.0,0.0,0.0,0.0,0.0,0.0,0.0,0.0,0.0,0.0,0.0,0.0,0.0,0.0,0.0,0.0,0.0,0.0,0.0,0.0,0.0,0.0,0.0,0.0,0.0,0.0,0.0,0.0,0.0,0.0,0.0,0.0,0.0,0.0,0.0,0.0,0.0,0.0,0.0,0.0,0.0,0.0,0.0,0.0,0.0,0.0,0.0,0.0,0.0,0.0,0.0,0.0,0.0,0.0,0.0,0.0,0.0,0.0,0.0,0.0,0.0,0.0,0.0,0.0,0.0,0.0,0.0,0.0,0.0,0.0,0.0,0.0,0.0,0.0,0.0,0.0,0.0,0.0,0.0,0.0,0.0,0.0,0.0,0.0,0.0,0.0,0.0,0.0,0.0,0.0,0.0,0.0,1.3884,1.5431,1.6432,1.6512,1.6448,1.638,1.6326,1.5811,1.4866,1.3377,0.0,0.0,0.0,0.0,0.0,0.0,0.0,0.0,0.0,0.0,0.0,0.0,0.0,0.0,0.0,0.0,0.0,0.0,0.0,0.0,0.0,0.0,0.0,0.0,0.0,0.0,0.0,0.0,0.0,0.0,0.0,0.0,0.0,0.0,0.0,0.0,0.0,0.0,0.0,0.0,0.0,0.0,0.0,0.0,0.0,0.0,0.0,0.0,0.0,0.0,0.0,0.0,0.0,0.0,0.0,0.0,0.0,0.0,0.0,0.0,0.0,0.0,0.0,0.0,0.0,0.0,0.0,0.0,0.0,0.0,0.0,0.0,0.0,0.0,0.0,0.0,0.0,0.0,0.0,0.0,0.0,0.0,0.0,0.0,0.0,0.0,0.0,0.0,0.0,0.0,0.0,0.0,0.0,0.0,0.0,0.0,0.0,0.0,0.0,0.0,0.0,0.0,1.412,1.5747,1.6841,1.7005,1.7005,1.6955,1.6828,1.62,1.5368,1.4304,0.0,0.0,0.0,0.0,0.0,0.0,0.0,0.0,0.0,0.0,0.0,0.0,0.0,0.0,0.0,0.0,0.0,0.0,0.0,0.0,0.0,0.0,0.0,0.0,0.0,0.0,0.0,0.0,0.0,0.0,0.0,0.0,0.0,0.0,0.0,0.0,0.0,0.0,0.0,0.0,0.0,0.0,0.0,0.0,0.0,0.0,0.0,0.0,0.0,0.0,0.0,0.0,0.0,0.0,0.0,0.0,0.0,0.0,0.0,0.0,1.2834,0.0,0.0,0.0,0.0,0.0,0.0,0.0,0.0,0.0,0.0,0.0,0.0,0.0,0.0,0.0,0.0,0.0,0.0,0.0,0.0,0.0,0.0,0.0,0.0,0.0,0.0,0.0,0.0,0.0,0.0,0.0,0.0,0.0,0.0,0.0,0.0,0.0,0.0,0.0,0.0,0.0,1.4293,1.6048,1.7191,1.7228,1.7084,1.6993,1.6968,1.6346,1.5347,1.3924,1.2336,0.0,0.0,0.0,0.0,0.0,0.0,0.0,0.0,0.0,0.0,0.0,0.0,0.0,0.0,0.0,0.0,0.0,0.0,0.0,0.0,0.0,0.0,0.0,0.0,0.0,0.0,0.0,0.0,0.0,0.0,0.0,0.0,0.0,0.0,0.0,0.0,0.0,0.0,0.0,0.0,0.0,0.0,0.0,0.0,0.0,0.0,0.0,0.0,0.0,0.0,0.0,0.0,0.0,0.0,0.0,0.0,0.0,0.0,0.0,0.0,1.382,0.0,0.0,0.0,0.0,0.0,0.0,0.0,0.0,0.0,0.0,0.0,0.0,0.0,0.0,0.0,0.0,0.0,0.0,0.0,0.0,0.0,0.0,0.0,0.0,0.0,0.0,0.0,0.0,0.0,0.0,0.0,0.0,0.0,0.0,0.0,0.0,0.0,0.0,0.0,0.0,1.442,1.6219,1.7407,1.7407,1.7301,1.7212,1.715,1.649,1.5575,1.4347,1.2932,0.0,0.0,0.0,0.0,0.0,0.0,0.0,0.0,0.0,0.0,0.0,0.0,0.0,0.0,0.0,0.0,0.0,0.0,0.0,0.0,0.0,0.0,0.0,0.0,0.0,0.0,0.0,0.0,0.0,0.0,0.0,0.0,0.0,0.0,0.0,0.0,0.0,0.0,0.0,0.0,0.0,0.0,0.0,0.0,0.0,0.0,0.0,0.0,0.0,0.0,0.0,0.0,0.0,1.7804,1.8221,1.7476,1.8317,1.8704,1.8563,1.6354,1.5839,1.6411,1.4428,0.0,0.0,0.0,0.0,0.0,0.0,0.0,0.0,0.0,0.0,0.0,0.0,0.0,0.0,0.0,0.0,0.0,0.0,0.0,0.0,0.0,0.0,0.0,0.0,1.5457,1.5404,0.0,0.0,0.0,0.0,0.0,0.0,0.0,0.0,0.0,0.0,0.0,0.0,1.4733,1.6406,1.7503,1.7503,1.7503,1.7467,1.7342,1.6779,1.6059,1.5222,1.3814,1.2665,0.0,0.0,0.0,0.0,0.0,0.0,0.0,0.0,0.0,0.0,0.0,0.0,0.0,0.0,0.0,0.0,0.0,0.0,0.0,0.0,0.0,0.0,0.0,0.0,0.0,0.0,0.0,0.0,0.0,0.0,0.0,0.0,1.1717,1.2308,0.0,0.0,0.0,0.0,0.0,0.0,0.0,0.0,0.0,0.0,0.0,0.0,0.0,1.6033,1.6778,1.7683,1.8186,1.8282,1.9133,1.9426,1.9263,1.9389,1.9452,1.9435,1.9085,0.0,1.8611,1.6556,0.0,0.0,0.0,0.0,0.0,0.0,0.0,0.0,0.0,0.0,0.0,0.0,0.0,0.0,0.0,0.0,0.0,0.0,0.0,0.0,0.0,0.0,1.8423,1.898,1.8191,1.7261,0.0,1.491,1.2798,1.2091,1.162,0.0,0.0,0.0,0.0,0.0,0.0,0.0,1.563,1.6804,1.7503,1.7503,1.7503,1.7486,1.7479,1.7392,1.7016,1.626,1.4776,1.3585,1.2853,1.1237,0.0,0.0,0.0,0.0,0.0,0.0,0.0,0.0,0.0,0.0,0.0,0.0,0.0,0.0,0.0,0.0,0.0,0.0,0.0,0.0,0.0,0.0,0.0,0.0,0.0,0.0,0.0,0.0,0.0,1.2069,1.302,1.2975,1.3189,1.3041,0.0,0.0,0.0,0.0,0.0,0.0,0.0,0.0,0.0,1.7367,1.7465,1.7901,1.876,1.9517,1.994,1.9997,2.0668,2.0975,2.0947,2.0947,2.0947,2.0947,2.0947,2.0874,2.0626,1.8647,1.7345,1.6501,0.0,0.0,0.0,0.0,1.558,1.5858,1.6688,1.7,0.0,1.6839,0.0,0.0,0.0,0.0,0.0,0.0,0.0,0.0,0.0,0.0,1.918,1.9542,1.9101,1.8625,1.8638,1.7273,1.5493,0.0,1.3344,1.2798,1.1256,0.0,0.0,0.0,0.0,1.5358,1.6035,1.6954,1.7552,1.7505,1.7505,1.751,1.7503,1.7503,1.72,1.6453,1.5758,1.4876,1.3727,1.2531,1.1539,0.0,0.0,0.0,0.0,0.0,0.0,0.0,0.0,0.0,0.0,0.0,0.0,0.0,0.0,0.0,0.0,0.0,0.0,0.0,0.0,0.0,0.0,0.0,0.0,0.0,0.0,0.0,0.0,1.3425,1.4294,1.3738,1.4344,1.4287,0.0,0.0,0.0,0.0,0.0,0.0,1.6614,1.6811,1.7601,1.9087,1.9162,1.9551,2.0357,2.1008,2.1276,2.1178,2.1781,2.2027,2.2013,2.2013,2.2013,2.1998,2.1911,2.1926,2.1884,2.0306,1.916,1.8379,1.7994,1.7332,1.6718,1.7543,1.7758,1.7837,1.8931,1.9251,1.9116,1.8939,0.0,1.76,1.6909,0.0,0.0,0.0,0.0,1.8493,1.9031,1.9518,1.9909,2.0108,1.9981,1.9849,1.9863,1.9187,1.7881,0.0,1.5124,1.4611,1.2871,0.0,0.0,0.0,0.0,1.6296,1.6523,1.7174,1.7577,1.7536,1.7536,1.7524,1.7534,1.7534,1.7284,1.6747,1.6525,1.5933,1.4818,1.3826,1.2911,1.2051,0.0,0.0,0.0,0.0,0.0,0.0,0.0,0.0,0.0,0.0,0.0,0.0,0.0,0.0,0.0,0.0,0.0,0.0,0.0,0.0,0.0,0.0,0.0,0.0,0.0,0.0,0.0,0.0,0.0,1.5255,1.6285,0.0,0.0,0.0,0.0,1.6177,1.7681,1.8612,1.8646,1.932,2.0056,2.0843,2.0945,2.1184,2.1609,2.2027,2.2044,2.1658,2.202,2.212,2.2013,2.2013,2.2013,2.1984,2.1658,2.172,2.1931,2.1214,2.0694,2.0287,1.9572,1.9112,1.8881,1.9183,1.8917,1.854,1.9163,1.8983,1.8623,1.9602,1.9476,1.8907,1.8861,1.8404,0.0,0.0,1.888,1.9647,2.07,2.1043,2.1299,2.1995,2.1568,2.1032,2.11,2.018,1.8976,0.0,1.6915,1.6087,1.5095,0.0,1.526,1.5917,1.6114,1.6523,1.7415,1.7572,1.7601,1.7601,1.7589,1.7589,1.7589,1.7589,1.7572,1.7539,1.6887,1.6453,1.6387,1.4944,1.376,1.2946,1.2052,0.0,0.0,0.0,0.0,0.0,0.0,0.0,0.0,0.0,0.0,0.0,0.0,0.0,0.0,0.0,0.0,0.0,0.0,0.0,0.0,0.0,0.0,0.0,0.0,0.0,0.0,0.0,0.0,1.6455,1.7521,0.0,1.6537,1.7325,1.794,1.7959,1.8975,1.9786,2.0326,2.0584,2.1059,2.1804,2.1866,2.1942,2.208,2.224,2.224,2.208,2.1991,2.2034,2.2192,2.1957,2.2003,2.2192,2.2077,2.2092,2.2175,2.1939,2.1429,2.0793,2.0519,2.0239,2.0004,2.0316,2.0469,2.0558,2.1033,2.1062,2.0883,2.0796,2.0603,2.0317,1.9791,1.9834,2.007,2.0209,2.076,2.1381,2.1768,2.1877,2.1972,2.2229,2.2079,2.1894,2.189,2.1201,2.0444,2.0031,1.914,1.8232,1.7651,1.7942,1.8176,1.7964,1.8332,1.8586,1.8439,1.8446,1.8237,1.7715,1.7653,1.7658,1.7601,1.7601,1.7601,1.7601,1.7343,1.6987,1.6531,1.5966,1.5087,1.3793,1.3004,1.1893,0.0,0.0,0.0,0.0,0.0,0.0,0.0,0.0,0.0,0.0,0.0,0.0,0.0,0.0,0.0,0.0,0.0,0.0,0.0,0.0,0.0,0.0,0.0,0.0,0.0,0.0,1.708,1.7459,1.862,1.8908,1.7723,1.8831,1.958,1.9513,2.0308,2.0962,2.1378,2.1508,2.1745,2.212,2.2473,2.2608,2.249,2.2861,2.2979,2.2876,2.2754,2.283,2.3023,2.2798,2.283,2.3006,2.2666,2.2565,2.2634,2.2281,2.1781,2.126,2.126,2.1134,2.0943,2.1071,2.1197,2.1369,2.1632,2.1903,2.2053,2.1563,2.1481,2.1465,2.0944,2.116,2.1566,2.1566,2.1921,2.2296,2.2296,2.2296,2.2296,2.2296,2.2296,2.2296,2.2296,2.1921,2.1566,2.1566,2.0545,1.9586,1.9323,1.9681,1.9833,1.933,1.9697,1.9816,1.9321,1.927,1.9068,1.853,1.8244,1.8097,1.8051,1.7821,1.7658,1.7658,1.7647,1.7406,1.6931,1.6414,1.5654,1.4622,1.3599,1.2746,1.2049,0.0,0.0,0.0,0.0,0.0,0.0,0.0,0.0,0.0,0.0,0.0,0.0,0.0,0.0,0.0,0.0,0.0,0.0,0.0,0.0,0.0,0.0,0.0,1.4886,1.6625,1.7985,1.8326,1.9665,2.0005,1.8624,2.0153,2.1103,2.0771,2.1692,2.2137,2.1844,2.2125,2.2202,2.1877,2.2891,2.3276,2.2921,2.3965,2.432,2.3967,2.4304,2.4444,2.446,2.4444,2.446,2.4426,2.3393,2.3123,2.3346,2.228,2.1864,2.1832,2.1814,2.1812,2.1751,2.1432,2.1135,2.0844,2.0844,2.1261,2.1812,2.1796,2.2034,2.2282,2.2282,2.2282,2.2282,2.2268,2.2268,2.2268,2.2268,2.2268,2.2268,2.2268,2.2268,2.2268,2.2282,2.2282,2.2282,2.2296,2.1096,2.0069,2.0069,2.0069,2.0069,2.0069,2.0069,0.0,2.0035,2.0035,2.0018,2.0002,1.9367,1.8927,1.8894,1.8251,1.7817,1.78,1.7738,1.7698,1.7698,1.6271,1.5455,1.5425,1.3918,1.3519,1.43,0.0,0.0,0.0,0.0,0.0,0.0,0.0,0.0,0.0,0.0,0.0,0.0,0.0,0.0,0.0,0.0,0.0,0.0,0.0,0.0,0.0,0.0,1.6564,1.6111,1.7987,1.9445,1.9594,2.0908,2.1466,2.06,2.1411,2.1863,2.1514,2.177,2.2134,2.2572,2.2682,2.3055,2.3744,2.4039,2.4,2.3636,2.3916,2.3869,2.35,2.3346,2.3398,2.362,2.338,2.3568,2.4047,2.3751,2.3668,2.3748,2.3437,2.3161,2.2817,2.2088,2.1812,2.1797,2.1706,2.1768,2.1888,2.1888,2.1842,2.1842,2.2077,2.2049,2.1947,2.1947,2.1947,2.1886,2.1646,2.1569,2.1569,2.1569,2.1569,2.1569,2.1569,2.1569,2.1646,2.1886,2.1947,2.2005,2.2254,2.1958,2.1671,2.1671,2.1671,2.1671,2.1671,2.1671,0.0,2.094,2.0873,2.0653,2.0052,1.9828,1.9473,1.8944,1.8707,1.8369,1.7834,1.7789,1.7749,1.7698,1.7289,1.6785,1.6212,1.478,1.4145,0.0,0.0,0.0,0.0,0.0,0.0,0.0,0.0,0.0,0.0,0.0,0.0,0.0,0.0,0.0,0.0,0.0,0.0,0.0,0.0,0.0,0.0,1.7731,1.861,1.8452,1.9491,2.0398,2.0778,2.1564,2.1886,2.1354,2.1901,2.2226,2.2059,2.2305,2.2727,2.3319,2.3336,2.3551,2.4015,2.4298,2.4348,2.4112,2.4407,2.4449,2.4218,2.4035,2.4035,2.4218,2.4017,2.4146,2.4555,2.4243,2.4112,2.4095,2.3784,2.3501,0.0,0.0,0.0,0.0,0.0,2.2118,2.2313,2.2457,2.2377,2.2281,2.2599,2.2583,2.2425,2.2425,2.2227,2.1967,2.1777,2.1519,2.1308,2.1308,2.1308,2.1308,2.1308,2.1308,2.1354,2.1539,2.1584,2.1691,2.2034,2.2092,0.0,2.2282,2.2296,2.2296,2.2296,2.2296,2.2158,2.1718,2.1651,2.1481,2.1011,2.069,2.0331,1.9904,1.9278,0.0,0.0,0.0,1.7636,1.7305,1.7255,0.0,0.0,0.0,0.0,0.0,0.0,0.0,0.0,1.4245,1.3942,0.0,0.0,0.0,0.0,0.0,0.0,0.0,0.0,0.0,0.0,0.0,0.0,0.0,0.0,0.0,0.0,1.9487,2.0372,2.109,2.0922,2.0997,2.167,2.1766,2.1676,2.1323,2.1938,2.2375,2.2378,2.3019,2.3572,2.3968,0.0,0.0,0.0,0.0,2.4507,2.4452,2.5102,2.5408,2.537,2.537,2.537,2.537,2.537,2.5389,2.5395,2.4745,2.4452,2.4404,2.3742,2.3449,2.338,2.3002,2.2864,2.2828,2.2515,2.2403,2.2459,2.2739,0.0,0.0,2.3189,2.326,2.3243,2.3243,2.2825,2.2343,2.2309,2.1859,2.1408,2.1311,2.1295,2.1295,2.1214,2.1198,2.1214,2.1245,2.1245,2.1339,2.1676,2.1766,2.1886,2.2194,2.2268,2.2296,2.2296,2.2296,2.2296,2.2296,2.2296,2.2296,2.2296,0.0,0.0,2.1207,1.9955,1.9113,1.9029,1.842,1.776,1.7094,1.7013,1.7013,1.7061,1.6963,1.725,1.7951,1.7893,1.7903,1.7915,1.5852,1.5241,0.0,0.0,0.0,0.0,0.0,0.0,0.0,0.0,0.0,0.0,0.0,0.0,0.0,0.0,0.0,1.9238,2.0307,2.1117,2.1599,2.1611,2.1528,2.1415,2.1646,2.1676,2.1323,2.2203,2.2645,2.2329,2.2997,2.3563,2.39,2.3911,2.4278,2.5063,2.5227,2.5139,2.481,2.4941,2.4843,2.4533,0.0,0.0,2.4533,2.4533,2.4699,2.5005,2.4877,2.4795,2.4795,2.4652,2.439,2.404,2.344,2.319,2.3207,2.3136,2.3119,2.3119,2.3189,2.3028,2.2864,2.3189,2.3119,2.29,2.29,2.2808,0.0,2.2368,2.2201,2.1968,2.1441,2.1301,2.1161,2.0618,2.0494,2.0578,2.0844,2.0909,2.099,2.1323,2.1616,2.1827,2.1886,2.2123,2.2296,2.2296,2.2296,2.2296,2.2296,2.2296,2.2296,2.2296,2.2161,2.1854,2.1241,2.0936,2.0467,1.9828,1.9647,1.9512,1.9372,1.936,1.936,1.9355,1.9347,1.9386,1.955,1.9537,1.9542,1.9537,1.8392,1.8005,0.0,0.0,0.0,0.0,0.0,0.0,0.0,0.0,0.0,0.0,0.0,1.6048,1.7694,0.0,1.9194,2.0525,2.1317,2.1773,2.1807,2.193,2.1871,2.137,2.1447,2.1547,2.1552,2.2183,2.2736,2.3072,2.3615,2.4132,2.4676,2.4516,2.4636,2.5182,2.4985,2.4799,2.4599,2.4599,2.4492,2.4302,2.4302,2.4302,2.4302,2.4302,2.4405,2.4599,2.4599,2.4599,2.4599,2.4599,2.4472,2.4261,2.3928,2.38,2.38,2.38,2.38,2.38,2.38,2.3681,2.3581,2.3758,2.3681,2.3542,2.3542,2.3328,2.3025,2.2852,2.2548,2.2228,2.1889,2.155,2.1211,2.0872,2.0533,2.0339,2.051,2.0544,2.0645,2.099,2.1198,2.1355,2.1508,2.1691,2.1915,2.2254,2.2296,2.2296,2.2296,2.2296,2.2296,2.2296,2.2296,2.2144,2.1786,2.141,2.0856,2.0052,2.0002,2.0002,2.0002,2.0002,2.0002,2.0002,2.0002,2.0002,2.0002,2.0002,2.0217,2.0602,2.0162,1.9778,0.0,0.0,0.0,0.0,0.0,0.0,0.0,0.0,1.5517,1.6761,1.7432,1.8246,1.9714,2.0064,2.0478,2.1613,2.2151,2.2281,2.186,2.2102,2.2073,2.1375,2.1407,2.1585,2.1774,2.2284,2.296,2.3815,2.4249,2.4719,2.5243,2.4962,2.4784,2.4784,2.4472,2.4302,2.4302,2.4302,2.4302,2.4302,2.4302,2.4302,2.4302,2.4302,2.4302,2.4302,2.4302,2.4302,2.4302,2.4302,2.4302,2.4302,2.4302,2.4302,2.4302,2.4302,2.4302,2.4302,2.4302,2.4302,2.4302,2.4302,2.4302,2.4302,2.4302,2.3933,2.3486,2.3486,2.3102,2.2655,2.2536,2.2089,2.1658,2.1535,2.1073,2.0641,2.0518,2.0487,2.0545,2.0676,2.0761,2.0893,2.115,2.1261,2.1478,2.202,2.2123,2.2137,2.2194,2.2209,2.2237,2.231,2.2324,2.231,2.2296,2.1752,2.1143,2.0487,2.0454,2.0454,2.0454,2.0454,2.0454,2.0454,2.0454,2.0454,2.0454,2.0454,2.0775,2.141,2.141,2.1075,1.5486,1.4974,1.4989,1.5956,1.5657,1.569,0.0,0.0,1.7638,1.9248,2.0152,2.0723,2.0985,2.1317,2.1613,2.1779,2.2388,2.2584,2.1899,2.2133,2.2117,2.1379,2.1833,2.2083,2.1839,2.2964,2.3739,2.3815,2.4444,2.4705,2.4451,2.4405,2.4364,2.4364,2.4323,2.4302,2.4302,2.4302,2.4302,2.4302,2.4302,2.4302,2.4302,2.4302,2.4302,2.4302,2.4302,2.4302,2.4302,2.4302,2.4302,2.4302,2.4302,2.4302,2.4302,2.4302,2.4302,2.4302,2.4302,2.4302,2.4302,2.4302,2.4302,2.4302,2.4302,2.4256,2.4194,2.4194,2.4133,2.3948,2.3332,2.3132,2.2917,2.2336,2.2135,2.192,2.1319,2.118,2.1013,2.0464,2.061,2.0811,2.086,2.1103,2.1339,2.1401,2.1416,2.1524,2.1827,2.1899,2.2061,2.2349,2.2377,2.2349,2.231,2.2212,2.2127,2.2043,2.2043,2.2043,2.2043,2.2043,2.2043,2.2043,2.2043,2.2043,2.2043,2.2043,2.2093,2.2192,2.2192,2.2127,1.7485,1.7032,0.0,0.0,1.7678,1.7988,1.895,1.924,1.9508,2.025,2.0994,2.1466,2.1288,2.1402,2.1562,0.0,2.2216,2.2508,2.241,2.2352,2.2163,2.1647,2.1839,2.2016,2.21,2.2627,2.3281,2.4031,2.4378,2.4472,2.4302,2.4302,2.4302,2.4302,2.4302,2.4302,2.4302,2.4302,2.4302,2.4302,2.4302,2.4302,2.4317,2.4697,2.5133,2.5518,2.5465,2.5503,2.5518,2.5518,2.5503,2.5465,2.5503,2.5518,2.5426,2.461,2.4302,2.4302,2.4302,2.4302,2.4302,2.4302,2.4302,2.4302,2.4302,2.4302,2.4302,2.4302,2.4302,2.4241,2.3948,2.3594,2.3225,2.2948,2.2578,2.2228,2.1951,2.1889,2.1797,2.1519,2.1259,2.1085,2.1085,2.0879,2.0729,2.0729,2.1055,2.1354,2.1493,2.1735,2.2044,2.2419,2.246,2.2446,2.2419,2.2394,2.2366,2.2366,2.2324,2.2296,2.2296,2.2296,2.2324,2.2366,2.2366,2.238,2.2422,2.238,2.2366,2.2366,2.2324,2.2296,1.8508,0.0,0.0,1.8569,1.9267,1.9808,1.9709,2.0254,2.0811,2.0858,2.1284,2.1601,2.1354,2.1229,2.1311,2.1728,2.217,2.2572,2.2888,2.2674,2.2334,2.198,2.16,2.1559,2.1985,2.2347,2.3055,2.421,2.4302,2.4302,2.4302,2.4302,2.4302,2.4302,2.4302,2.4394,2.4558,2.4594,2.4687,2.4887,2.4887,2.4887,2.4902,2.5379,2.5887,2.6402,2.6327,2.6349,2.6402,2.6402,2.6364,2.6311,2.6364,2.6402,2.6257,2.5241,2.4872,2.4887,2.4887,2.4887,2.4887,2.4887,2.4872,2.4835,2.4835,2.4872,2.4841,2.4641,2.4594,2.4527,2.4364,2.3948,2.3579,2.3579,2.3194,2.2794,2.2628,2.2582,2.2517,2.2351,2.192,2.1581,2.1581,2.1011,2.0582,2.0582,2.0823,2.1071,2.1182,2.1569,2.1972,2.2343,2.2385,2.2429,2.2501,2.2432,2.2391,2.2391,2.2338,2.2268,2.2166,2.2265,2.2307,2.2262,2.2377,2.2446,2.2501,2.2446,2.2391,2.229,2.2335,2.2237,0.0,0.0,1.8235,1.9211,2.0075,2.0574,2.0252,2.0757,2.1291,2.1291,2.1307,2.1307,2.1308,2.1039,2.1032,2.1693,2.241,2.298,2.3242,2.3055,2.2744,2.2331,2.1137,2.0597,0.0,2.2501,2.3563,2.4256,2.4302,2.4302,2.4302,2.4302,2.4302,2.4302,2.4302,2.4604,2.525,2.5266,2.5641,2.6341,2.6341,2.6341,2.6341,2.6371,2.6387,2.6402,2.6327,2.6349,2.6402,2.6402,2.6364,2.6311,2.6364,2.6402,2.638,2.6265,2.6287,2.6341,2.6341,2.6341,2.6341,2.6341,2.6287,2.6234,2.6234,2.6287,2.618,2.5487,2.5266,2.5112,2.4466,2.4287,2.4271,2.4271,2.4256,2.4071,2.3409,2.3271,2.3071,2.2443,2.227,2.2255,2.2255,2.172,2.1273,2.1273,2.072,2.0477,2.0861,2.1371,2.1796,2.2082,2.211,2.2212,2.2487,2.2432,2.2391,2.2391,2.2338,2.2152,2.1827,2.2192,2.2248,2.1928,2.2287,2.2501,2.2501,2.2501,2.2329,2.2027,2.2329,2.2118,1.8201,0.0,1.9206,1.9803,2.0538,2.1058,2.0951,2.1114,2.1245,2.1023,2.0974,2.0893,2.0679,2.0544,2.0693,2.1359,2.2061,2.2688,2.3214,2.3223,2.2952,2.2366,2.1504,0.0,0.0,0.0,0.0,2.3548,2.364,2.3825,2.4287,2.4302,2.4302,2.4302,2.4727,2.5066,2.5296,2.5795,2.6149,2.6402,2.6402,2.6626,2.7057,2.7057,2.7303,2.7734,2.7703,2.7719,2.7734,2.7734,2.7719,2.7703,2.7719,2.7734,2.7719,2.7703,2.7719,2.7596,2.6703,2.6402,2.6402,2.6402,2.638,2.6364,2.6364,2.638,2.6356,2.6087,2.6026,2.598,2.5749,2.5333,2.4958,2.4958,2.4604,2.4241,2.401,2.3963,2.3902,2.3671,2.3271,2.2963,2.2963,2.2394,2.1864,2.1559,2.0804,2.046,2.091,2.1118,2.1416,2.1853,2.1913,2.1998,2.2281,2.224,2.2287,2.246,2.2175,2.1972,2.1869,2.1781,2.1753,2.1768,2.1886,2.1988,2.2032,2.1988,2.1915,2.1812,2.1825,2.1705,1.8796,1.9264,1.9783,2.0287,2.0781,2.1087,2.0974,2.0942,2.0877,2.0662,2.0611,2.0561,2.0339,2.0304,2.0518,2.118,2.1858,2.2517,2.3209,2.3086,2.2871,2.2671,2.1858,2.1396,0.0,0.0,0.0,2.3209,2.3517,2.3856,2.4287,2.4302,2.4302,2.4302,2.4943,2.5441,2.5687,2.6395,2.6872,2.7103,2.7103,2.7334,2.7765,2.7765,2.7996,2.8411,2.8411,2.8411,2.8411,2.8411,2.8411,2.8411,2.8411,2.8411,2.8411,2.8411,2.8411,2.8288,2.7411,2.7103,2.7103,2.7103,2.7103,2.7103,2.7103,2.7103,2.7057,2.6811,2.6749,2.6688,2.6441,2.6041,2.5703,2.5703,2.5142,2.465,2.465,2.4466,2.4302,2.4302,2.3948,2.3656,2.3656,2.3141,2.2554,2.1999,2.1466,2.1089,2.0957,2.0942,2.1103,2.157,2.1617,2.1736,2.2025,2.1998,2.203,2.2206,2.1899,2.166,2.1554,2.1462,2.1448,2.1448,2.1648,2.1753,2.1812,2.1753,2.1663,2.1556,2.1586,2.1479,1.9499,1.972,2.002,2.062,2.0809,2.0725,2.0373,2.0304,2.0289,2.0258,2.0258,2.0243,0.0,0.0,2.0474,2.1088,2.1827,2.2517,2.3163,2.2748,2.2644,0.0,0.0,0.0,0.0,0.0,0.0,2.324,0.0,2.4271,2.4302,2.4302,2.4317,2.4364,2.4989,2.5718,2.6426,2.7119,2.7765,2.8411,2.8411,2.8411,2.8411,2.8411,2.8411,2.8411,2.8411,2.8411,2.8411,2.8411,2.8411,2.8411,2.8411,2.8411,2.8411,2.8411,2.8411,2.8411,2.8411,2.8411,2.8411,2.8411,2.8411,2.8411,2.8411,2.8411,2.8273,2.7626,2.7442,2.7288,2.668,2.6495,2.6464,2.6464,2.5887,2.5358,2.5342,2.482,2.4364,2.4364,2.4333,2.4302,2.4302,2.3844,2.3293,2.2626,2.258,2.2191,2.1062,2.0873,2.0957,2.1295,2.1278,2.1418,2.1753,2.1708,2.1694,2.1709,2.1494,2.1229,2.0942,2.1276,2.1307,2.1007,2.1493,2.1753,2.1753,2.1753,2.1587,2.1277,2.1601,2.1371,1.9353,2.013,2.0843,2.0502,2.0796,2.1027,2.0429,2.0304,2.0165,1.9657,1.9549,1.9378,0.0,0.0,0.0,1.978,2.1211,0.0,2.2536,2.3271,0.0,2.3332,0.0,2.2655,2.2317,2.2748,0.0,0.0,2.3456,2.3779,2.4271,2.4302,2.4533,2.5019,2.5749,2.6441,2.7134,2.7811,2.8227,2.8411,2.8411,2.8411,2.8411,2.8411,2.8411,2.8411,2.8411,2.8411,2.8411,2.8411,2.8411,2.8411,2.8411,2.8411,2.8411,2.8411,2.8411,2.8411,2.8411,2.8411,2.8411,2.8411,2.8411,2.8411,2.8411,2.8411,2.8365,2.8196,2.815,2.8104,2.7934,2.7519,2.7149,2.7149,2.6611,2.6103,2.605,2.5512,2.505,2.505,2.4656,2.4302,2.4302,2.3768,2.3299,2.3192,2.2842,2.2517,2.2333,2.1811,2.1533,2.1654,2.1243,2.1071,2.1402,2.1402,2.1496,2.1694,2.1369,2.115,2.1119,2.0974,2.0893,2.0844,2.099,2.1055,2.1055,2.1055,2.1023,2.0925,2.1023,2.0942,2.0181,2.0934,2.1581,2.0903,2.1011,2.1042,2.0088,1.9857,1.9655,1.8946,1.8808,0.0,0.0,0.0,0.0,0.0,0.0,0.0,2.2274,2.2948,2.3502,0.0,2.3471,0.0,2.3179,2.3517,2.3748,0.0,2.3748,2.3902,2.4287,2.4594,2.4896,2.5281,2.6303,2.7149,2.7827,2.8211,2.8411,2.8411,2.8411,2.8411,2.8411,2.8411,2.8411,2.8411,0.0,2.8411,2.8411,2.8411,2.8411,2.8411,2.8411,2.8411,2.8411,2.8411,2.8411,2.8411,2.8411,2.8411,2.8411,2.8411,2.8411,2.8411,2.8411,2.8411,2.8411,2.8411,2.8411,2.8411,2.8411,2.8119,2.7842,2.7842,2.7319,2.6826,2.6795,2.6272,2.5687,2.5358,2.4989,2.4656,2.4364,2.4035,2.3829,2.3874,2.3702,2.3603,2.366,2.2834,2.2224,2.2278,2.1948,2.1685,2.1567,2.1567,2.1472,2.1262,2.1055,2.091,2.0876,2.076,2.0726,2.076,2.0778,2.0794,2.0794,2.0794,2.0794,2.0794,2.0794,2.0794,2.1304,2.1797,2.2151,2.1473,2.1304,2.0949,1.961,1.9302,1.907,1.8238,0.0,1.8053,1.7961,0.0,1.9163,1.9163,0.0,2.1535,2.2212,2.2382,2.2902,2.4148,2.3794,2.3656,2.4241,2.4302,2.4302,2.4302,2.4302,2.4302,2.4302,2.4927,2.5389,2.5558,2.6857,2.7811,2.8396,2.8411,2.8411,2.8411,2.8411,2.8411,2.8411,2.8411,2.8411,2.8411,2.8411,0.0,2.8411,2.8411,2.8411,2.8411,2.8411,2.8411,2.8411,2.8411,2.8411,2.8411,2.8411,2.8411,2.8411,2.8411,2.8411,2.8411,2.8411,2.8411,2.8411,2.8411,2.8411,2.8411,2.8411,2.8411,2.8411,2.8411,2.7965,2.7534,2.7534,2.6995,2.6318,2.5595,2.5435,2.5219,2.4564,2.4539,2.4586,2.4493,2.4641,2.4762,2.4782,2.3752,2.304,2.304,2.2946,2.2661,2.2074,2.2027,2.1741,2.1041,2.0977,2.091,2.081,2.0832,2.0851,2.0868,2.0824,2.0794,2.0794,2.0794,2.0778,2.0778,2.0872,2.0903,2.1304,2.1797,2.2151,2.1473,2.1304,2.0949,1.961,1.9302,0.0,0.0,0.0,1.7208,1.664,1.7562,0.0,1.8391,0.0,0.0,0.0,0.0,2.3409,0.0,0.0,0.0,0.0,0.0,0.0,0.0,0.0,2.4302,2.4302,2.4927,2.5819,2.6995,2.7811,2.8288,2.8411,2.8411,2.8411,2.8411,2.8411,2.8411,2.8411,2.8411,2.8411,2.8411,2.8411,0.0,2.8411,2.8411,2.8411,2.8411,2.8411,2.8411,2.8411,2.8411,2.8411,2.8411,2.8411,2.8411,2.8411,2.8411,2.8411,2.8411,2.8411,2.8411,2.8411,2.8411,2.8411,2.8411,2.8411,2.8411,2.8411,2.8411,2.8319,2.8227,2.8227,2.7703,2.7011,2.6334,2.6195,2.598,2.5235,2.5149,2.497,2.4415,2.4462,2.458,2.4645,2.4104,2.3733,2.3733,2.3228,2.2851,2.274,2.2724,2.2677,2.2532,2.2411,2.2393,2.2481,2.1874,2.1591,2.1693,2.111,2.0794,2.0794,2.0744,2.0726,2.0742,2.1238,2.1452,2.1304,2.1797,2.2151,2.1473,2.1304,2.0857,1.9115,0.0,0.0,0.0,0.0,1.6578,1.6256,0.0,0.0,0.0,0.0,0.0,0.0,0.0,0.0,0.0,0.0,0.0,0.0,0.0,0.0,0.0,0.0,2.4302,2.4302,2.5302,2.6503,2.7873,2.8242,2.8411,2.8411,2.8411,2.8411,2.8411,2.8411,2.8411,2.8411,2.8411,2.8411,2.8411,2.8411,0.0,2.8411,2.8411,2.8411,2.8411,2.8411,2.8411,2.8411,2.8411,2.8411,2.8411,2.8411,2.8411,2.8411,2.8411,2.8411,2.8411,2.8411,2.8411,2.8411,2.8411,2.8411,2.8411,2.8411,2.8411,2.8411,2.8411,2.8411,2.8411,2.8411,2.815,2.7719,2.7042,2.6919,2.6688,2.5942,2.5834,2.5626,2.4927,2.4925,2.4922,2.4636,2.4469,2.4398,2.446,2.4179,2.3847,2.3449,2.3417,2.3257,2.2873,2.2825,2.2825,2.2841,2.251,2.2355,2.2424,2.2076,2.1902,2.1902,2.1797,2.1729,2.1745,2.2014,2.2131,2.1304,2.1689,2.1966,2.1427,2.118,2.058,1.8637,1.8191,0.0,0.0,1.6194,1.6194,1.6194,0.0,0.0,0.0,0.0,0.0,0.0,0.0,0.0,0.0,0.0,0.0,0.0,0.0,0.0,0.0,0.0,0.0,2.4697,2.578,2.7011,2.8365,2.8411,2.8411,2.8411,2.8411,2.8411,2.8411,2.8411,2.8411,2.8411,2.8411,2.8411,2.8411,2.8411,0.0,0.0,2.8411,2.8411,2.8411,2.8411,2.8411,2.8411,2.8411,2.8411,2.8411,2.8411,2.8411,2.8411,2.8411,2.8411,2.8411,2.8411,2.8411,2.8411,2.8411,2.8411,2.8411,2.8411,2.8411,2.8411,2.8411,2.8411,2.8411,2.8411,2.8411,2.8242,2.7719,2.7611,2.738,2.665,2.658,2.6364,2.5619,2.549,2.5298,2.4844,2.478,2.4822,2.4946,2.4966,2.4764,2.4191,2.4144,2.3885,2.3311,2.3264,2.3283,2.328,2.3141,2.3065,2.3119,2.2925,2.2862,2.2862,2.2718,2.2629,2.2629,2.272,2.2757,2.1304,2.135,2.1381,2.1319,2.0826,2.001,1.853,0.0,0.0,1.6471,1.6194,1.6194,1.6194,0.0,0.0,0.0,0.0,0.0,0.0,0.0,0.0,0.0,0.0,0.0,0.0,0.0,0.0,0.0,0.0,0.0,2.605,2.6303,2.7011,2.8365,2.8411,2.8411,2.8411,2.8411,2.8411,2.8411,2.8411,2.8411,2.8411,2.8411,2.8411,2.8411,2.8411,0.0,0.0,2.8411,2.8411,2.8411,2.8411,2.8411,2.8411,2.8411,2.8411,2.8411,2.8411,2.8411,2.8411,2.8411,2.8411,2.8411,2.8411,2.8411,2.8411,2.8411,2.8411,2.8411,2.8411,2.8411,2.8411,2.8411,2.8411,2.8411,2.8411,2.8411,2.8381,2.8319,2.8319,2.8104,2.7411,2.7303,2.7057,2.6327,2.5703,2.5346,2.5406,2.4953,2.4666,2.4802,2.4942,2.4954,2.4891,2.4891,2.4859,2.4796,2.4582,2.4543,2.4796,2.3986,2.3619,2.3793,2.3088,2.2721,2.2721,2.2518,2.2425,2.244,2.2995,2.3229,2.0687,2.0687,2.0687,2.0687,2.0505,1.9933,1.8514,0.0,1.7823,1.6471,1.6194,1.6194,1.6194,1.6423,0.0,0.0,0.0,0.0,0.0,0.0,0.0,0.0,0.0,0.0,0.0,0.0,0.0,0.0,0.0,0.0,2.6318,2.638,2.7011,2.8365,2.8411,2.8411,2.8411,2.8411,2.8411,2.8411,2.8411,2.8411,2.8411,2.8411,2.8411,2.8411,2.8411,0.0,0.0,2.8411,2.8411,2.8411,2.8411,2.8411,2.8411,2.8411,2.8411,2.8411,2.8411,2.8411,2.8473,2.8889,2.9012,2.8935,2.8535,2.8411,2.8411,2.8411,2.8411,2.8411,2.8411,2.8411,2.8411,2.8411,2.8411,2.8411,2.8411,2.8411,2.8411,2.8411,2.8411,2.8319,2.8057,2.7996,2.7765,2.7072,2.6734,2.6449,2.6143,2.5542,2.5212,2.5378,2.5158,2.5005,2.5005,2.5005,2.5005,2.5005,2.4906,2.4886,2.5001,2.4638,2.4438,2.4438,2.4116,2.3936,2.3842,2.372,2.3661,2.3677,2.3819,2.3902,2.0258,2.0304,2.0304,2.0304,2.015,1.9686,0.0,1.8053,1.7577,1.644,1.6194,1.6194,1.6194,1.6194,1.6409,0.0,0.0,1.7516,0.0,0.0,0.0,0.0,0.0,0.0,0.0,0.0,0.0,0.0,0.0,0.0,2.6356,2.638,2.6995,2.8365,2.8411,2.8411,2.8411,2.8411,2.8411,2.8411,2.8411,2.8411,2.8411,2.8411,2.8411,2.8411,2.8411,0.0,0.0,2.8411,2.8411,2.8411,2.8411,2.8411,2.8411,2.8411,2.8535,2.8673,2.8473,2.8673,2.9058,2.9294,2.9525,2.9602,2.9125,2.8858,2.8704,2.8704,2.855,2.8411,2.8411,2.8411,2.8411,2.8411,2.8411,2.8411,2.8411,2.8411,2.8411,2.8411,2.8411,2.8411,2.8411,2.8411,2.8242,2.7765,2.7519,2.725,2.6809,2.6205,2.5858,2.5998,2.5743,2.5404,2.5017,2.5005,2.5005,2.5005,2.4946,2.4946,2.5005,2.4926,2.4862,2.4802,2.4742,2.4666,2.4584,2.4482,2.4436,2.4436,2.4338,2.4302,2.0119,2.0304,2.0304,2.0304,1.9795,1.9117,0.0,1.77,1.7024,1.6332,1.6194,1.6194,1.6194,1.6194,1.6409,1.7085,1.7208,0.0,0.0,0.0,0.0,0.0,0.0,0.0,0.0,0.0,0.0,0.0,0.0,0.0,2.6341,2.6349,2.6942,2.8365,2.8411,2.8411,2.8411,2.8411,2.8411,2.8411,2.8411,2.8411,2.8411,2.8411,2.8411,0.0,0.0,0.0,0.0,2.8411,2.8411,2.8411,2.8411,2.8411,2.8411,2.8411,2.8827,2.9279,2.8642,2.9264,3.0263,2.9602,2.9848,3.0386,3.0386,2.991,2.9371,2.9371,2.8919,2.8411,2.8411,2.8411,2.8411,2.8411,2.8411,2.8411,2.8411,2.8411,2.8411,2.8411,2.8411,2.8411,2.8411,2.8411,2.8411,2.8396,2.7827,2.7396,2.738,2.6871,2.6505,2.6505,2.6726,2.6377,2.5112,2.5005,2.5005,2.5005,2.4882,2.4862,2.4985,2.4746,2.4666,2.4802,2.46,2.4498,2.4498,2.438,2.4302,2.4302,2.4302,2.4302,1.893,1.9223,1.9502,1.8992,1.8715,1.8253,1.7101,1.7024,1.687,1.5747,1.5885,1.6056,1.5608,1.5901,1.6271,1.6471,1.6901,0.0,0.0,0.0,0.0,0.0,0.0,0.0,0.0,0.0,0.0,0.0,0.0,0.0,2.6356,2.6811,2.7473,2.8381,2.8411,2.8411,2.8411,2.8411,2.8411,2.8411,2.8411,2.8411,2.8411,2.8411,2.8411,0.0,0.0,0.0,0.0,2.8411,2.8411,2.8411,2.8411,2.8411,2.8458,2.8919,2.9227,2.9433,2.9679,3.0033,3.0432,3.0689,3.0905,3.1166,3.1628,3.0674,2.9294,2.8858,2.8565,2.8411,2.8411,2.8411,2.8411,2.8411,2.8411,2.8411,2.8411,2.8411,2.8411,2.8411,2.8411,2.8411,2.8411,2.8411,2.8411,2.8411,2.8227,2.8088,2.8088,2.7511,2.7126,2.7179,2.6851,2.6346,2.5607,2.5616,2.5492,2.5037,2.4946,2.4962,2.5005,2.4926,2.4806,2.4666,2.4605,2.4503,2.4359,2.4317,2.4302,2.4302,2.4302,2.4302,0.0,1.853,1.8777,1.8315,1.8023,1.7608,1.6763,1.6701,1.6578,1.5747,1.5916,1.6071,1.5654,1.5716,1.5916,1.6148,1.6548,0.0,0.0,0.0,0.0,0.0,0.0,0.0,0.0,0.0,0.0,0.0,0.0,0.0,2.6356,2.6795,2.7442,2.8381,2.8411,2.8411,2.8411,2.8411,2.8411,2.8411,2.8411,2.8411,2.8411,2.8411,2.8411,0.0,0.0,0.0,0.0,2.8411,2.8411,2.8411,2.8411,2.8411,2.8458,2.8889,2.9325,2.9787,2.9956,3.0509,3.1182,3.1336,3.1551,3.1797,3.1967,3.0966,2.9571,2.8673,2.8411,2.8411,2.8411,2.8411,2.8411,2.8411,2.8411,2.8411,2.8411,2.8411,2.8411,2.8411,2.8411,2.8411,2.8411,2.8411,2.8411,2.8411,2.8411,2.8411,2.8411,2.8042,2.7789,2.7836,2.752,2.7069,2.6495,2.6392,2.6041,2.5352,2.5361,2.5254,2.5001,2.4946,2.4826,2.4609,2.4584,2.4482,2.4302,2.4302,2.4302,2.4302,2.4302,2.4302,0.0,1.8099,1.813,1.8069,1.7592,1.7116,1.707,1.6609,0.0,1.6147,1.6177,1.6194,1.6194,1.5685,1.5485,1.6148,0.0,0.0,0.0,0.0,0.0,0.0,0.0,0.0,0.0,0.0,0.0,0.0,0.0,0.0,2.6341,2.6464,2.7057,2.8365,2.8411,2.8411,2.8411,2.8411,2.8411,2.8411,2.8411,2.8411,2.8411,2.8411,2.8411,0.0,0.0,0.0,0.0,2.8411,2.8411,2.8411,2.8411,2.8411,2.8411,2.8458,2.9248,3.0248,2.9735,3.0766,3.2228,3.1643,3.1874,3.2259,3.1609,3.0936,3.0125,2.8842,2.8442,2.8411,2.8411,2.8411,2.8411,2.8411,2.8411,2.8411,2.8411,2.8411,2.8411,2.8411,2.8411,2.8411,2.8411,2.8411,2.8411,2.8411,2.8411,2.8411,2.8411,2.8411,2.8411,2.8411,2.8517,2.8325,2.7628,2.7188,2.6638,2.59,2.5989,2.5767,2.5159,2.5004,2.4883,2.475,2.4616,2.4498,2.4379,2.4379,2.441,2.4456,2.4456,2.4456,1.661,0.0,1.7316,1.6793,1.6548,1.6286,0.0,1.5933,1.6054,0.0,0.0,0.0,1.6194,0.0,0.0,0.0,0.0,0.0,0.0,0.0,0.0,0.0,0.0,0.0,0.0,0.0,0.0,0.0,0.0,2.5456,2.6356,2.6888,2.7534,2.8381,2.8411,2.8411,2.8411,2.8411,2.8411,2.8411,2.8411,2.8411,2.8411,2.8411,2.8411,0.0,0.0,0.0,2.8411,2.8411,2.8411,2.8411,2.8411,2.8411,2.8473,2.8996,2.9356,2.9756,3.0628,3.1228,3.1701,3.2044,3.2259,3.2259,3.1609,3.0936,3.0217,2.9387,2.8812,2.8411,2.8411,2.8411,2.8411,2.8411,2.8411,2.8411,2.8411,2.8411,2.8411,2.8411,2.8411,2.8411,2.8411,2.8411,2.8411,2.8411,2.8411,2.8411,2.8411,2.8411,2.8411,2.8411,2.8436,2.8383,2.8189,2.7775,2.721,2.6517,2.6529,2.6516,2.6466,2.6429,2.6328,2.6205,2.5478,2.5108,2.505,2.505,2.5364,2.5925,2.5925,2.5925,1.6137,1.6441,1.664,1.63,1.6194,1.61,1.5747,0.0,0.0,0.0,0.0,0.0,0.0,0.0,0.0,0.0,0.0,0.0,0.0,0.0,0.0,0.0,0.0,0.0,0.0,0.0,0.0,0.0,0.0,2.5626,2.6371,2.7026,2.7703,2.8381,2.8411,2.8411,2.8411,2.8411,2.8411,2.8411,2.8411,2.8411,2.8411,2.8411,2.8411,0.0,0.0,0.0,2.8411,2.8411,2.8411,2.8411,2.8411,2.8411,2.8442,2.8827,2.9335,2.9956,3.0689,3.1336,3.1886,3.1905,3.2136,3.2259,3.1609,3.1136,3.0735,3.0033,2.9587,2.9233,2.895,2.8873,2.8873,2.8873,2.8873,2.895,2.9233,2.9089,2.8873,2.8873,2.8611,2.8411,2.8411,2.8411,2.8411,2.8411,2.8411,2.8411,2.8411,2.8411,2.8411,2.8411,2.8411,2.8411,2.8411,2.8177,2.776,2.71,2.7121,2.7047,2.6823,2.6823,2.6742,2.6616,2.6083,2.581,2.581,2.581,2.601,2.6402,2.6402,2.638,1.6232,1.632,1.6286,1.61,1.6117,1.6163,1.6071,0.0,0.0,0.0,0.0,0.0,0.0,0.0,0.0,0.0,0.0,0.0,0.0,0.0,0.0,0.0,0.0,0.0,0.0,0.0,0.0,0.0,0.0,2.5733,2.6364,2.7134,2.7811,2.8381,2.8411,2.8411,2.8411,2.8411,2.8411,2.8411,2.8411,2.8411,2.8411,2.8411,2.8411,2.8411,0.0,0.0,2.8411,2.8411,2.8411,2.8411,2.8411,2.8411,2.8411,2.8411,2.9171,3.0279,3.0479,3.1366,3.2305,3.1747,3.1921,3.229,3.1705,3.1563,3.1428,3.0874,3.0555,3.0263,2.9694,2.9541,2.9541,2.9541,2.9541,2.971,3.0279,2.994,2.9541,2.9541,2.9079,2.8719,2.8719,2.8719,2.8673,2.8581,2.855,2.8519,2.8411,2.8411,2.8411,2.8411,2.8411,2.8411,2.8411,2.8411,2.8174,2.7682,2.7736,2.7556,2.6996,2.6981,2.6896,2.6676,2.6601,2.6534,2.6534,2.6534,2.6618,2.6726,2.6726,2.6672,1.6842,1.704,1.6763,1.5639,1.5777,1.6054,1.5485,0.0,0.0,0.0,0.0,0.0,0.0,0.0,0.0,0.0,0.0,0.0,0.0,0.0,0.0,0.0,0.0,0.0,0.0,0.0,0.0,0.0,0.0,2.6204,2.638,2.7565,2.8288,2.8411,2.8411,2.8411,2.8411,2.8411,2.8411,2.8411,2.8411,2.8411,2.8411,2.8411,2.8411,2.8411,0.0,2.8411,2.8411,2.8411,2.8411,2.8411,2.8411,2.8411,2.8411,2.8411,2.8904,2.9735,3.0843,3.1736,3.2382,3.2275,3.2305,3.2367,3.2275,3.2244,3.2213,3.2121,3.1289,3.0371,3.0263,3.0248,3.0248,3.0248,3.0248,3.0263,3.0371,3.0325,3.0248,3.0248,3.0156,3.0079,3.0079,3.0079,2.9894,2.9325,2.9233,2.9058,2.8473,2.8411,2.8411,2.8411,2.8411,2.8411,2.8411,2.8411,2.8365,2.8282,2.829,2.8292,2.8302,2.831,2.8023,2.7434,2.7296,2.7242,2.7242,2.7242,2.7534,2.8088,2.8088,2.8088,1.6716,1.6836,1.6682,1.5941,1.624,1.6655,1.6348,0.0,0.0,0.0,0.0,0.0,0.0,0.0,0.0,0.0,0.0,0.0,0.0,0.0,0.0,0.0,0.0,0.0,0.0,0.0,0.0,0.0,0.0,0.0,2.581,2.6765,2.7488,2.7857,2.7857,2.8042,2.8411,2.8411,2.8411,2.8411,2.8411,2.8411,2.8411,2.8411,2.8411,2.8411,0.0,2.8411,2.8411,2.8411,2.8411,2.8411,2.8411,2.8411,2.8488,2.9202,2.9664,3.0125,3.1474,3.2136,3.2336,3.1967,3.209,3.2321,3.1967,3.2105,3.2398,3.2398,3.1967,3.1397,3.1028,3.0951,3.0951,3.0951,3.0951,3.1043,3.1413,3.1197,3.0951,3.0951,3.0658,3.0402,3.0402,3.0402,3.0294,2.9986,2.994,2.9817,2.951,2.9464,2.9464,2.9464,2.9156,2.895,2.895,2.8611,2.8411,2.8411,2.8411,2.8436,2.8493,2.8493,2.8354,2.8029,2.7958,2.7934,2.7934,2.7934,2.8104,2.8411,2.8411,2.8411,1.6705,1.6752,1.67,1.6495,0.0,1.7009,1.7162,0.0,0.0,0.0,0.0,0.0,0.0,0.0,0.0,0.0,0.0,0.0,0.0,0.0,0.0,0.0,0.0,0.0,0.0,0.0,0.0,0.0,0.0,0.0,2.5296,2.5995,2.6626,2.7134,2.7303,2.7642,2.8165,2.8319,2.8411,2.8411,2.8411,2.8411,2.8411,2.8411,2.8411,2.8411,2.8411,2.8411,2.8411,2.8411,2.8411,2.8411,2.8411,2.8411,2.8565,2.9894,3.0402,3.0586,3.1936,3.2398,3.2305,3.1782,3.1967,3.229,3.1782,3.1982,3.2398,3.2398,3.2398,3.2275,3.1778,3.1613,3.1613,3.1613,3.1613,3.1767,3.2275,3.1982,3.1613,3.1613,3.1228,3.0863,3.0863,3.0863,3.0801,3.0674,3.0617,3.0571,3.0417,3.0402,3.0402,3.0402,2.994,2.9556,2.9402,2.8935,2.8581,2.8411,2.8411,2.8411,2.8411,2.8411,2.8411,2.8411,2.8411,2.8411,2.8411,2.8411,2.8411,2.8411,2.8411,2.8411,1.7328,1.7332,1.7161,1.7131,1.6701,0.0,1.7055,1.7208,0.0,0.0,0.0,0.0,0.0,0.0,0.0,0.0,0.0,0.0,0.0,0.0,0.0,0.0,0.0,0.0,0.0,0.0,0.0,0.0,0.0,0.0,2.5296,2.5995,2.6395,2.6388,2.7042,2.7411,2.7473,2.8088,2.8411,2.8411,2.8411,2.8411,2.8411,2.8411,2.8411,2.8411,2.8411,2.8411,2.8411,2.8411,2.8411,2.8411,2.8411,2.8411,2.8565,2.9894,3.0402,3.0586,3.1936,3.2398,3.2382,3.2336,3.2351,3.2382,3.2336,3.2351,3.2398,3.2398,3.2398,3.2382,3.2336,3.2321,3.2321,3.2321,3.2321,3.2336,3.2382,3.2351,3.2321,3.2321,3.229,3.2259,3.2259,3.2259,3.2028,3.1439,3.1347,3.1089,3.0479,3.0402,3.0402,3.0402,3.0356,3.0079,2.9433,2.9366,2.9048,2.8442,2.8411,2.8411,2.8411,2.8411,2.8411,2.8411,2.8411,2.8411,2.8411,2.8411,2.8411,2.8411,2.8411,2.8411,1.7036,1.7173,1.7262,1.7713,1.7787,0.0,0.0,1.8176,1.87,0.0,0.0,0.0,0.0,0.0,0.0,0.0,0.0,0.0,0.0,0.0,0.0,0.0,0.0,0.0,0.0,0.0,0.0,0.0,0.0,0.0,2.4687,2.4948,2.5272,2.5665,2.6342,2.6949,2.7396,2.8057,2.8411,2.8411,2.8411,2.8411,2.8411,2.8411,2.8411,2.8411,2.8411,2.8411,2.8411,2.8411,2.8411,2.8411,2.8411,2.8411,2.8519,2.9433,3.0033,3.0525,3.1459,3.2044,3.2398,3.2398,3.2398,3.2398,3.2398,3.2398,3.2398,3.2398,3.2398,3.2398,3.2398,3.2398,3.2398,3.2398,3.2398,3.2398,3.2398,3.2398,3.2398,3.2398,3.2398,3.2398,3.2398,3.2398,3.2305,3.2044,3.2013,3.1921,3.169,3.1643,3.1643,3.1643,3.1274,3.0751,3.0079,3.0017,2.9725,2.9048,2.8642,2.8411,2.8411,2.8411,2.8411,2.8411,2.8411,2.8411,2.8411,2.8411,2.8411,2.8411,2.8411,2.8411,1.6706,1.6865,1.7113,1.783,0.0,0.0,1.8547,1.8947,1.9549,0.0,0.0,0.0,0.0,0.0,0.0,0.0,0.0,0.0,0.0,0.0,0.0,0.0,0.0,0.0,0.0,0.0,0.0,0.0,0.0,0.0,0.0,2.4302,2.4518,2.4958,2.5635,2.6402,2.7265,2.7804,2.8196,2.8411,2.8411,2.8411,2.8411,2.8411,2.8411,2.8411,2.8411,2.8411,2.8411,2.8411,2.8411,2.8411,2.8411,2.8411,2.8488,2.9166,2.9679,3.0202,3.1089,3.169,3.2105,3.2321,3.2398,3.2398,3.2398,3.2398,3.2398,3.2398,3.2398,3.2398,3.2398,3.2398,3.2398,3.2398,3.2398,3.2398,3.2398,3.2398,3.2398,3.2398,3.2398,3.2398,3.2398,3.2398,3.2398,3.2398,3.2398,3.2398,3.2398,3.2398,3.2398,3.2398,3.1982,3.1428,3.0782,3.0735,3.0443,2.9756,2.9279,2.8842,2.8427,2.8411,2.8411,2.8411,2.8411,2.8411,2.8411,2.8411,2.8411,2.8411,2.8411,2.8519,1.6502,1.6455,1.6767,0.0,0.0,0.0,0.0,1.9302,0.0,0.0,0.0,0.0,0.0,0.0,0.0,0.0,0.0,0.0,0.0,0.0,0.0,0.0,0.0,0.0,0.0,0.0,0.0,0.0,0.0,0.0,0.0,2.4302,2.4302,2.4302,2.4943,2.5845,2.6976,2.7273,2.7734,2.8411,2.8411,2.8411,2.8411,2.8411,2.8411,2.8411,2.8411,2.8411,2.8411,2.8411,2.8411,2.8411,2.8411,2.8411,2.8488,2.9166,2.9387,2.9597,3.0905,3.1393,3.1516,3.2167,3.2382,3.2398,3.2398,3.2398,3.2398,3.2398,3.2398,3.2398,3.2398,3.2398,3.2398,3.2398,3.2398,3.2398,3.2398,3.2398,3.2398,3.2398,3.2398,3.2398,3.2398,3.2398,3.2398,3.2398,3.2398,3.2398,3.2398,3.2398,3.2398,3.2398,3.2398,3.2121,3.1486,3.1424,3.112,3.0448,3.0402,2.9802,2.8473,2.8411,2.8411,2.8411,2.8411,2.8411,2.8411,2.8411,2.8411,2.8427,2.8427,2.8781,1.62,1.6647,0.0,0.0,0.0,0.0,0.0,0.0,0.0,0.0,0.0,0.0,0.0,0.0,0.0,0.0,0.0,0.0,0.0,0.0,0.0,0.0,0.0,0.0,0.0,0.0,0.0,0.0,0.0,0.0,0.0,2.4302,2.4302,2.4302,2.4943,2.5687,2.6486,2.7095,2.7734,2.8411,2.8411,2.8411,2.8411,2.8411,2.8411,2.8411,2.8411,2.8411,2.8411,2.8411,2.8411,2.8411,2.8411,2.8411,2.8427,2.8627,2.9012,2.9473,2.9858,3.0612,3.1413,3.1613,3.2013,3.2398,3.2398,3.2398,3.2398,3.2398,3.2398,3.2398,3.2398,3.2398,3.2398,3.2398,3.2398,3.2398,3.2398,3.2398,3.2398,3.2398,3.2398,3.2398,3.2398,3.2398,3.2398,3.2398,3.2398,3.2398,3.2398,3.2398,3.2398,3.2398,3.2398,3.2321,3.2105,3.209,3.1813,3.1151,3.1089,3.072,2.9833,2.9341,2.9119,2.9119,2.8642,2.8642,2.9119,2.9119,2.9341,2.9802,2.9802,2.991,1.6315,0.0,0.0,0.0,0.0,0.0,0.0,0.0,0.0,0.0,0.0,0.0,0.0,0.0,0.0,0.0,0.0,0.0,0.0,0.0,0.0,0.0,0.0,0.0,0.0,0.0,0.0,0.0,0.0,0.0,0.0,2.4302,2.4302,2.4302,2.4702,2.5447,2.6578,2.6834,2.7457,2.8411,2.8411,2.8411,2.8411,2.8411,2.8411,2.8411,2.8411,2.8411,2.8411,2.8411,2.8411,2.8411,2.8411,2.8411,2.8411,2.8411,2.8658,2.9058,2.9294,2.9935,3.0689,3.1239,3.1659,3.2044,3.2321,3.2398,3.2398,3.2398,3.2398,3.2398,3.2398,3.2398,3.2398,3.2398,3.2398,3.2398,3.2398,3.2398,3.2398,3.2398,3.2398,3.2398,3.2398,3.2398,3.2398,3.2398,3.2398,3.2398,3.2398,3.2398,3.2398,3.2398,3.2398,3.2398,3.2398,3.2398,3.2213,3.1813,3.1782,3.1613,3.1228,3.0279,2.9787,2.9787,2.9387,2.9371,2.9787,2.9787,3.0002,3.0402,3.0402,3.054,1.6745,0.0,0.0,0.0,0.0,0.0,0.0,0.0,0.0,0.0,0.0,0.0,0.0,0.0,0.0,0.0,0.0,0.0,0.0,0.0,0.0,0.0,0.0,0.0,0.0,0.0,0.0,0.0,0.0,0.0,0.0,2.4302,2.4302,2.4302,2.4302,2.512,2.6814,2.6471,2.6972,2.8319,2.8381,2.8411,2.8411,2.8411,2.8411,2.8411,2.8411,2.8411,2.8411,2.8411,2.8411,2.8411,2.8411,2.8411,2.8411,2.8411,2.8411,2.8488,2.9119,2.9341,2.9612,3.0812,3.1289,3.1516,3.2105,3.2336,3.2398,3.2398,3.2398,3.2398,3.2398,3.2398,3.2398,3.2398,3.2398,3.2398,3.2398,3.2398,3.2398,3.2398,3.2398,3.2398,3.2398,3.2398,3.2398,3.2398,3.2398,3.2398,3.2398,3.2398,3.2398,3.2398,3.2398,3.2398,3.2398,3.2398,3.2398,3.2398,3.2398,3.2398,3.2398,3.1182,3.0479,3.0479,3.0432,3.0432,3.0479,3.0479,3.0509,3.0571,3.0571,3.092,0.0,1.8061,0.0,0.0,0.0,0.0,0.0,0.0,0.0,0.0,0.0,0.0,0.0,0.0,0.0,0.0,0.0,0.0,0.0,0.0,0.0,0.0,0.0,0.0,0.0,0.0,0.0,0.0,0.0,0.0,2.4302,2.4302,2.4302,2.4302,2.4302,2.4733,2.5669,2.6087,2.6742,0.0,2.815,2.8411,2.8411,2.8411,2.8411,2.8411,2.8411,2.8411,2.8411,2.8411,2.8411,2.8411,2.8411,2.8411,2.8411,2.8411,2.8411,2.8427,2.8581,2.8965,2.9433,2.975,3.0535,3.1439,3.1551,3.1967,3.2398,3.2398,3.2398,3.2398,3.2398,3.2398,3.2398,3.2398,3.2398,3.2398,3.2398,3.2398,3.2398,3.2398,3.2398,3.2398,3.2398,3.2398,3.2398,3.2398,3.2398,3.2398,3.2398,3.2398,3.2398,3.2398,3.2398,3.2398,3.2398,3.2398,3.2398,3.2398,3.2398,3.2398,3.2398,3.1613,3.1182,3.1182,3.0663,3.0674,3.1182,3.1182,3.1459,3.1967,3.1967,3.2044,0.0,0.0,0.0,0.0,0.0,0.0,0.0,0.0,0.0,0.0,0.0,0.0,0.0,0.0,0.0,0.0,0.0,0.0,0.0,0.0,0.0,0.0,0.0,0.0,0.0,0.0,0.0,0.0,0.0,2.4302,2.4302,2.4302,2.4302,2.4302,2.4302,2.4604,2.5281,2.565,2.6188,2.6919,2.7272,2.7611,2.7934,2.8258,2.8411,2.8411,2.8411,2.8411,2.8411,2.8411,2.8411,2.8411,2.8411,2.8411,2.8411,2.8411,2.8411,2.8411,2.8411,2.8642,2.8956,2.9294,3.0104,3.0982,3.1289,3.1886,3.2398,3.2398,3.2398,3.2398,3.2398,3.2398,3.2398,3.2398,3.2398,3.2398,3.2398,3.2398,3.2398,3.2398,3.2398,3.2398,3.2398,3.2398,3.2398,3.2398,3.2398,3.2398,3.2398,3.2398,3.2398,3.2398,3.2398,3.2398,3.2398,3.2398,3.2398,3.2398,3.2398,3.2398,3.2398,3.2044,3.1859,3.1859,3.1536,3.1536,3.1859,3.1859,3.2044,3.2398,3.2398,3.2398,0.0,0.0,0.0,0.0,0.0,0.0,0.0,0.0,0.0,0.0,0.0,0.0,0.0,0.0,0.0,0.0,0.0,0.0,0.0,0.0,0.0,0.0,0.0,0.0,0.0,0.0,0.0,0.0,0.0,2.4302,2.4302,2.4302,2.4302,2.4302,2.4302,2.4579,2.5112,2.5115,2.549,2.6195,2.6318,2.6734,2.7411,2.798,2.8288,2.8411,2.8411,2.8411,2.8411,2.8411,2.8411,2.8411,2.8411,2.8411,2.8411,2.8411,2.8411,2.8411,2.8411,2.8411,2.8488,2.9058,2.9756,3.0494,3.1059,3.1767,3.2398,3.2398,3.2398,3.2398,3.2398,3.2398,3.2398,3.2398,3.2398,3.2398,3.2398,3.2398,3.2398,3.2398,3.2398,3.2398,3.2398,3.2398,3.2398,3.2398,3.2398,3.2398,3.2398,3.2398,3.2398,3.2398,3.2398,3.2398,3.2398,3.2398,3.2398,3.2398,3.2398,3.2398,3.2398,3.2398,3.2398,3.2398,3.2398,3.2398,3.2398,3.2398,3.2398,3.2398,3.2398,3.2398,0.0,0.0,0.0,0.0,0.0,0.0,0.0,0.0,0.0,0.0,0.0,0.0,0.0,0.0,0.0,0.0,0.0,0.0,0.0,0.0,0.0,0.0,0.0,0.0,0.0,0.0,0.0,0.0,2.4302,2.4302,2.4302,2.4302,2.4302,2.4302,2.4302,2.4348,2.442,2.4438,2.4774,2.5435,2.6034,2.668,2.7396,2.7488,2.7857,2.8411,2.8411,2.8411,2.8411,2.8411,2.8411,2.8411,2.8411,2.8411,2.8411,2.8411,2.8411,2.8411,2.8411,2.8411,2.8411,2.8504,2.9371,3.0417,3.0494,3.1413,3.2398,3.2398,3.2398,3.2398,3.2398,3.2398,3.2398,3.2398,3.2398,3.2398,3.2398,3.2398,3.2398,3.2398,3.2398,3.2398,3.2398,3.2398,3.2398,3.2398,3.2398,3.2398,3.2398,3.2398,3.2398,3.2398,3.2398,3.2398,3.2398,3.2398,3.2398,3.2398,3.2398,3.2398,3.2398,3.2398,3.2398,3.2398,3.2398,3.2398,3.2398,3.2398,3.2398,3.2398,3.2398,3.2398,0.0,0.0,0.0,0.0,0.0,0.0,0.0,0.0,0.0,0.0,0.0,0.0,0.0,0.0,0.0,0.0,0.0,0.0,0.0,0.0,0.0,0.0,0.0,0.0,0.0,0.0,0.0,0.0,2.4302,2.4302,2.4302,2.4302,2.4302,2.4302,2.4302,2.4302,2.4302,2.43,2.4438,2.4743,2.5419,2.6096,2.6811,2.7211,2.7765,2.8411,2.8411,2.8411,2.8411,2.8411,2.8411,2.8411,2.8411,2.8411,2.8411,2.8411,2.8411,2.8411,2.8411,2.8411,2.8411,2.8411,2.9294,3.0402,3.0402,3.1351,3.2398,3.2398,3.2398,3.2398,3.2398,3.2398,3.2398,3.2398,3.2398,3.2398,3.2398,3.2398,3.2398,3.2398,3.2398,3.2398,3.2398,3.2398,3.2398,3.2398,3.2398,3.2398,3.2398,3.2398,3.2536,3.2921,3.2613,3.2552,3.2921,3.2613,3.2398,3.2398,3.2398,3.2398,3.2398,3.2398,3.2398,3.2398,3.2398,3.2398,3.2398,3.2398,3.2398,3.2398,3.2398,3.2398,0.0,0.0,0.0,0.0,0.0,0.0,0.0,0.0,0.0,0.0,0.0,0.0,0.0,0.0,0.0,0.0,0.0,0.0,0.0,0.0,0.0,0.0,0.0,0.0,0.0,0.0,0.0,0.0,2.4302,2.4302,2.4302,2.4302,2.4302,2.4302,2.4302,2.4302,2.4302,2.4302,2.4302,2.4317,2.4804,2.5496,2.6327,2.6903,2.7596,2.8411,2.8411,2.8411,2.8411,2.8411,2.8411,2.8411,2.8411,2.8411,2.8411,2.8411,2.8411,2.8411,2.8411,2.8411,2.8427,2.8611,2.9433,3.0432,3.0586,3.1474,3.2398,3.2398,3.2398,3.2398,3.2398,3.2398,3.2398,3.2398,3.2398,3.2398,3.2398,3.2398,3.2398,3.2398,3.2398,3.2398,3.2398,3.2398,3.2398,3.2398,3.2552,3.2644,3.2644,3.2813,3.3121,3.3629,3.3229,3.3136,3.3629,3.3213,3.2921,3.2921,3.2921,3.2921,3.2921,3.2752,3.2644,3.2644,3.249,3.2398,3.2398,3.2398,3.2398,3.2398,3.2398,3.2398,0.0,0.0,0.0,0.0,0.0,0.0,0.0,0.0,0.0,0.0,0.0,0.0,0.0,0.0,0.0,0.0,0.0,0.0,0.0,0.0,0.0,0.0,0.0,0.0,0.0,0.0,0.0,0.0,2.4302,2.4302,2.4302,2.4302,2.4302,2.4302,2.4302,2.4302,2.4302,2.4302,2.4302,2.4302,2.4348,2.5072,2.6402,2.6426,2.7149,2.8411,2.8411,2.8411,2.8411,2.8411,2.8411,2.8411,2.8411,2.8411,2.8411,2.8411,2.8411,2.8411,2.8411,2.8411,2.8504,2.915,2.9817,3.0509,3.1151,3.1828,3.2398,3.2398,3.2398,3.2398,3.2398,3.2398,3.2398,3.2398,3.2398,3.2398,3.2398,3.2398,3.2398,3.2398,3.2398,3.2398,3.2398,3.2398,3.2398,3.2398,3.2936,3.3352,3.3352,3.3966,3.4412,3.4443,3.4412,3.4412,3.4443,3.4412,3.4397,3.4397,3.4397,3.4397,3.4397,3.3706,3.3352,3.3352,3.2721,3.2398,3.2398,3.2398,3.2398,3.2398,3.2398,3.2398,0.0,0.0,0.0,0.0,0.0,0.0,0.0,0.0,0.0,0.0,0.0,0.0,0.0,0.0,0.0,0.0,0.0,0.0,0.0,0.0,0.0,0.0,0.0,0.0,0.0,0.0,0.0,0.0,0.0,2.4302,2.4302,2.4302,2.4302,2.4302,2.4302,2.4302,2.4302,2.4302,2.4302,2.4302,2.4302,2.4795,2.5718,2.618,2.6888,2.778,2.8211,2.8411,2.8411,2.8411,2.8411,2.8411,2.8411,2.8411,2.8411,2.8411,2.8411,2.8411,2.8411,2.8411,2.8519,2.9171,2.9848,3.0525,3.1197,3.1886,3.2398,3.2398,3.2398,3.2398,3.2398,3.2398,3.2398,3.2398,3.2398,3.2398,3.2398,3.2398,3.2398,3.2398,3.2752,3.3044,3.3044,3.3413,3.3765,3.3765,3.3966,3.412,3.412,3.4351,3.4659,3.5106,3.4767,3.4674,3.5121,3.4751,3.4505,3.4505,3.4505,3.4505,3.4505,3.4258,3.412,3.412,3.3398,3.2829,3.2398,3.2398,3.2398,3.2398,3.2398,3.2398,1.6255,0.0,0.0,0.0,0.0,0.0,0.0,0.0,0.0,0.0,0.0,0.0,0.0,0.0,0.0,0.0,0.0,0.0,0.0,0.0,0.0,0.0,0.0,0.0,0.0,0.0,0.0,0.0,0.0,0.0,2.4302,2.4302,2.4302,2.4302,2.4302,2.4302,2.4302,2.4302,2.4302,2.4302,2.4302,2.4687,2.5447,2.5935,2.6734,2.7759,2.8205,2.8411,2.8411,2.8411,2.8411,2.8411,2.8411,2.8411,2.8411,2.8411,2.8411,2.8411,2.8411,2.8411,2.855,2.9433,3.0033,3.0555,3.1459,3.2044,3.2398,3.2398,3.2398,3.2398,3.2398,3.2398,3.2398,3.2398,3.2567,3.2736,3.2736,3.2736,3.2736,3.2736,3.329,3.3767,3.3767,3.4181,3.4505,3.4505,3.469,3.4844,3.4844,3.5044,3.5352,3.5799,3.5444,3.5367,3.5784,3.5444,3.5183,3.5183,3.5183,3.5183,3.5183,3.4967,3.4844,3.4844,3.4121,3.3413,3.2736,3.2505,3.2398,3.2398,3.2398,3.2398,0.0,0.0,0.0,0.0,0.0,0.0,0.0,0.0,0.0,0.0,0.0,0.0,0.0,0.0,0.0,0.0,0.0,0.0,0.0,0.0,0.0,0.0,0.0,0.0,0.0,0.0,0.0,0.0,2.4302,2.4302,2.4302,2.4302,2.4302,2.4302,2.4302,2.4302,2.4302,2.4302,2.4302,2.4302,2.4302,2.4775,2.5663,2.5693,2.6665,2.835,2.8384,2.8411,2.8411,2.8411,2.8411,2.8411,2.8411,2.8411,2.8411,2.8411,2.8411,2.8411,2.8411,2.8411,2.8658,2.9971,3.0402,3.0678,3.1997,3.2398,3.2398,3.2398,3.2398,3.2398,3.2398,3.2398,3.2398,3.2413,3.2921,3.3413,3.3429,3.346,3.346,3.3444,3.4014,3.4536,3.4536,3.4551,3.4566,3.4566,3.5121,3.5537,3.5537,3.6091,3.6492,3.6492,3.6492,3.6492,3.6492,3.6492,3.6492,3.6492,3.6492,3.6492,3.6492,3.5891,3.5537,3.5537,3.4874,3.4197,3.346,3.2767,3.2413,3.2398,3.2398,3.2398,1.4569,0.0,0.0,0.0,0.0,0.0,0.0,0.0,0.0,0.0,0.0,0.0,0.0,0.0,0.0,0.0,0.0,0.0,0.0,0.0,0.0,0.0,0.0,0.0,0.0,0.0,0.0,0.0,2.4302,2.4302,2.4302,2.4302,2.4302,2.4302,2.4302,2.4302,2.4302,2.4302,2.4302,2.4302,2.4302,2.4425,2.4708,2.5389,2.6312,2.744,2.8098,2.8411,2.8411,2.8411,2.8411,2.8411,2.8411,2.8411,2.8411,2.8411,2.8411,2.8411,2.8411,2.8719,2.9248,3.0125,3.0735,3.1274,3.2136,3.2398,3.2398,3.2398,3.2398,3.2398,3.2398,3.2398,3.2521,3.3013,3.3275,3.3552,3.4089,3.4597,3.4797,3.4305,3.4767,3.5229,3.5229,3.5645,3.5938,3.5938,3.6091,3.6215,3.6215,3.6384,3.6492,3.6492,3.6492,3.6492,3.6492,3.6492,3.6492,3.6492,3.6492,3.6492,3.6492,3.6307,3.6215,3.6215,3.5568,3.5106,3.4906,3.3706,3.2875,3.2398,3.2398,3.2398,0.0,0.0,0.0,0.0,0.0,0.0,0.0,1.9122,0.0,0.0,0.0,0.0,0.0,0.0,0.0,0.0,0.0,0.0,0.0,0.0,0.0,0.0,0.0,0.0,0.0,2.3742,2.3907,2.4271,2.4302,2.4302,2.4302,2.4302,2.4302,2.4302,2.4302,2.4302,2.4302,2.4302,2.4302,2.4302,2.4302,2.4302,2.4327,2.5643,2.6524,2.7053,2.799,2.8411,2.8411,2.8411,2.8411,2.8411,2.8411,2.8411,2.8411,2.8411,2.8411,2.8411,2.8411,2.8842,2.9494,3.0186,3.0859,3.1547,3.2198,3.237,3.233,3.233,3.2274,3.2247,3.2247,3.2247,3.2415,3.313,3.3543,3.3942,3.4752,3.543,3.5707,3.5059,3.5475,3.5937,3.5937,3.623,3.6492,3.6492,3.6492,3.6492,3.6492,3.6492,3.6492,3.6492,3.6492,3.6492,3.6492,3.6492,3.6492,3.6492,3.6492,3.6492,3.6492,3.6492,3.6492,3.6492,3.6107,3.5799,3.5506,3.4091,3.3059,3.2398,3.2398,3.2398,1.6696,1.7283,0.0,0.0,0.0,0.0,1.9116,1.9073,1.9258,0.0,0.0,0.0,0.0,0.0,0.0,0.0,0.0,0.0,0.0,0.0,0.0,0.0,0.0,0.0,2.3737,2.3412,2.3345,2.4128,2.4271,2.4302,2.4302,2.4302,2.4302,2.4302,2.4302,2.4302,2.4302,2.4302,2.4302,2.4302,2.4302,2.4302,2.4364,2.6134,2.6922,2.6984,2.7951,2.8411,2.8411,2.8411,2.8411,2.8411,2.8411,2.8411,2.8411,2.8411,2.8411,2.8411,2.8488,2.8965,2.9617,3.0294,3.094,3.1586,3.2185,3.2259,3.2163,3.2163,3.2094,3.1996,3.1996,3.2042,3.2298,3.3096,3.3797,3.4529,3.5385,3.603,3.6276,3.5707,3.6076,3.6492,3.6492,3.6492,3.6492,3.6492,3.6492,3.6492,3.6492,3.6492,3.6492,3.6492,3.6492,3.6492,3.6492,3.6492,3.6492,3.6492,3.6492,3.6492,3.6492,3.6492,3.6492,3.6492,3.6492,3.6153,3.5506,3.4168,3.3167,3.2505,3.2505,3.2505,1.7455,1.8228,1.9107,1.8613,0.0,0.0,0.0,1.8353,1.873,0.0,0.0,0.0,0.0,0.0,0.0,0.0,0.0,0.0,0.0,0.0,0.0,0.0,0.0,0.0,2.1821,2.2705,2.3297,2.3486,2.401,2.4302,2.4302,2.4302,2.4302,2.4302,2.4302,2.4302,2.4302,2.4302,2.4302,2.4302,2.4302,2.4302,2.4364,2.5839,2.6486,2.651,2.7827,2.8411,2.8411,2.8411,2.8411,2.8411,2.8411,2.8411,2.8411,2.8411,2.8411,2.8488,2.9027,2.9633,3.0309,3.0865,3.1512,3.205,3.2076,3.2066,3.2038,3.2038,3.2025,3.1996,3.1996,3.2391,3.2997,3.3695,3.4364,3.5033,3.5765,3.6088,3.6228,3.6105,3.6291,3.6492,3.6492,3.6492,3.6492,3.6492,3.6492,3.6492,3.6492,3.6492,3.6492,3.6492,3.6492,3.6492,3.6492,3.6492,3.6492,3.6492,3.6492,3.6492,3.6492,3.6492,3.6492,3.6492,3.6492,3.6153,3.5506,3.469,3.3906,3.3198,3.3198,3.3198,1.8222,1.8643,1.9206,1.924,0.0,0.0,0.0,0.0,0.0,0.0,0.0,0.0,0.0,0.0,0.0,0.0,0.0,0.0,0.0,0.0,0.0,0.0,0.0,0.0,2.1257,2.192,2.2582,2.324,2.3609,2.3948,2.4287,2.4302,2.4302,2.4302,2.4302,2.4302,2.4302,2.4302,2.4302,2.4302,2.4302,2.4302,2.4364,2.5749,2.6364,2.6388,2.7796,2.8411,2.8411,2.8411,2.8411,2.8411,2.8411,2.8411,2.8411,2.8411,2.8611,2.8965,2.9279,3.0022,3.0834,3.1117,3.1601,3.2094,3.2025,3.194,3.1898,3.1769,3.1769,3.1769,3.1769,3.2251,3.2944,3.3713,3.4409,3.506,3.5821,3.6053,3.6085,3.6085,3.6195,3.6304,3.646,3.6492,3.6492,3.6492,3.6492,3.6492,3.6492,3.6492,3.6492,3.6492,3.6492,3.6492,3.6492,3.6492,3.6492,3.6492,3.6492,3.6492,3.6492,3.6492,3.6492,3.6492,3.6492,3.6322,3.5984,3.5645,3.4967,3.3937,3.3937,3.3937,0.0,0.0,0.0,0.0,0.0,1.9232,0.0,0.0,0.0,0.0,0.0,0.0,0.0,0.0,0.0,0.0,0.0,0.0,0.0,0.0,0.0,0.0,0.0,0.0,0.0,2.1103,2.1658,2.3009,2.3102,2.3394,2.4071,2.4241,2.4302,2.4302,2.4302,2.4302,2.4302,2.4302,2.4302,2.4302,2.4302,2.4379,2.4548,2.5901,2.6441,2.6397,2.7803,2.8411,2.8411,2.8411,2.8411,2.8411,2.8411,2.8411,2.8411,2.8411,2.8827,2.9427,2.9541,3.0319,3.1267,3.1323,3.1597,3.1912,3.1912,3.1826,3.1698,3.1539,3.1585,3.169,3.169,3.2273,3.3066,3.3758,3.4406,3.5055,3.574,3.591,3.5941,3.5941,3.5973,3.6068,3.6367,3.6398,3.6398,3.6398,3.6398,3.6429,3.6445,3.6445,3.646,3.6492,3.6492,3.6492,3.6492,3.6492,3.6492,3.6492,3.6492,3.6492,3.6492,3.6492,3.6492,3.6492,3.6492,3.6492,3.6445,3.6492,3.5891,3.469,3.469,3.469,0.0,0.0,0.0,0.0,2.0467,0.0,0.0,0.0,0.0,0.0,0.0,0.0,0.0,0.0,0.0,0.0,0.0,0.0,0.0,0.0,0.0,0.0,0.0,0.0,0.0,2.0412,2.0965,2.232,2.2394,2.2721,2.3379,2.3979,2.4302,2.4302,2.4302,2.4302,2.4302,2.4302,2.4302,2.4302,2.4302,2.4604,2.5241,2.639,2.6741,2.6457,2.7823,2.8411,2.8411,2.8411,2.8411,2.8411,2.8411,2.8411,2.8411,2.8411,2.8827,2.9479,3.0079,3.0755,3.1436,3.1789,3.1751,3.1568,3.1568,3.1539,3.1539,3.1511,3.1929,3.2378,3.2378,3.332,3.4309,3.4384,3.4923,3.5432,3.5554,3.5653,3.572,3.572,3.5863,3.6005,3.6037,3.6068,3.6068,3.6068,3.6068,3.61,3.6211,3.6242,3.6305,3.6492,3.6492,3.6492,3.6492,3.6492,3.6492,3.6492,3.6492,3.6492,3.6492,3.6492,3.6492,3.6492,3.6492,3.6414,3.6242,3.6414,3.6107,3.5398,3.5398,3.5398,0.0,0.0,0.0,0.0,0.0,0.0,1.886,0.0,1.8302,0.0,0.0,0.0,0.0,0.0,0.0,0.0,0.0,0.0,0.0,0.0,0.0,0.0,0.0,0.0,0.0,0.0,0.0,0.0,2.1365,2.1781,2.3225,2.3563,2.3902,2.4302,2.4302,2.4302,2.4302,2.4302,2.4302,2.4302,2.4681,2.5108,2.5568,2.6717,2.735,2.7604,2.8174,2.8411,2.8411,2.8411,2.8411,2.8387,2.8268,2.8308,2.8458,2.8842,2.9362,2.9971,3.0725,3.1267,3.1645,3.1692,3.1611,3.1511,3.1511,3.1511,3.1511,3.1511,3.1974,3.2512,3.2512,3.3484,3.4503,3.4503,3.4996,3.5504,3.5504,3.5554,3.5572,3.5572,3.5636,3.5716,3.5716,3.5861,3.6005,3.6005,3.6005,3.6037,3.6085,3.6085,3.6132,3.6195,3.6195,3.6195,3.6195,3.6195,3.6195,3.6195,3.6195,3.6226,3.6305,3.6352,3.6383,3.6492,3.6492,3.646,3.6383,3.646,3.6353,3.6061,3.6061,3.6061,2.1485,0.0,0.0,0.0,0.0,0.0,0.0,0.0,0.0,0.0,0.0,0.0,0.0,0.0,0.0,0.0,0.0,0.0,0.0,0.0,0.0,0.0,0.0,0.0,0.0,0.0,0.0,0.0,0.0,2.0888,2.2917,2.3194,2.3609,2.4287,2.4302,2.4302,2.4302,2.4302,2.4302,2.4317,2.4973,2.5509,2.5935,2.6926,2.7767,2.8396,2.8391,2.8411,2.8411,2.8411,2.8372,2.8293,2.8165,2.8287,2.8612,2.9102,2.9649,3.0269,3.1033,3.1503,3.1784,3.1626,3.1539,3.1511,3.1511,3.1511,3.154,3.172,3.2243,3.2826,3.3006,3.3903,3.4756,3.4756,3.5145,3.5504,3.5504,3.5504,3.5504,3.5504,3.5504,3.5504,3.5504,3.5716,3.5861,3.5861,3.5861,3.5893,3.5894,3.5926,3.5941,3.6005,3.6037,3.6053,3.6053,3.61,3.6147,3.6147,3.6147,3.6195,3.6274,3.6274,3.6352,3.6492,3.6492,3.646,3.6414,3.646,3.646,3.6414,3.646,3.6492,0.0,0.0,0.0,2.042,0.0,0.0,0.0,0.0,1.8872,0.0,0.0,0.0,0.0,0.0,0.0,0.0,0.0,0.0,0.0,0.0,0.0,0.0,0.0,0.0,0.0,0.0,0.0,0.0,1.9703,0.0,2.2228,2.2948,2.3609,2.4287,2.4302,2.4302,2.4302,2.4302,2.4302,2.4317,2.4973,2.5687,2.6402,2.7088,2.7765,2.8396,2.8396,2.8411,2.8411,2.8411,2.8253,2.8015,2.8085,2.8454,2.8976,2.8991,2.9431,3.0099,3.0767,3.1367,3.1799,3.1799,3.167,3.1511,3.1511,3.1511,3.1645,3.2273,3.2961,3.3604,3.4279,3.4936,3.5474,3.5474,3.5489,3.5504,3.5504,3.5504,3.5504,3.5504,3.5504,3.5504,3.5504,3.5504,3.5504,3.5504,3.5504,3.5554,3.5688,3.572,3.5784,3.5973,3.6116,3.6196,3.6196,3.6383,3.6492,3.6492,3.6492,3.6492,3.6492,3.6492,3.6492,3.6492,3.6492,3.6383,3.6211,3.6414,3.6383,3.6211,3.6414,3.6492,0.0,0.0,2.4003,2.2026,0.0,0.0,0.0,0.0,0.0,0.0,0.0,0.0,0.0,0.0,0.0,0.0,0.0,0.0,0.0,0.0,0.0,0.0,0.0,0.0,0.0,0.0,0.0,0.0,1.9425,0.0,2.155,2.2255,2.2948,2.3625,2.4071,2.4302,2.4302,2.4302,2.4512,2.4958,2.5687,2.638,2.7072,2.775,2.8196,2.8411,2.8411,2.8411,2.8387,2.8268,2.8229,2.8229,2.7999,2.8349,2.9052,2.9507,3.0004,3.0546,3.114,3.1531,3.1784,3.1641,3.1568,3.1511,3.1511,3.1809,3.2198,3.2452,3.3305,3.4219,3.4444,3.4996,3.5504,3.5504,3.5504,3.5504,3.5504,3.5504,3.5504,3.5504,3.5504,3.5504,3.5504,3.5504,3.5504,3.5504,3.5504,3.5537,3.5554,3.5572,3.5636,3.5784,3.5847,3.5911,3.6068,3.6132,3.6163,3.6163,3.6163,3.6195,3.6305,3.6305,3.6352,3.6492,3.6492,3.646,3.6383,3.6352,3.6274,3.6196,3.6195,3.6289,2.3797,2.4491,0.0,2.3105,2.2699,0.0,2.0175,0.0,0.0,0.0,0.0,0.0,0.0,0.0,0.0,0.0,0.0,0.0,0.0,0.0,0.0,0.0,0.0,0.0,0.0,0.0,1.8854,1.9595,1.9178,0.0,0.0,0.0,2.2609,2.3271,2.3948,2.4302,2.4302,2.4548,2.4866,2.5312,2.6287,2.698,2.7411,2.8104,2.8411,2.8411,2.8411,2.8411,2.8387,2.8268,2.8244,2.8275,2.8247,2.8662,2.9312,2.9724,3.0325,3.1026,3.139,3.1568,3.167,3.1539,3.1511,3.154,3.178,3.2153,3.2617,3.308,3.3829,3.4563,3.4771,3.5175,3.5504,3.5504,3.5504,3.5504,3.5504,3.5504,3.5504,3.5504,3.5504,3.5504,3.5504,3.5504,3.5504,3.5504,3.5504,3.5504,3.5504,3.5504,3.5522,3.5621,3.5671,3.5784,3.5973,3.6005,3.6005,3.6005,3.6022,3.6116,3.6211,3.6274,3.6383,3.6492,3.6492,3.646,3.6383,3.6352,3.6274,3.6196,3.6195,3.6289]}]]